<?xml version="1.0" encoding="UTF-8" standalone="no" ?>
<gpx xmlns="http://www.topografix.com/GPX/1/1" xmlns:xsi="http://www.w3.org/2001/XMLSchema-instance" xsi:schemaLocation="http://www.topografix.com/GPX/1/1 http://www.topografix.com/GPX/1/1/gpx.xsd" version="1.1" creator="VisuGPX - https://www.visugpx.com">
  <metadata>
    <name>Sortie VTT du mercredi 18 avril 2012</name>
    <desc><![CDATA[Sur route sauf à la fin : 33 km
temperature de 8 à 10 °
jour de mon anniversaire]]></desc>
  </metadata>
  <trk>
    <name><![CDATA[Port20]]></name>
    <trkseg>
      <trkpt lat="47.68558" lon="6.04178">
        <ele>311.20001220703</ele>
        <time>2012-04-18T07:33:19.000Z</time>
      </trkpt>
      <trkpt lat="47.68579" lon="6.04184">
        <ele>311.20001220703</ele>
        <time>2012-04-18T07:33:25.000Z</time>
      </trkpt>
      <trkpt lat="47.68597" lon="6.04189">
        <ele>311.20001220703</ele>
        <time>2012-04-18T07:33:31.000Z</time>
      </trkpt>
      <trkpt lat="47.6861" lon="6.0419">
        <ele>310.60000610352</ele>
        <time>2012-04-18T07:33:35.000Z</time>
      </trkpt>
      <trkpt lat="47.68614" lon="6.04191">
        <ele>309.39999389648</ele>
        <time>2012-04-18T07:33:36.000Z</time>
      </trkpt>
      <trkpt lat="47.68617" lon="6.04192">
        <ele>307.79998779297</ele>
        <time>2012-04-18T07:33:37.000Z</time>
      </trkpt>
      <trkpt lat="47.6862" lon="6.04194">
        <ele>303.79998779297</ele>
        <time>2012-04-18T07:33:38.000Z</time>
      </trkpt>
      <trkpt lat="47.68623" lon="6.04196">
        <ele>301.60000610352</ele>
        <time>2012-04-18T07:33:39.000Z</time>
      </trkpt>
      <trkpt lat="47.68626" lon="6.04198">
        <ele>299.20001220703</ele>
        <time>2012-04-18T07:33:40.000Z</time>
      </trkpt>
      <trkpt lat="47.68629" lon="6.04199">
        <ele>296.79998779297</ele>
        <time>2012-04-18T07:33:41.000Z</time>
      </trkpt>
      <trkpt lat="47.68633" lon="6.04199">
        <ele>294.39999389648</ele>
        <time>2012-04-18T07:33:42.000Z</time>
      </trkpt>
      <trkpt lat="47.68637" lon="6.042">
        <ele>292.60000610352</ele>
        <time>2012-04-18T07:33:43.000Z</time>
      </trkpt>
      <trkpt lat="47.6864" lon="6.04201">
        <ele>290.60000610352</ele>
        <time>2012-04-18T07:33:44.000Z</time>
      </trkpt>
      <trkpt lat="47.68644" lon="6.04202">
        <ele>288.60000610352</ele>
        <time>2012-04-18T07:33:45.000Z</time>
      </trkpt>
      <trkpt lat="47.68649" lon="6.04203">
        <ele>286.39999389648</ele>
        <time>2012-04-18T07:33:46.000Z</time>
      </trkpt>
      <trkpt lat="47.68653" lon="6.04204">
        <ele>284.20001220703</ele>
        <time>2012-04-18T07:33:47.000Z</time>
      </trkpt>
      <trkpt lat="47.68656" lon="6.04205">
        <ele>281.79998779297</ele>
        <time>2012-04-18T07:33:48.000Z</time>
      </trkpt>
      <trkpt lat="47.6866" lon="6.04206">
        <ele>279.60000610352</ele>
        <time>2012-04-18T07:33:49.000Z</time>
      </trkpt>
      <trkpt lat="47.68664" lon="6.04207">
        <ele>277.39999389648</ele>
        <time>2012-04-18T07:33:50.000Z</time>
      </trkpt>
      <trkpt lat="47.68667" lon="6.04209">
        <ele>275.39999389648</ele>
        <time>2012-04-18T07:33:51.000Z</time>
      </trkpt>
      <trkpt lat="47.68671" lon="6.0421">
        <ele>273.39999389648</ele>
        <time>2012-04-18T07:33:52.000Z</time>
      </trkpt>
      <trkpt lat="47.68674" lon="6.04211">
        <ele>271.60000610352</ele>
        <time>2012-04-18T07:33:53.000Z</time>
      </trkpt>
      <trkpt lat="47.68678" lon="6.04212">
        <ele>269.79998779297</ele>
        <time>2012-04-18T07:33:54.000Z</time>
      </trkpt>
      <trkpt lat="47.68681" lon="6.04214">
        <ele>268</ele>
        <time>2012-04-18T07:33:55.000Z</time>
      </trkpt>
      <trkpt lat="47.68685" lon="6.04215">
        <ele>266.20001220703</ele>
        <time>2012-04-18T07:33:56.000Z</time>
      </trkpt>
      <trkpt lat="47.68689" lon="6.04217">
        <ele>264.60000610352</ele>
        <time>2012-04-18T07:33:57.000Z</time>
      </trkpt>
      <trkpt lat="47.68693" lon="6.04218">
        <ele>262.79998779297</ele>
        <time>2012-04-18T07:33:58.000Z</time>
      </trkpt>
      <trkpt lat="47.68697" lon="6.04219">
        <ele>261.20001220703</ele>
        <time>2012-04-18T07:33:59.000Z</time>
      </trkpt>
      <trkpt lat="47.68701" lon="6.0422">
        <ele>259.39999389648</ele>
        <time>2012-04-18T07:34:00.000Z</time>
      </trkpt>
      <trkpt lat="47.68705" lon="6.04221">
        <ele>257.79998779297</ele>
        <time>2012-04-18T07:34:01.000Z</time>
      </trkpt>
      <trkpt lat="47.68713" lon="6.04223">
        <ele>256.60000610352</ele>
        <time>2012-04-18T07:34:03.000Z</time>
      </trkpt>
      <trkpt lat="47.68718" lon="6.04223">
        <ele>255.80000305176</ele>
        <time>2012-04-18T07:34:04.000Z</time>
      </trkpt>
      <trkpt lat="47.68723" lon="6.04223">
        <ele>255</ele>
        <time>2012-04-18T07:34:05.000Z</time>
      </trkpt>
      <trkpt lat="47.68727" lon="6.04224">
        <ele>254</ele>
        <time>2012-04-18T07:34:06.000Z</time>
      </trkpt>
      <trkpt lat="47.68731" lon="6.04225">
        <ele>253</ele>
        <time>2012-04-18T07:34:07.000Z</time>
      </trkpt>
      <trkpt lat="47.68735" lon="6.04225">
        <ele>252.19999694824</ele>
        <time>2012-04-18T07:34:08.000Z</time>
      </trkpt>
      <trkpt lat="47.68739" lon="6.04225">
        <ele>251.39999389648</ele>
        <time>2012-04-18T07:34:09.000Z</time>
      </trkpt>
      <trkpt lat="47.68742" lon="6.04226">
        <ele>250.60000610352</ele>
        <time>2012-04-18T07:34:10.000Z</time>
      </trkpt>
      <trkpt lat="47.68746" lon="6.04226">
        <ele>249.60000610352</ele>
        <time>2012-04-18T07:34:11.000Z</time>
      </trkpt>
      <trkpt lat="47.6875" lon="6.04227">
        <ele>248.60000610352</ele>
        <time>2012-04-18T07:34:12.000Z</time>
      </trkpt>
      <trkpt lat="47.68754" lon="6.04227">
        <ele>247.60000610352</ele>
        <time>2012-04-18T07:34:13.000Z</time>
      </trkpt>
      <trkpt lat="47.68758" lon="6.04227">
        <ele>246.60000610352</ele>
        <time>2012-04-18T07:34:14.000Z</time>
      </trkpt>
      <trkpt lat="47.68762" lon="6.04227">
        <ele>245.39999389648</ele>
        <time>2012-04-18T07:34:15.000Z</time>
      </trkpt>
      <trkpt lat="47.68766" lon="6.04227">
        <ele>244.39999389648</ele>
        <time>2012-04-18T07:34:16.000Z</time>
      </trkpt>
      <trkpt lat="47.6877" lon="6.04227">
        <ele>243.39999389648</ele>
        <time>2012-04-18T07:34:17.000Z</time>
      </trkpt>
      <trkpt lat="47.68781" lon="6.0423">
        <ele>243</ele>
        <time>2012-04-18T07:34:20.000Z</time>
      </trkpt>
      <trkpt lat="47.68785" lon="6.0423">
        <ele>242.60000610352</ele>
        <time>2012-04-18T07:34:21.000Z</time>
      </trkpt>
      <trkpt lat="47.68789" lon="6.04231">
        <ele>242.19999694824</ele>
        <time>2012-04-18T07:34:22.000Z</time>
      </trkpt>
      <trkpt lat="47.68793" lon="6.04232">
        <ele>241.80000305176</ele>
        <time>2012-04-18T07:34:23.000Z</time>
      </trkpt>
      <trkpt lat="47.68797" lon="6.04232">
        <ele>241.19999694824</ele>
        <time>2012-04-18T07:34:24.000Z</time>
      </trkpt>
      <trkpt lat="47.68801" lon="6.04233">
        <ele>240.60000610352</ele>
        <time>2012-04-18T07:34:25.000Z</time>
      </trkpt>
      <trkpt lat="47.68805" lon="6.04232">
        <ele>240</ele>
        <time>2012-04-18T07:34:26.000Z</time>
      </trkpt>
      <trkpt lat="47.68809" lon="6.04234">
        <ele>239</ele>
        <time>2012-04-18T07:34:27.000Z</time>
      </trkpt>
      <trkpt lat="47.68812" lon="6.04235">
        <ele>238.39999389648</ele>
        <time>2012-04-18T07:34:28.000Z</time>
      </trkpt>
      <trkpt lat="47.68816" lon="6.04237">
        <ele>237.80000305176</ele>
        <time>2012-04-18T07:34:29.000Z</time>
      </trkpt>
      <trkpt lat="47.68819" lon="6.04237">
        <ele>237.19999694824</ele>
        <time>2012-04-18T07:34:30.000Z</time>
      </trkpt>
      <trkpt lat="47.68822" lon="6.04237">
        <ele>236.60000610352</ele>
        <time>2012-04-18T07:34:31.000Z</time>
      </trkpt>
      <trkpt lat="47.68825" lon="6.04237">
        <ele>236</ele>
        <time>2012-04-18T07:34:32.000Z</time>
      </trkpt>
      <trkpt lat="47.68828" lon="6.04236">
        <ele>235.39999389648</ele>
        <time>2012-04-18T07:34:33.000Z</time>
      </trkpt>
      <trkpt lat="47.68832" lon="6.04236">
        <ele>234.60000610352</ele>
        <time>2012-04-18T07:34:34.000Z</time>
      </trkpt>
      <trkpt lat="47.68836" lon="6.04236">
        <ele>234.19999694824</ele>
        <time>2012-04-18T07:34:35.000Z</time>
      </trkpt>
      <trkpt lat="47.6884" lon="6.04236">
        <ele>233.80000305176</ele>
        <time>2012-04-18T07:34:36.000Z</time>
      </trkpt>
      <trkpt lat="47.68843" lon="6.04237">
        <ele>233.39999389648</ele>
        <time>2012-04-18T07:34:37.000Z</time>
      </trkpt>
      <trkpt lat="47.68847" lon="6.04237">
        <ele>232.80000305176</ele>
        <time>2012-04-18T07:34:38.000Z</time>
      </trkpt>
      <trkpt lat="47.68851" lon="6.04237">
        <ele>232.39999389648</ele>
        <time>2012-04-18T07:34:39.000Z</time>
      </trkpt>
      <trkpt lat="47.68854" lon="6.04238">
        <ele>231.80000305176</ele>
        <time>2012-04-18T07:34:40.000Z</time>
      </trkpt>
      <trkpt lat="47.68858" lon="6.04238">
        <ele>231.19999694824</ele>
        <time>2012-04-18T07:34:41.000Z</time>
      </trkpt>
      <trkpt lat="47.68862" lon="6.04238">
        <ele>230.60000610352</ele>
        <time>2012-04-18T07:34:42.000Z</time>
      </trkpt>
      <trkpt lat="47.68865" lon="6.04238">
        <ele>230.19999694824</ele>
        <time>2012-04-18T07:34:43.000Z</time>
      </trkpt>
      <trkpt lat="47.68869" lon="6.04238">
        <ele>229.60000610352</ele>
        <time>2012-04-18T07:34:44.000Z</time>
      </trkpt>
      <trkpt lat="47.68873" lon="6.04238">
        <ele>229.19999694824</ele>
        <time>2012-04-18T07:34:45.000Z</time>
      </trkpt>
      <trkpt lat="47.68877" lon="6.04239">
        <ele>228.80000305176</ele>
        <time>2012-04-18T07:34:46.000Z</time>
      </trkpt>
      <trkpt lat="47.68881" lon="6.0424">
        <ele>228.19999694824</ele>
        <time>2012-04-18T07:34:47.000Z</time>
      </trkpt>
      <trkpt lat="47.68885" lon="6.0424">
        <ele>227.80000305176</ele>
        <time>2012-04-18T07:34:48.000Z</time>
      </trkpt>
      <trkpt lat="47.68895" lon="6.04241">
        <ele>227.80000305176</ele>
        <time>2012-04-18T07:34:51.000Z</time>
      </trkpt>
      <trkpt lat="47.68913" lon="6.04245">
        <ele>227.80000305176</ele>
        <time>2012-04-18T07:34:57.000Z</time>
      </trkpt>
      <trkpt lat="47.68914" lon="6.04247">
        <ele>227.80000305176</ele>
        <time>2012-04-18T07:35:01.000Z</time>
      </trkpt>
      <trkpt lat="47.68914" lon="6.04247">
        <ele>227.39999389648</ele>
        <time>2012-04-18T07:35:03.000Z</time>
      </trkpt>
      <trkpt lat="47.68915" lon="6.04248">
        <ele>227</ele>
        <time>2012-04-18T07:35:04.000Z</time>
      </trkpt>
      <trkpt lat="47.68916" lon="6.04248">
        <ele>226.60000610352</ele>
        <time>2012-04-18T07:35:05.000Z</time>
      </trkpt>
      <trkpt lat="47.68918" lon="6.04248">
        <ele>226.19999694824</ele>
        <time>2012-04-18T07:35:06.000Z</time>
      </trkpt>
      <trkpt lat="47.6892" lon="6.04246">
        <ele>225.60000610352</ele>
        <time>2012-04-18T07:35:07.000Z</time>
      </trkpt>
      <trkpt lat="47.68925" lon="6.04236">
        <ele>225.19999694824</ele>
        <time>2012-04-18T07:35:10.000Z</time>
      </trkpt>
      <trkpt lat="47.68927" lon="6.04231">
        <ele>224.80000305176</ele>
        <time>2012-04-18T07:35:11.000Z</time>
      </trkpt>
      <trkpt lat="47.68929" lon="6.04226">
        <ele>224.39999389648</ele>
        <time>2012-04-18T07:35:12.000Z</time>
      </trkpt>
      <trkpt lat="47.6893" lon="6.04222">
        <ele>224</ele>
        <time>2012-04-18T07:35:13.000Z</time>
      </trkpt>
      <trkpt lat="47.68932" lon="6.04218">
        <ele>223.60000610352</ele>
        <time>2012-04-18T07:35:14.000Z</time>
      </trkpt>
      <trkpt lat="47.68935" lon="6.04209">
        <ele>223</ele>
        <time>2012-04-18T07:35:16.000Z</time>
      </trkpt>
      <trkpt lat="47.68936" lon="6.04204">
        <ele>222.60000610352</ele>
        <time>2012-04-18T07:35:17.000Z</time>
      </trkpt>
      <trkpt lat="47.68938" lon="6.04199">
        <ele>222.19999694824</ele>
        <time>2012-04-18T07:35:18.000Z</time>
      </trkpt>
      <trkpt lat="47.68941" lon="6.04194">
        <ele>221.80000305176</ele>
        <time>2012-04-18T07:35:19.000Z</time>
      </trkpt>
      <trkpt lat="47.68943" lon="6.04188">
        <ele>221.39999389648</ele>
        <time>2012-04-18T07:35:20.000Z</time>
      </trkpt>
      <trkpt lat="47.68949" lon="6.04177">
        <ele>221.39999389648</ele>
        <time>2012-04-18T07:35:22.000Z</time>
      </trkpt>
      <trkpt lat="47.68955" lon="6.04167">
        <ele>221</ele>
        <time>2012-04-18T07:35:24.000Z</time>
      </trkpt>
      <trkpt lat="47.68957" lon="6.04162">
        <ele>220.60000610352</ele>
        <time>2012-04-18T07:35:25.000Z</time>
      </trkpt>
      <trkpt lat="47.68959" lon="6.04157">
        <ele>220</ele>
        <time>2012-04-18T07:35:26.000Z</time>
      </trkpt>
      <trkpt lat="47.68961" lon="6.04152">
        <ele>219.60000610352</ele>
        <time>2012-04-18T07:35:27.000Z</time>
      </trkpt>
      <trkpt lat="47.68962" lon="6.04146">
        <ele>219.19999694824</ele>
        <time>2012-04-18T07:35:28.000Z</time>
      </trkpt>
      <trkpt lat="47.68963" lon="6.04141">
        <ele>219.19999694824</ele>
        <time>2012-04-18T07:35:29.000Z</time>
      </trkpt>
      <trkpt lat="47.68977" lon="6.04104">
        <ele>219.19999694824</ele>
        <time>2012-04-18T07:35:36.000Z</time>
      </trkpt>
      <trkpt lat="47.68995" lon="6.04062">
        <ele>219.19999694824</ele>
        <time>2012-04-18T07:35:43.000Z</time>
      </trkpt>
      <trkpt lat="47.6901" lon="6.04021">
        <ele>219.19999694824</ele>
        <time>2012-04-18T07:35:51.000Z</time>
      </trkpt>
      <trkpt lat="47.69014" lon="6.04012">
        <ele>217</ele>
        <time>2012-04-18T07:35:53.000Z</time>
      </trkpt>
      <trkpt lat="47.69015" lon="6.04007">
        <ele>217</ele>
        <time>2012-04-18T07:35:54.000Z</time>
      </trkpt>
      <trkpt lat="47.69018" lon="6.04003">
        <ele>216.60000610352</ele>
        <time>2012-04-18T07:35:55.000Z</time>
      </trkpt>
      <trkpt lat="47.6902" lon="6.03998">
        <ele>216.19999694824</ele>
        <time>2012-04-18T07:35:56.000Z</time>
      </trkpt>
      <trkpt lat="47.69022" lon="6.03994">
        <ele>215.80000305176</ele>
        <time>2012-04-18T07:35:57.000Z</time>
      </trkpt>
      <trkpt lat="47.69036" lon="6.0396">
        <ele>215.80000305176</ele>
        <time>2012-04-18T07:36:05.000Z</time>
      </trkpt>
      <trkpt lat="47.69037" lon="6.03956">
        <ele>216.39999389648</ele>
        <time>2012-04-18T07:36:06.000Z</time>
      </trkpt>
      <trkpt lat="47.69039" lon="6.03951">
        <ele>217.19999694824</ele>
        <time>2012-04-18T07:36:07.000Z</time>
      </trkpt>
      <trkpt lat="47.69041" lon="6.03947">
        <ele>218</ele>
        <time>2012-04-18T07:36:08.000Z</time>
      </trkpt>
      <trkpt lat="47.69042" lon="6.03943">
        <ele>218.80000305176</ele>
        <time>2012-04-18T07:36:09.000Z</time>
      </trkpt>
      <trkpt lat="47.69044" lon="6.03939">
        <ele>219.60000610352</ele>
        <time>2012-04-18T07:36:10.000Z</time>
      </trkpt>
      <trkpt lat="47.69051" lon="6.03921">
        <ele>219.60000610352</ele>
        <time>2012-04-18T07:36:14.000Z</time>
      </trkpt>
      <trkpt lat="47.69056" lon="6.0391">
        <ele>219.60000610352</ele>
        <time>2012-04-18T07:36:16.000Z</time>
      </trkpt>
      <trkpt lat="47.69064" lon="6.03887">
        <ele>219.60000610352</ele>
        <time>2012-04-18T07:36:20.000Z</time>
      </trkpt>
      <trkpt lat="47.69076" lon="6.03856">
        <ele>219.60000610352</ele>
        <time>2012-04-18T07:36:26.000Z</time>
      </trkpt>
      <trkpt lat="47.6909" lon="6.03822">
        <ele>219.60000610352</ele>
        <time>2012-04-18T07:36:32.000Z</time>
      </trkpt>
      <trkpt lat="47.69099" lon="6.038">
        <ele>219.60000610352</ele>
        <time>2012-04-18T07:36:38.000Z</time>
      </trkpt>
      <trkpt lat="47.691" lon="6.03798">
        <ele>219.60000610352</ele>
        <time>2012-04-18T07:36:41.000Z</time>
      </trkpt>
      <trkpt lat="47.691" lon="6.03798">
        <ele>218.80000305176</ele>
        <time>2012-04-18T07:36:45.000Z</time>
      </trkpt>
      <trkpt lat="47.69101" lon="6.03799">
        <ele>218.39999389648</ele>
        <time>2012-04-18T07:36:46.000Z</time>
      </trkpt>
      <trkpt lat="47.69101" lon="6.03799">
        <ele>218</ele>
        <time>2012-04-18T07:36:47.000Z</time>
      </trkpt>
      <trkpt lat="47.69101" lon="6.03799">
        <ele>217.60000610352</ele>
        <time>2012-04-18T07:36:52.000Z</time>
      </trkpt>
      <trkpt lat="47.69102" lon="6.03793">
        <ele>217.60000610352</ele>
        <time>2012-04-18T07:36:55.000Z</time>
      </trkpt>
      <trkpt lat="47.69102" lon="6.0379">
        <ele>217.60000610352</ele>
        <time>2012-04-18T07:36:56.000Z</time>
      </trkpt>
      <trkpt lat="47.69098" lon="6.03784">
        <ele>217.60000610352</ele>
        <time>2012-04-18T07:36:59.000Z</time>
      </trkpt>
      <trkpt lat="47.69091" lon="6.0378">
        <ele>217.60000610352</ele>
        <time>2012-04-18T07:37:01.000Z</time>
      </trkpt>
      <trkpt lat="47.69086" lon="6.03777">
        <ele>217.60000610352</ele>
        <time>2012-04-18T07:37:02.000Z</time>
      </trkpt>
      <trkpt lat="47.69082" lon="6.03774">
        <ele>217.19999694824</ele>
        <time>2012-04-18T07:37:03.000Z</time>
      </trkpt>
      <trkpt lat="47.69076" lon="6.03771">
        <ele>216.80000305176</ele>
        <time>2012-04-18T07:37:04.000Z</time>
      </trkpt>
      <trkpt lat="47.69071" lon="6.03767">
        <ele>216.39999389648</ele>
        <time>2012-04-18T07:37:05.000Z</time>
      </trkpt>
      <trkpt lat="47.69066" lon="6.03764">
        <ele>216</ele>
        <time>2012-04-18T07:37:06.000Z</time>
      </trkpt>
      <trkpt lat="47.69061" lon="6.0376">
        <ele>215.60000610352</ele>
        <time>2012-04-18T07:37:07.000Z</time>
      </trkpt>
      <trkpt lat="47.69056" lon="6.03757">
        <ele>215.60000610352</ele>
        <time>2012-04-18T07:37:08.000Z</time>
      </trkpt>
      <trkpt lat="47.69021" lon="6.03732">
        <ele>215.60000610352</ele>
        <time>2012-04-18T07:37:16.000Z</time>
      </trkpt>
      <trkpt lat="47.69011" lon="6.03725">
        <ele>214.80000305176</ele>
        <time>2012-04-18T07:37:19.000Z</time>
      </trkpt>
      <trkpt lat="47.69006" lon="6.03722">
        <ele>214.19999694824</ele>
        <time>2012-04-18T07:37:20.000Z</time>
      </trkpt>
      <trkpt lat="47.69002" lon="6.03719">
        <ele>213.80000305176</ele>
        <time>2012-04-18T07:37:21.000Z</time>
      </trkpt>
      <trkpt lat="47.68998" lon="6.03716">
        <ele>213.39999389648</ele>
        <time>2012-04-18T07:37:22.000Z</time>
      </trkpt>
      <trkpt lat="47.68994" lon="6.03713">
        <ele>213.39999389648</ele>
        <time>2012-04-18T07:37:23.000Z</time>
      </trkpt>
      <trkpt lat="47.68967" lon="6.03691">
        <ele>213.39999389648</ele>
        <time>2012-04-18T07:37:30.000Z</time>
      </trkpt>
      <trkpt lat="47.68944" lon="6.03675">
        <ele>213.39999389648</ele>
        <time>2012-04-18T07:37:36.000Z</time>
      </trkpt>
      <trkpt lat="47.6894" lon="6.03673">
        <ele>213.39999389648</ele>
        <time>2012-04-18T07:37:37.000Z</time>
      </trkpt>
      <trkpt lat="47.68906" lon="6.03658">
        <ele>213.39999389648</ele>
        <time>2012-04-18T07:37:45.000Z</time>
      </trkpt>
      <trkpt lat="47.68875" lon="6.0365">
        <ele>213.39999389648</ele>
        <time>2012-04-18T07:37:52.000Z</time>
      </trkpt>
      <trkpt lat="47.68847" lon="6.03651">
        <ele>213.39999389648</ele>
        <time>2012-04-18T07:37:58.000Z</time>
      </trkpt>
      <trkpt lat="47.68816" lon="6.0365">
        <ele>213.39999389648</ele>
        <time>2012-04-18T07:38:05.000Z</time>
      </trkpt>
      <trkpt lat="47.68784" lon="6.03648">
        <ele>213.39999389648</ele>
        <time>2012-04-18T07:38:12.000Z</time>
      </trkpt>
      <trkpt lat="47.68752" lon="6.03646">
        <ele>213.39999389648</ele>
        <time>2012-04-18T07:38:19.000Z</time>
      </trkpt>
      <trkpt lat="47.68721" lon="6.03639">
        <ele>213.39999389648</ele>
        <time>2012-04-18T07:38:26.000Z</time>
      </trkpt>
      <trkpt lat="47.68696" lon="6.03635">
        <ele>213.39999389648</ele>
        <time>2012-04-18T07:38:32.000Z</time>
      </trkpt>
      <trkpt lat="47.68691" lon="6.03635">
        <ele>213.39999389648</ele>
        <time>2012-04-18T07:38:33.000Z</time>
      </trkpt>
      <trkpt lat="47.68687" lon="6.03634">
        <ele>213.39999389648</ele>
        <time>2012-04-18T07:38:34.000Z</time>
      </trkpt>
      <trkpt lat="47.68665" lon="6.0363">
        <ele>213.39999389648</ele>
        <time>2012-04-18T07:38:39.000Z</time>
      </trkpt>
      <trkpt lat="47.68641" lon="6.03626">
        <ele>213.39999389648</ele>
        <time>2012-04-18T07:38:45.000Z</time>
      </trkpt>
      <trkpt lat="47.68618" lon="6.03626">
        <ele>213.39999389648</ele>
        <time>2012-04-18T07:38:51.000Z</time>
      </trkpt>
      <trkpt lat="47.68592" lon="6.03642">
        <ele>213.39999389648</ele>
        <time>2012-04-18T07:38:59.000Z</time>
      </trkpt>
      <trkpt lat="47.68576" lon="6.03646">
        <ele>213.39999389648</ele>
        <time>2012-04-18T07:39:03.000Z</time>
      </trkpt>
      <trkpt lat="47.68571" lon="6.03645">
        <ele>213.39999389648</ele>
        <time>2012-04-18T07:39:04.000Z</time>
      </trkpt>
      <trkpt lat="47.68541" lon="6.03643">
        <ele>213.39999389648</ele>
        <time>2012-04-18T07:39:11.000Z</time>
      </trkpt>
      <trkpt lat="47.68525" lon="6.03637">
        <ele>213.39999389648</ele>
        <time>2012-04-18T07:39:15.000Z</time>
      </trkpt>
      <trkpt lat="47.68511" lon="6.0363">
        <ele>213.39999389648</ele>
        <time>2012-04-18T07:39:18.000Z</time>
      </trkpt>
      <trkpt lat="47.68503" lon="6.03626">
        <ele>213.39999389648</ele>
        <time>2012-04-18T07:39:20.000Z</time>
      </trkpt>
      <trkpt lat="47.6849" lon="6.0362">
        <ele>213.39999389648</ele>
        <time>2012-04-18T07:39:23.000Z</time>
      </trkpt>
      <trkpt lat="47.68478" lon="6.03615">
        <ele>213.39999389648</ele>
        <time>2012-04-18T07:39:26.000Z</time>
      </trkpt>
      <trkpt lat="47.68465" lon="6.03615">
        <ele>213.39999389648</ele>
        <time>2012-04-18T07:39:29.000Z</time>
      </trkpt>
      <trkpt lat="47.68461" lon="6.03615">
        <ele>213.39999389648</ele>
        <time>2012-04-18T07:39:30.000Z</time>
      </trkpt>
      <trkpt lat="47.68448" lon="6.03619">
        <ele>213</ele>
        <time>2012-04-18T07:39:33.000Z</time>
      </trkpt>
      <trkpt lat="47.68444" lon="6.03621">
        <ele>212.60000610352</ele>
        <time>2012-04-18T07:39:34.000Z</time>
      </trkpt>
      <trkpt lat="47.68441" lon="6.03623">
        <ele>212.19999694824</ele>
        <time>2012-04-18T07:39:35.000Z</time>
      </trkpt>
      <trkpt lat="47.68437" lon="6.03624">
        <ele>211.60000610352</ele>
        <time>2012-04-18T07:39:36.000Z</time>
      </trkpt>
      <trkpt lat="47.68433" lon="6.03624">
        <ele>211.19999694824</ele>
        <time>2012-04-18T07:39:37.000Z</time>
      </trkpt>
      <trkpt lat="47.68422" lon="6.03622">
        <ele>211.19999694824</ele>
        <time>2012-04-18T07:39:40.000Z</time>
      </trkpt>
      <trkpt lat="47.68419" lon="6.0362">
        <ele>211.19999694824</ele>
        <time>2012-04-18T07:39:41.000Z</time>
      </trkpt>
      <trkpt lat="47.68394" lon="6.03608">
        <ele>211.19999694824</ele>
        <time>2012-04-18T07:39:48.000Z</time>
      </trkpt>
      <trkpt lat="47.68365" lon="6.03593">
        <ele>211.19999694824</ele>
        <time>2012-04-18T07:39:56.000Z</time>
      </trkpt>
      <trkpt lat="47.68342" lon="6.03585">
        <ele>211.19999694824</ele>
        <time>2012-04-18T07:40:02.000Z</time>
      </trkpt>
      <trkpt lat="47.68313" lon="6.03578">
        <ele>211.19999694824</ele>
        <time>2012-04-18T07:40:10.000Z</time>
      </trkpt>
      <trkpt lat="47.68282" lon="6.03573">
        <ele>211.19999694824</ele>
        <time>2012-04-18T07:40:17.000Z</time>
      </trkpt>
      <trkpt lat="47.6825" lon="6.03571">
        <ele>211.19999694824</ele>
        <time>2012-04-18T07:40:24.000Z</time>
      </trkpt>
      <trkpt lat="47.68234" lon="6.0357">
        <ele>211.19999694824</ele>
        <time>2012-04-18T07:40:28.000Z</time>
      </trkpt>
      <trkpt lat="47.68223" lon="6.03569">
        <ele>211.19999694824</ele>
        <time>2012-04-18T07:40:31.000Z</time>
      </trkpt>
      <trkpt lat="47.68193" lon="6.0357">
        <ele>211.19999694824</ele>
        <time>2012-04-18T07:40:39.000Z</time>
      </trkpt>
      <trkpt lat="47.68169" lon="6.03574">
        <ele>211.19999694824</ele>
        <time>2012-04-18T07:40:45.000Z</time>
      </trkpt>
      <trkpt lat="47.68139" lon="6.03581">
        <ele>211.19999694824</ele>
        <time>2012-04-18T07:40:53.000Z</time>
      </trkpt>
      <trkpt lat="47.68117" lon="6.03581">
        <ele>211.19999694824</ele>
        <time>2012-04-18T07:40:59.000Z</time>
      </trkpt>
      <trkpt lat="47.68089" lon="6.03575">
        <ele>211.19999694824</ele>
        <time>2012-04-18T07:41:06.000Z</time>
      </trkpt>
      <trkpt lat="47.68064" lon="6.03571">
        <ele>211.19999694824</ele>
        <time>2012-04-18T07:41:13.000Z</time>
      </trkpt>
      <trkpt lat="47.68039" lon="6.03571">
        <ele>211.19999694824</ele>
        <time>2012-04-18T07:41:20.000Z</time>
      </trkpt>
      <trkpt lat="47.68025" lon="6.03581">
        <ele>211.19999694824</ele>
        <time>2012-04-18T07:41:25.000Z</time>
      </trkpt>
      <trkpt lat="47.68006" lon="6.03598">
        <ele>211.19999694824</ele>
        <time>2012-04-18T07:41:32.000Z</time>
      </trkpt>
      <trkpt lat="47.67981" lon="6.03615">
        <ele>211.19999694824</ele>
        <time>2012-04-18T07:41:40.000Z</time>
      </trkpt>
      <trkpt lat="47.67956" lon="6.03632">
        <ele>211.19999694824</ele>
        <time>2012-04-18T07:41:49.000Z</time>
      </trkpt>
      <trkpt lat="47.67939" lon="6.03643">
        <ele>211.19999694824</ele>
        <time>2012-04-18T07:41:54.000Z</time>
      </trkpt>
      <trkpt lat="47.67915" lon="6.03657">
        <ele>211.19999694824</ele>
        <time>2012-04-18T07:42:00.000Z</time>
      </trkpt>
      <trkpt lat="47.67879" lon="6.03679">
        <ele>211.19999694824</ele>
        <time>2012-04-18T07:42:10.000Z</time>
      </trkpt>
      <trkpt lat="47.67852" lon="6.03696">
        <ele>211.19999694824</ele>
        <time>2012-04-18T07:42:18.000Z</time>
      </trkpt>
      <trkpt lat="47.67824" lon="6.03716">
        <ele>211.19999694824</ele>
        <time>2012-04-18T07:42:26.000Z</time>
      </trkpt>
      <trkpt lat="47.67807" lon="6.03731">
        <ele>211.19999694824</ele>
        <time>2012-04-18T07:42:31.000Z</time>
      </trkpt>
      <trkpt lat="47.6779" lon="6.03746">
        <ele>211.19999694824</ele>
        <time>2012-04-18T07:42:36.000Z</time>
      </trkpt>
      <trkpt lat="47.67782" lon="6.03753">
        <ele>211.19999694824</ele>
        <time>2012-04-18T07:42:39.000Z</time>
      </trkpt>
      <trkpt lat="47.67759" lon="6.03774">
        <ele>211.19999694824</ele>
        <time>2012-04-18T07:42:46.000Z</time>
      </trkpt>
      <trkpt lat="47.67735" lon="6.03796">
        <ele>211.19999694824</ele>
        <time>2012-04-18T07:42:53.000Z</time>
      </trkpt>
      <trkpt lat="47.67705" lon="6.03824">
        <ele>211.19999694824</ele>
        <time>2012-04-18T07:43:02.000Z</time>
      </trkpt>
      <trkpt lat="47.67685" lon="6.03844">
        <ele>211.19999694824</ele>
        <time>2012-04-18T07:43:09.000Z</time>
      </trkpt>
      <trkpt lat="47.67665" lon="6.03867">
        <ele>211.19999694824</ele>
        <time>2012-04-18T07:43:16.000Z</time>
      </trkpt>
      <trkpt lat="47.67648" lon="6.03887">
        <ele>211.19999694824</ele>
        <time>2012-04-18T07:43:22.000Z</time>
      </trkpt>
      <trkpt lat="47.67633" lon="6.03903">
        <ele>211.19999694824</ele>
        <time>2012-04-18T07:43:28.000Z</time>
      </trkpt>
      <trkpt lat="47.67632" lon="6.03905">
        <ele>211.19999694824</ele>
        <time>2012-04-18T07:43:30.000Z</time>
      </trkpt>
      <trkpt lat="47.67631" lon="6.03905">
        <ele>211.19999694824</ele>
        <time>2012-04-18T07:43:35.000Z</time>
      </trkpt>
      <trkpt lat="47.6763" lon="6.03906">
        <ele>211.19999694824</ele>
        <time>2012-04-18T07:43:36.000Z</time>
      </trkpt>
      <trkpt lat="47.67627" lon="6.0391">
        <ele>211.19999694824</ele>
        <time>2012-04-18T07:43:39.000Z</time>
      </trkpt>
      <trkpt lat="47.67623" lon="6.03915">
        <ele>211.19999694824</ele>
        <time>2012-04-18T07:43:42.000Z</time>
      </trkpt>
      <trkpt lat="47.67612" lon="6.03926">
        <ele>211.19999694824</ele>
        <time>2012-04-18T07:43:49.000Z</time>
      </trkpt>
      <trkpt lat="47.67606" lon="6.03935">
        <ele>211.19999694824</ele>
        <time>2012-04-18T07:43:54.000Z</time>
      </trkpt>
      <trkpt lat="47.676" lon="6.03941">
        <ele>211.19999694824</ele>
        <time>2012-04-18T07:43:58.000Z</time>
      </trkpt>
      <trkpt lat="47.67588" lon="6.03954">
        <ele>211.19999694824</ele>
        <time>2012-04-18T07:44:05.000Z</time>
      </trkpt>
      <trkpt lat="47.67574" lon="6.0397">
        <ele>211.19999694824</ele>
        <time>2012-04-18T07:44:11.000Z</time>
      </trkpt>
      <trkpt lat="47.67556" lon="6.03983">
        <ele>211.19999694824</ele>
        <time>2012-04-18T07:44:17.000Z</time>
      </trkpt>
      <trkpt lat="47.67531" lon="6.03988">
        <ele>211.19999694824</ele>
        <time>2012-04-18T07:44:24.000Z</time>
      </trkpt>
      <trkpt lat="47.67515" lon="6.03975">
        <ele>211.19999694824</ele>
        <time>2012-04-18T07:44:29.000Z</time>
      </trkpt>
      <trkpt lat="47.67494" lon="6.03941">
        <ele>211.19999694824</ele>
        <time>2012-04-18T07:44:37.000Z</time>
      </trkpt>
      <trkpt lat="47.67471" lon="6.03904">
        <ele>211.19999694824</ele>
        <time>2012-04-18T07:44:46.000Z</time>
      </trkpt>
      <trkpt lat="47.67451" lon="6.03871">
        <ele>211.19999694824</ele>
        <time>2012-04-18T07:44:54.000Z</time>
      </trkpt>
      <trkpt lat="47.67433" lon="6.03843">
        <ele>211.19999694824</ele>
        <time>2012-04-18T07:45:01.000Z</time>
      </trkpt>
      <trkpt lat="47.67419" lon="6.03818">
        <ele>211.19999694824</ele>
        <time>2012-04-18T07:45:07.000Z</time>
      </trkpt>
      <trkpt lat="47.67399" lon="6.03784">
        <ele>211.19999694824</ele>
        <time>2012-04-18T07:45:15.000Z</time>
      </trkpt>
      <trkpt lat="47.67379" lon="6.03752">
        <ele>211.19999694824</ele>
        <time>2012-04-18T07:45:23.000Z</time>
      </trkpt>
      <trkpt lat="47.67361" lon="6.03717">
        <ele>211.19999694824</ele>
        <time>2012-04-18T07:45:31.000Z</time>
      </trkpt>
      <trkpt lat="47.67348" lon="6.03674">
        <ele>211.19999694824</ele>
        <time>2012-04-18T07:45:39.000Z</time>
      </trkpt>
      <trkpt lat="47.67337" lon="6.03638">
        <ele>211.19999694824</ele>
        <time>2012-04-18T07:45:46.000Z</time>
      </trkpt>
      <trkpt lat="47.67327" lon="6.03601">
        <ele>211.19999694824</ele>
        <time>2012-04-18T07:45:53.000Z</time>
      </trkpt>
      <trkpt lat="47.67318" lon="6.03565">
        <ele>211.19999694824</ele>
        <time>2012-04-18T07:46:00.000Z</time>
      </trkpt>
      <trkpt lat="47.67309" lon="6.03526">
        <ele>211.19999694824</ele>
        <time>2012-04-18T07:46:07.000Z</time>
      </trkpt>
      <trkpt lat="47.67298" lon="6.03476">
        <ele>211.19999694824</ele>
        <time>2012-04-18T07:46:15.000Z</time>
      </trkpt>
      <trkpt lat="47.67297" lon="6.0347">
        <ele>211.19999694824</ele>
        <time>2012-04-18T07:46:16.000Z</time>
      </trkpt>
      <trkpt lat="47.67291" lon="6.03441">
        <ele>211.19999694824</ele>
        <time>2012-04-18T07:46:21.000Z</time>
      </trkpt>
      <trkpt lat="47.67282" lon="6.03403">
        <ele>211.19999694824</ele>
        <time>2012-04-18T07:46:28.000Z</time>
      </trkpt>
      <trkpt lat="47.6727" lon="6.03361">
        <ele>211.19999694824</ele>
        <time>2012-04-18T07:46:36.000Z</time>
      </trkpt>
      <trkpt lat="47.67263" lon="6.03337">
        <ele>211.19999694824</ele>
        <time>2012-04-18T07:46:41.000Z</time>
      </trkpt>
      <trkpt lat="47.67253" lon="6.03303">
        <ele>211.19999694824</ele>
        <time>2012-04-18T07:46:47.000Z</time>
      </trkpt>
      <trkpt lat="47.67243" lon="6.0327">
        <ele>211.19999694824</ele>
        <time>2012-04-18T07:46:53.000Z</time>
      </trkpt>
      <trkpt lat="47.6724" lon="6.03257">
        <ele>211.19999694824</ele>
        <time>2012-04-18T07:46:55.000Z</time>
      </trkpt>
      <trkpt lat="47.67235" lon="6.03229">
        <ele>211.19999694824</ele>
        <time>2012-04-18T07:46:59.000Z</time>
      </trkpt>
      <trkpt lat="47.6723" lon="6.03186">
        <ele>211.19999694824</ele>
        <time>2012-04-18T07:47:06.000Z</time>
      </trkpt>
      <trkpt lat="47.67225" lon="6.03146">
        <ele>211.19999694824</ele>
        <time>2012-04-18T07:47:13.000Z</time>
      </trkpt>
      <trkpt lat="47.67221" lon="6.03104">
        <ele>211.19999694824</ele>
        <time>2012-04-18T07:47:20.000Z</time>
      </trkpt>
      <trkpt lat="47.67217" lon="6.03069">
        <ele>211.19999694824</ele>
        <time>2012-04-18T07:47:26.000Z</time>
      </trkpt>
      <trkpt lat="47.67216" lon="6.03057">
        <ele>211.19999694824</ele>
        <time>2012-04-18T07:47:28.000Z</time>
      </trkpt>
      <trkpt lat="47.6721" lon="6.03007">
        <ele>211.19999694824</ele>
        <time>2012-04-18T07:47:36.000Z</time>
      </trkpt>
      <trkpt lat="47.67201" lon="6.02966">
        <ele>211.19999694824</ele>
        <time>2012-04-18T07:47:43.000Z</time>
      </trkpt>
      <trkpt lat="47.67191" lon="6.02932">
        <ele>211.19999694824</ele>
        <time>2012-04-18T07:47:49.000Z</time>
      </trkpt>
      <trkpt lat="47.67176" lon="6.02894">
        <ele>211.19999694824</ele>
        <time>2012-04-18T07:47:56.000Z</time>
      </trkpt>
      <trkpt lat="47.6717" lon="6.02878">
        <ele>211.19999694824</ele>
        <time>2012-04-18T07:47:59.000Z</time>
      </trkpt>
      <trkpt lat="47.67163" lon="6.02862">
        <ele>211.19999694824</ele>
        <time>2012-04-18T07:48:02.000Z</time>
      </trkpt>
      <trkpt lat="47.67145" lon="6.02828">
        <ele>211.19999694824</ele>
        <time>2012-04-18T07:48:09.000Z</time>
      </trkpt>
      <trkpt lat="47.67127" lon="6.02802">
        <ele>211.19999694824</ele>
        <time>2012-04-18T07:48:15.000Z</time>
      </trkpt>
      <trkpt lat="47.67099" lon="6.02765">
        <ele>211.19999694824</ele>
        <time>2012-04-18T07:48:24.000Z</time>
      </trkpt>
      <trkpt lat="47.67078" lon="6.02738">
        <ele>211.19999694824</ele>
        <time>2012-04-18T07:48:31.000Z</time>
      </trkpt>
      <trkpt lat="47.67054" lon="6.0271">
        <ele>211.19999694824</ele>
        <time>2012-04-18T07:48:39.000Z</time>
      </trkpt>
      <trkpt lat="47.67027" lon="6.02678">
        <ele>211.19999694824</ele>
        <time>2012-04-18T07:48:48.000Z</time>
      </trkpt>
      <trkpt lat="47.67007" lon="6.02649">
        <ele>211.19999694824</ele>
        <time>2012-04-18T07:48:55.000Z</time>
      </trkpt>
      <trkpt lat="47.6699" lon="6.02619">
        <ele>211.19999694824</ele>
        <time>2012-04-18T07:49:02.000Z</time>
      </trkpt>
      <trkpt lat="47.6697" lon="6.02587">
        <ele>211.19999694824</ele>
        <time>2012-04-18T07:49:10.000Z</time>
      </trkpt>
      <trkpt lat="47.66952" lon="6.02555">
        <ele>211.19999694824</ele>
        <time>2012-04-18T07:49:17.000Z</time>
      </trkpt>
      <trkpt lat="47.66941" lon="6.02532">
        <ele>211.19999694824</ele>
        <time>2012-04-18T07:49:22.000Z</time>
      </trkpt>
      <trkpt lat="47.66925" lon="6.02508">
        <ele>211.19999694824</ele>
        <time>2012-04-18T07:49:28.000Z</time>
      </trkpt>
      <trkpt lat="47.66906" lon="6.02477">
        <ele>211.19999694824</ele>
        <time>2012-04-18T07:49:34.000Z</time>
      </trkpt>
      <trkpt lat="47.66887" lon="6.02445">
        <ele>211.19999694824</ele>
        <time>2012-04-18T07:49:41.000Z</time>
      </trkpt>
      <trkpt lat="47.6687" lon="6.02412">
        <ele>211.19999694824</ele>
        <time>2012-04-18T07:49:48.000Z</time>
      </trkpt>
      <trkpt lat="47.66852" lon="6.02378">
        <ele>211.19999694824</ele>
        <time>2012-04-18T07:49:55.000Z</time>
      </trkpt>
      <trkpt lat="47.66845" lon="6.02362">
        <ele>211.19999694824</ele>
        <time>2012-04-18T07:49:58.000Z</time>
      </trkpt>
      <trkpt lat="47.66836" lon="6.02342">
        <ele>211.19999694824</ele>
        <time>2012-04-18T07:50:02.000Z</time>
      </trkpt>
      <trkpt lat="47.66819" lon="6.02302">
        <ele>211.19999694824</ele>
        <time>2012-04-18T07:50:10.000Z</time>
      </trkpt>
      <trkpt lat="47.66809" lon="6.02275">
        <ele>211.19999694824</ele>
        <time>2012-04-18T07:50:15.000Z</time>
      </trkpt>
      <trkpt lat="47.66807" lon="6.02269">
        <ele>211.19999694824</ele>
        <time>2012-04-18T07:50:16.000Z</time>
      </trkpt>
      <trkpt lat="47.668" lon="6.0224">
        <ele>211.19999694824</ele>
        <time>2012-04-18T07:50:21.000Z</time>
      </trkpt>
      <trkpt lat="47.66797" lon="6.02229">
        <ele>211.19999694824</ele>
        <time>2012-04-18T07:50:23.000Z</time>
      </trkpt>
      <trkpt lat="47.66786" lon="6.0219">
        <ele>211.19999694824</ele>
        <time>2012-04-18T07:50:30.000Z</time>
      </trkpt>
      <trkpt lat="47.6678" lon="6.02166">
        <ele>211.19999694824</ele>
        <time>2012-04-18T07:50:34.000Z</time>
      </trkpt>
      <trkpt lat="47.66776" lon="6.02153">
        <ele>211.19999694824</ele>
        <time>2012-04-18T07:50:36.000Z</time>
      </trkpt>
      <trkpt lat="47.66769" lon="6.02119">
        <ele>211.19999694824</ele>
        <time>2012-04-18T07:50:42.000Z</time>
      </trkpt>
      <trkpt lat="47.66759" lon="6.02078">
        <ele>211.19999694824</ele>
        <time>2012-04-18T07:50:49.000Z</time>
      </trkpt>
      <trkpt lat="47.66746" lon="6.02027">
        <ele>211.19999694824</ele>
        <time>2012-04-18T07:50:57.000Z</time>
      </trkpt>
      <trkpt lat="47.66741" lon="6.02004">
        <ele>211.19999694824</ele>
        <time>2012-04-18T07:51:01.000Z</time>
      </trkpt>
      <trkpt lat="47.66736" lon="6.01987">
        <ele>211.19999694824</ele>
        <time>2012-04-18T07:51:04.000Z</time>
      </trkpt>
      <trkpt lat="47.66728" lon="6.01957">
        <ele>211.19999694824</ele>
        <time>2012-04-18T07:51:10.000Z</time>
      </trkpt>
      <trkpt lat="47.66722" lon="6.01941">
        <ele>211.60000610352</ele>
        <time>2012-04-18T07:51:13.000Z</time>
      </trkpt>
      <trkpt lat="47.6672" lon="6.01936">
        <ele>212</ele>
        <time>2012-04-18T07:51:14.000Z</time>
      </trkpt>
      <trkpt lat="47.66719" lon="6.0193">
        <ele>212.39999389648</ele>
        <time>2012-04-18T07:51:15.000Z</time>
      </trkpt>
      <trkpt lat="47.66717" lon="6.01925">
        <ele>212.80000305176</ele>
        <time>2012-04-18T07:51:16.000Z</time>
      </trkpt>
      <trkpt lat="47.66715" lon="6.0192">
        <ele>213.19999694824</ele>
        <time>2012-04-18T07:51:17.000Z</time>
      </trkpt>
      <trkpt lat="47.66712" lon="6.01915">
        <ele>213.19999694824</ele>
        <time>2012-04-18T07:51:18.000Z</time>
      </trkpt>
      <trkpt lat="47.66695" lon="6.01883">
        <ele>213.19999694824</ele>
        <time>2012-04-18T07:51:25.000Z</time>
      </trkpt>
      <trkpt lat="47.66679" lon="6.01854">
        <ele>213.19999694824</ele>
        <time>2012-04-18T07:51:32.000Z</time>
      </trkpt>
      <trkpt lat="47.6666" lon="6.01824">
        <ele>213.19999694824</ele>
        <time>2012-04-18T07:51:39.000Z</time>
      </trkpt>
      <trkpt lat="47.66652" lon="6.01802">
        <ele>213.19999694824</ele>
        <time>2012-04-18T07:51:44.000Z</time>
      </trkpt>
      <trkpt lat="47.66641" lon="6.0178">
        <ele>213.19999694824</ele>
        <time>2012-04-18T07:51:49.000Z</time>
      </trkpt>
      <trkpt lat="47.66622" lon="6.01755">
        <ele>213.19999694824</ele>
        <time>2012-04-18T07:51:55.000Z</time>
      </trkpt>
      <trkpt lat="47.666" lon="6.01729">
        <ele>213.19999694824</ele>
        <time>2012-04-18T07:52:02.000Z</time>
      </trkpt>
      <trkpt lat="47.66576" lon="6.01703">
        <ele>213.19999694824</ele>
        <time>2012-04-18T07:52:10.000Z</time>
      </trkpt>
      <trkpt lat="47.66554" lon="6.01681">
        <ele>213.19999694824</ele>
        <time>2012-04-18T07:52:17.000Z</time>
      </trkpt>
      <trkpt lat="47.66529" lon="6.01652">
        <ele>213.19999694824</ele>
        <time>2012-04-18T07:52:25.000Z</time>
      </trkpt>
      <trkpt lat="47.66518" lon="6.01641">
        <ele>213.19999694824</ele>
        <time>2012-04-18T07:52:28.000Z</time>
      </trkpt>
      <trkpt lat="47.66507" lon="6.01631">
        <ele>213.19999694824</ele>
        <time>2012-04-18T07:52:31.000Z</time>
      </trkpt>
      <trkpt lat="47.66499" lon="6.01625">
        <ele>213.19999694824</ele>
        <time>2012-04-18T07:52:33.000Z</time>
      </trkpt>
      <trkpt lat="47.66482" lon="6.01613">
        <ele>213.19999694824</ele>
        <time>2012-04-18T07:52:37.000Z</time>
      </trkpt>
      <trkpt lat="47.66457" lon="6.01593">
        <ele>213.19999694824</ele>
        <time>2012-04-18T07:52:44.000Z</time>
      </trkpt>
      <trkpt lat="47.66427" lon="6.01571">
        <ele>213.19999694824</ele>
        <time>2012-04-18T07:52:52.000Z</time>
      </trkpt>
      <trkpt lat="47.66402" lon="6.01551">
        <ele>213.19999694824</ele>
        <time>2012-04-18T07:52:59.000Z</time>
      </trkpt>
      <trkpt lat="47.66376" lon="6.01535">
        <ele>213.19999694824</ele>
        <time>2012-04-18T07:53:06.000Z</time>
      </trkpt>
      <trkpt lat="47.66345" lon="6.01518">
        <ele>213.19999694824</ele>
        <time>2012-04-18T07:53:14.000Z</time>
      </trkpt>
      <trkpt lat="47.66322" lon="6.01505">
        <ele>213.19999694824</ele>
        <time>2012-04-18T07:53:20.000Z</time>
      </trkpt>
      <trkpt lat="47.66318" lon="6.01503">
        <ele>213.19999694824</ele>
        <time>2012-04-18T07:53:21.000Z</time>
      </trkpt>
      <trkpt lat="47.66306" lon="6.01499">
        <ele>213.19999694824</ele>
        <time>2012-04-18T07:53:24.000Z</time>
      </trkpt>
      <trkpt lat="47.6629" lon="6.01492">
        <ele>213.19999694824</ele>
        <time>2012-04-18T07:53:28.000Z</time>
      </trkpt>
      <trkpt lat="47.66261" lon="6.01484">
        <ele>213.19999694824</ele>
        <time>2012-04-18T07:53:35.000Z</time>
      </trkpt>
      <trkpt lat="47.66224" lon="6.01474">
        <ele>213.19999694824</ele>
        <time>2012-04-18T07:53:44.000Z</time>
      </trkpt>
      <trkpt lat="47.66194" lon="6.01471">
        <ele>213.19999694824</ele>
        <time>2012-04-18T07:53:51.000Z</time>
      </trkpt>
      <trkpt lat="47.6616" lon="6.01473">
        <ele>213.19999694824</ele>
        <time>2012-04-18T07:53:58.000Z</time>
      </trkpt>
      <trkpt lat="47.66143" lon="6.01474">
        <ele>213.19999694824</ele>
        <time>2012-04-18T07:54:02.000Z</time>
      </trkpt>
      <trkpt lat="47.66135" lon="6.01475">
        <ele>213.19999694824</ele>
        <time>2012-04-18T07:54:04.000Z</time>
      </trkpt>
      <trkpt lat="47.66127" lon="6.01477">
        <ele>213.19999694824</ele>
        <time>2012-04-18T07:54:06.000Z</time>
      </trkpt>
      <trkpt lat="47.6611" lon="6.01479">
        <ele>213.19999694824</ele>
        <time>2012-04-18T07:54:10.000Z</time>
      </trkpt>
      <trkpt lat="47.6609" lon="6.01484">
        <ele>213.19999694824</ele>
        <time>2012-04-18T07:54:15.000Z</time>
      </trkpt>
      <trkpt lat="47.66086" lon="6.01485">
        <ele>213.19999694824</ele>
        <time>2012-04-18T07:54:16.000Z</time>
      </trkpt>
      <trkpt lat="47.66059" lon="6.01489">
        <ele>213.19999694824</ele>
        <time>2012-04-18T07:54:23.000Z</time>
      </trkpt>
      <trkpt lat="47.66036" lon="6.01494">
        <ele>213.19999694824</ele>
        <time>2012-04-18T07:54:29.000Z</time>
      </trkpt>
      <trkpt lat="47.66013" lon="6.01501">
        <ele>213.19999694824</ele>
        <time>2012-04-18T07:54:35.000Z</time>
      </trkpt>
      <trkpt lat="47.65985" lon="6.01511">
        <ele>213.19999694824</ele>
        <time>2012-04-18T07:54:42.000Z</time>
      </trkpt>
      <trkpt lat="47.6596" lon="6.01521">
        <ele>213.19999694824</ele>
        <time>2012-04-18T07:54:48.000Z</time>
      </trkpt>
      <trkpt lat="47.65951" lon="6.01525">
        <ele>213.19999694824</ele>
        <time>2012-04-18T07:54:50.000Z</time>
      </trkpt>
      <trkpt lat="47.65923" lon="6.01537">
        <ele>213.19999694824</ele>
        <time>2012-04-18T07:54:57.000Z</time>
      </trkpt>
      <trkpt lat="47.65899" lon="6.01549">
        <ele>213.19999694824</ele>
        <time>2012-04-18T07:55:03.000Z</time>
      </trkpt>
      <trkpt lat="47.6588" lon="6.01559">
        <ele>213.19999694824</ele>
        <time>2012-04-18T07:55:08.000Z</time>
      </trkpt>
      <trkpt lat="47.65858" lon="6.01574">
        <ele>213.19999694824</ele>
        <time>2012-04-18T07:55:14.000Z</time>
      </trkpt>
      <trkpt lat="47.65835" lon="6.01594">
        <ele>213.19999694824</ele>
        <time>2012-04-18T07:55:21.000Z</time>
      </trkpt>
      <trkpt lat="47.65812" lon="6.01611">
        <ele>213.19999694824</ele>
        <time>2012-04-18T07:55:27.000Z</time>
      </trkpt>
      <trkpt lat="47.65791" lon="6.01629">
        <ele>213.19999694824</ele>
        <time>2012-04-18T07:55:32.000Z</time>
      </trkpt>
      <trkpt lat="47.65756" lon="6.01657">
        <ele>213.19999694824</ele>
        <time>2012-04-18T07:55:40.000Z</time>
      </trkpt>
      <trkpt lat="47.65748" lon="6.01662">
        <ele>213.19999694824</ele>
        <time>2012-04-18T07:55:42.000Z</time>
      </trkpt>
      <trkpt lat="47.65736" lon="6.01668">
        <ele>213.19999694824</ele>
        <time>2012-04-18T07:55:45.000Z</time>
      </trkpt>
      <trkpt lat="47.65724" lon="6.01675">
        <ele>213.19999694824</ele>
        <time>2012-04-18T07:55:48.000Z</time>
      </trkpt>
      <trkpt lat="47.65712" lon="6.01681">
        <ele>213.19999694824</ele>
        <time>2012-04-18T07:55:51.000Z</time>
      </trkpt>
      <trkpt lat="47.65704" lon="6.01686">
        <ele>213.19999694824</ele>
        <time>2012-04-18T07:55:53.000Z</time>
      </trkpt>
      <trkpt lat="47.65688" lon="6.01696">
        <ele>213.19999694824</ele>
        <time>2012-04-18T07:55:57.000Z</time>
      </trkpt>
      <trkpt lat="47.6567" lon="6.01693">
        <ele>213.19999694824</ele>
        <time>2012-04-18T07:56:02.000Z</time>
      </trkpt>
      <trkpt lat="47.65667" lon="6.01689">
        <ele>213.19999694824</ele>
        <time>2012-04-18T07:56:03.000Z</time>
      </trkpt>
      <trkpt lat="47.65664" lon="6.0168">
        <ele>213.19999694824</ele>
        <time>2012-04-18T07:56:05.000Z</time>
      </trkpt>
      <trkpt lat="47.65654" lon="6.01678">
        <ele>213.19999694824</ele>
        <time>2012-04-18T07:56:08.000Z</time>
      </trkpt>
      <trkpt lat="47.65645" lon="6.01687">
        <ele>213.19999694824</ele>
        <time>2012-04-18T07:56:11.000Z</time>
      </trkpt>
      <trkpt lat="47.65638" lon="6.01692">
        <ele>213.19999694824</ele>
        <time>2012-04-18T07:56:13.000Z</time>
      </trkpt>
      <trkpt lat="47.65615" lon="6.01716">
        <ele>213.19999694824</ele>
        <time>2012-04-18T07:56:20.000Z</time>
      </trkpt>
      <trkpt lat="47.65612" lon="6.01721">
        <ele>212.80000305176</ele>
        <time>2012-04-18T07:56:21.000Z</time>
      </trkpt>
      <trkpt lat="47.65609" lon="6.01726">
        <ele>212.39999389648</ele>
        <time>2012-04-18T07:56:22.000Z</time>
      </trkpt>
      <trkpt lat="47.65606" lon="6.01731">
        <ele>212</ele>
        <time>2012-04-18T07:56:23.000Z</time>
      </trkpt>
      <trkpt lat="47.65602" lon="6.01736">
        <ele>211.60000610352</ele>
        <time>2012-04-18T07:56:24.000Z</time>
      </trkpt>
      <trkpt lat="47.65599" lon="6.01741">
        <ele>211.19999694824</ele>
        <time>2012-04-18T07:56:25.000Z</time>
      </trkpt>
      <trkpt lat="47.65593" lon="6.01751">
        <ele>211.19999694824</ele>
        <time>2012-04-18T07:56:27.000Z</time>
      </trkpt>
      <trkpt lat="47.6557" lon="6.01793">
        <ele>211.19999694824</ele>
        <time>2012-04-18T07:56:35.000Z</time>
      </trkpt>
      <trkpt lat="47.65566" lon="6.01797">
        <ele>211.19999694824</ele>
        <time>2012-04-18T07:56:36.000Z</time>
      </trkpt>
      <trkpt lat="47.65546" lon="6.01815">
        <ele>211.19999694824</ele>
        <time>2012-04-18T07:56:42.000Z</time>
      </trkpt>
      <trkpt lat="47.65526" lon="6.0183">
        <ele>211.19999694824</ele>
        <time>2012-04-18T07:56:48.000Z</time>
      </trkpt>
      <trkpt lat="47.65524" lon="6.01834">
        <ele>211.60000610352</ele>
        <time>2012-04-18T07:56:49.000Z</time>
      </trkpt>
      <trkpt lat="47.65521" lon="6.01839">
        <ele>212</ele>
        <time>2012-04-18T07:56:50.000Z</time>
      </trkpt>
      <trkpt lat="47.65519" lon="6.01844">
        <ele>212.39999389648</ele>
        <time>2012-04-18T07:56:51.000Z</time>
      </trkpt>
      <trkpt lat="47.65517" lon="6.01849">
        <ele>212.80000305176</ele>
        <time>2012-04-18T07:56:52.000Z</time>
      </trkpt>
      <trkpt lat="47.65515" lon="6.01855">
        <ele>213.19999694824</ele>
        <time>2012-04-18T07:56:53.000Z</time>
      </trkpt>
      <trkpt lat="47.65514" lon="6.01869">
        <ele>213.19999694824</ele>
        <time>2012-04-18T07:56:56.000Z</time>
      </trkpt>
      <trkpt lat="47.65515" lon="6.01874">
        <ele>213.60000610352</ele>
        <time>2012-04-18T07:56:57.000Z</time>
      </trkpt>
      <trkpt lat="47.65517" lon="6.01878">
        <ele>214</ele>
        <time>2012-04-18T07:56:58.000Z</time>
      </trkpt>
      <trkpt lat="47.65518" lon="6.01883">
        <ele>214.39999389648</ele>
        <time>2012-04-18T07:56:59.000Z</time>
      </trkpt>
      <trkpt lat="47.6552" lon="6.01888">
        <ele>214.80000305176</ele>
        <time>2012-04-18T07:57:00.000Z</time>
      </trkpt>
      <trkpt lat="47.65521" lon="6.01891">
        <ele>215.19999694824</ele>
        <time>2012-04-18T07:57:01.000Z</time>
      </trkpt>
      <trkpt lat="47.65529" lon="6.01908">
        <ele>215.19999694824</ele>
        <time>2012-04-18T07:57:08.000Z</time>
      </trkpt>
      <trkpt lat="47.65534" lon="6.01923">
        <ele>215.19999694824</ele>
        <time>2012-04-18T07:57:14.000Z</time>
      </trkpt>
      <trkpt lat="47.65533" lon="6.01926">
        <ele>215.19999694824</ele>
        <time>2012-04-18T07:57:15.000Z</time>
      </trkpt>
      <trkpt lat="47.65528" lon="6.01934">
        <ele>215.19999694824</ele>
        <time>2012-04-18T07:57:18.000Z</time>
      </trkpt>
      <trkpt lat="47.65524" lon="6.01938">
        <ele>215.19999694824</ele>
        <time>2012-04-18T07:57:20.000Z</time>
      </trkpt>
      <trkpt lat="47.65519" lon="6.01943">
        <ele>215.19999694824</ele>
        <time>2012-04-18T07:57:24.000Z</time>
      </trkpt>
      <trkpt lat="47.65507" lon="6.01954">
        <ele>215.19999694824</ele>
        <time>2012-04-18T07:57:31.000Z</time>
      </trkpt>
      <trkpt lat="47.65495" lon="6.01963">
        <ele>215.19999694824</ele>
        <time>2012-04-18T07:57:38.000Z</time>
      </trkpt>
      <trkpt lat="47.65481" lon="6.01972">
        <ele>215.19999694824</ele>
        <time>2012-04-18T07:57:44.000Z</time>
      </trkpt>
      <trkpt lat="47.65457" lon="6.01992">
        <ele>215.19999694824</ele>
        <time>2012-04-18T07:57:53.000Z</time>
      </trkpt>
      <trkpt lat="47.65429" lon="6.02015">
        <ele>215.19999694824</ele>
        <time>2012-04-18T07:58:03.000Z</time>
      </trkpt>
      <trkpt lat="47.65406" lon="6.02033">
        <ele>215.19999694824</ele>
        <time>2012-04-18T07:58:11.000Z</time>
      </trkpt>
      <trkpt lat="47.65379" lon="6.02054">
        <ele>215.19999694824</ele>
        <time>2012-04-18T07:58:20.000Z</time>
      </trkpt>
      <trkpt lat="47.65349" lon="6.02074">
        <ele>215.19999694824</ele>
        <time>2012-04-18T07:58:29.000Z</time>
      </trkpt>
      <trkpt lat="47.65315" lon="6.0209">
        <ele>215.19999694824</ele>
        <time>2012-04-18T07:58:39.000Z</time>
      </trkpt>
      <trkpt lat="47.65289" lon="6.02099">
        <ele>215.19999694824</ele>
        <time>2012-04-18T07:58:47.000Z</time>
      </trkpt>
      <trkpt lat="47.65261" lon="6.02105">
        <ele>215.19999694824</ele>
        <time>2012-04-18T07:58:55.000Z</time>
      </trkpt>
      <trkpt lat="47.6522" lon="6.02108">
        <ele>215.19999694824</ele>
        <time>2012-04-18T07:59:07.000Z</time>
      </trkpt>
      <trkpt lat="47.65191" lon="6.02105">
        <ele>215.19999694824</ele>
        <time>2012-04-18T07:59:15.000Z</time>
      </trkpt>
      <trkpt lat="47.65166" lon="6.02099">
        <ele>215.19999694824</ele>
        <time>2012-04-18T07:59:21.000Z</time>
      </trkpt>
      <trkpt lat="47.6513" lon="6.02087">
        <ele>215.19999694824</ele>
        <time>2012-04-18T07:59:29.000Z</time>
      </trkpt>
      <trkpt lat="47.65098" lon="6.02074">
        <ele>215.19999694824</ele>
        <time>2012-04-18T07:59:37.000Z</time>
      </trkpt>
      <trkpt lat="47.65066" lon="6.02061">
        <ele>215.19999694824</ele>
        <time>2012-04-18T07:59:45.000Z</time>
      </trkpt>
      <trkpt lat="47.65035" lon="6.02046">
        <ele>214.80000305176</ele>
        <time>2012-04-18T07:59:51.000Z</time>
      </trkpt>
      <trkpt lat="47.6503" lon="6.02044">
        <ele>214.19999694824</ele>
        <time>2012-04-18T07:59:52.000Z</time>
      </trkpt>
      <trkpt lat="47.65026" lon="6.02041">
        <ele>213.80000305176</ele>
        <time>2012-04-18T07:59:53.000Z</time>
      </trkpt>
      <trkpt lat="47.65021" lon="6.02037">
        <ele>213.39999389648</ele>
        <time>2012-04-18T07:59:54.000Z</time>
      </trkpt>
      <trkpt lat="47.65016" lon="6.02033">
        <ele>213</ele>
        <time>2012-04-18T07:59:55.000Z</time>
      </trkpt>
      <trkpt lat="47.65005" lon="6.02027">
        <ele>213</ele>
        <time>2012-04-18T07:59:57.000Z</time>
      </trkpt>
      <trkpt lat="47.65" lon="6.02025">
        <ele>213</ele>
        <time>2012-04-18T07:59:58.000Z</time>
      </trkpt>
      <trkpt lat="47.6499" lon="6.02024">
        <ele>213</ele>
        <time>2012-04-18T08:00:00.000Z</time>
      </trkpt>
      <trkpt lat="47.64981" lon="6.02027">
        <ele>213</ele>
        <time>2012-04-18T08:00:02.000Z</time>
      </trkpt>
      <trkpt lat="47.64973" lon="6.02033">
        <ele>213</ele>
        <time>2012-04-18T08:00:04.000Z</time>
      </trkpt>
      <trkpt lat="47.6496" lon="6.02044">
        <ele>213</ele>
        <time>2012-04-18T08:00:08.000Z</time>
      </trkpt>
      <trkpt lat="47.6494" lon="6.02059">
        <ele>213</ele>
        <time>2012-04-18T08:00:14.000Z</time>
      </trkpt>
      <trkpt lat="47.64921" lon="6.02074">
        <ele>213</ele>
        <time>2012-04-18T08:00:21.000Z</time>
      </trkpt>
      <trkpt lat="47.64909" lon="6.02085">
        <ele>213</ele>
        <time>2012-04-18T08:00:26.000Z</time>
      </trkpt>
      <trkpt lat="47.649" lon="6.02093">
        <ele>213</ele>
        <time>2012-04-18T08:00:31.000Z</time>
      </trkpt>
      <trkpt lat="47.64888" lon="6.02085">
        <ele>213</ele>
        <time>2012-04-18T08:00:36.000Z</time>
      </trkpt>
      <trkpt lat="47.64884" lon="6.02079">
        <ele>213</ele>
        <time>2012-04-18T08:00:38.000Z</time>
      </trkpt>
      <trkpt lat="47.64883" lon="6.02071">
        <ele>213</ele>
        <time>2012-04-18T08:00:40.000Z</time>
      </trkpt>
      <trkpt lat="47.64886" lon="6.02059">
        <ele>213</ele>
        <time>2012-04-18T08:00:44.000Z</time>
      </trkpt>
      <trkpt lat="47.6489" lon="6.02068">
        <ele>213</ele>
        <time>2012-04-18T08:00:47.000Z</time>
      </trkpt>
      <trkpt lat="47.64891" lon="6.02073">
        <ele>213</ele>
        <time>2012-04-18T08:00:48.000Z</time>
      </trkpt>
      <trkpt lat="47.64898" lon="6.02089">
        <ele>213</ele>
        <time>2012-04-18T08:00:52.000Z</time>
      </trkpt>
      <trkpt lat="47.64905" lon="6.02106">
        <ele>213</ele>
        <time>2012-04-18T08:00:56.000Z</time>
      </trkpt>
      <trkpt lat="47.6491" lon="6.02125">
        <ele>213</ele>
        <time>2012-04-18T08:01:01.000Z</time>
      </trkpt>
      <trkpt lat="47.6492" lon="6.02156">
        <ele>213</ele>
        <time>2012-04-18T08:01:08.000Z</time>
      </trkpt>
      <trkpt lat="47.64929" lon="6.02179">
        <ele>213</ele>
        <time>2012-04-18T08:01:13.000Z</time>
      </trkpt>
      <trkpt lat="47.64934" lon="6.02193">
        <ele>213</ele>
        <time>2012-04-18T08:01:15.000Z</time>
      </trkpt>
      <trkpt lat="47.64939" lon="6.02206">
        <ele>213</ele>
        <time>2012-04-18T08:01:17.000Z</time>
      </trkpt>
      <trkpt lat="47.6495" lon="6.02232">
        <ele>212.60000610352</ele>
        <time>2012-04-18T08:01:21.000Z</time>
      </trkpt>
      <trkpt lat="47.64953" lon="6.02237">
        <ele>212.19999694824</ele>
        <time>2012-04-18T08:01:22.000Z</time>
      </trkpt>
      <trkpt lat="47.64955" lon="6.02243">
        <ele>211.80000305176</ele>
        <time>2012-04-18T08:01:23.000Z</time>
      </trkpt>
      <trkpt lat="47.64957" lon="6.02249">
        <ele>211.39999389648</ele>
        <time>2012-04-18T08:01:24.000Z</time>
      </trkpt>
      <trkpt lat="47.64959" lon="6.02254">
        <ele>211</ele>
        <time>2012-04-18T08:01:25.000Z</time>
      </trkpt>
      <trkpt lat="47.64972" lon="6.02302">
        <ele>211</ele>
        <time>2012-04-18T08:01:33.000Z</time>
      </trkpt>
      <trkpt lat="47.64973" lon="6.02308">
        <ele>211</ele>
        <time>2012-04-18T08:01:34.000Z</time>
      </trkpt>
      <trkpt lat="47.64972" lon="6.02324">
        <ele>211</ele>
        <time>2012-04-18T08:01:37.000Z</time>
      </trkpt>
      <trkpt lat="47.64969" lon="6.02335">
        <ele>211</ele>
        <time>2012-04-18T08:01:39.000Z</time>
      </trkpt>
      <trkpt lat="47.64968" lon="6.02357">
        <ele>211</ele>
        <time>2012-04-18T08:01:43.000Z</time>
      </trkpt>
      <trkpt lat="47.64965" lon="6.02387">
        <ele>211</ele>
        <time>2012-04-18T08:01:49.000Z</time>
      </trkpt>
      <trkpt lat="47.64948" lon="6.02407">
        <ele>211</ele>
        <time>2012-04-18T08:01:56.000Z</time>
      </trkpt>
      <trkpt lat="47.64939" lon="6.02417">
        <ele>211</ele>
        <time>2012-04-18T08:02:00.000Z</time>
      </trkpt>
      <trkpt lat="47.64939" lon="6.0242">
        <ele>211</ele>
        <time>2012-04-18T08:02:01.000Z</time>
      </trkpt>
      <trkpt lat="47.64939" lon="6.02447">
        <ele>211</ele>
        <time>2012-04-18T08:02:07.000Z</time>
      </trkpt>
      <trkpt lat="47.64941" lon="6.02464">
        <ele>211.39999389648</ele>
        <time>2012-04-18T08:02:11.000Z</time>
      </trkpt>
      <trkpt lat="47.64942" lon="6.02468">
        <ele>211.80000305176</ele>
        <time>2012-04-18T08:02:12.000Z</time>
      </trkpt>
      <trkpt lat="47.64943" lon="6.02473">
        <ele>212.19999694824</ele>
        <time>2012-04-18T08:02:13.000Z</time>
      </trkpt>
      <trkpt lat="47.64944" lon="6.02477">
        <ele>212.60000610352</ele>
        <time>2012-04-18T08:02:14.000Z</time>
      </trkpt>
      <trkpt lat="47.64945" lon="6.02482">
        <ele>213</ele>
        <time>2012-04-18T08:02:15.000Z</time>
      </trkpt>
      <trkpt lat="47.64952" lon="6.02502">
        <ele>213</ele>
        <time>2012-04-18T08:02:19.000Z</time>
      </trkpt>
      <trkpt lat="47.64957" lon="6.02535">
        <ele>213</ele>
        <time>2012-04-18T08:02:23.000Z</time>
      </trkpt>
      <trkpt lat="47.64959" lon="6.02553">
        <ele>212.60000610352</ele>
        <time>2012-04-18T08:02:25.000Z</time>
      </trkpt>
      <trkpt lat="47.6496" lon="6.02562">
        <ele>212.19999694824</ele>
        <time>2012-04-18T08:02:26.000Z</time>
      </trkpt>
      <trkpt lat="47.64961" lon="6.02571">
        <ele>211.80000305176</ele>
        <time>2012-04-18T08:02:27.000Z</time>
      </trkpt>
      <trkpt lat="47.64962" lon="6.0258">
        <ele>211.39999389648</ele>
        <time>2012-04-18T08:02:28.000Z</time>
      </trkpt>
      <trkpt lat="47.64963" lon="6.02588">
        <ele>210.80000305176</ele>
        <time>2012-04-18T08:02:29.000Z</time>
      </trkpt>
      <trkpt lat="47.6497" lon="6.02634">
        <ele>210.80000305176</ele>
        <time>2012-04-18T08:02:35.000Z</time>
      </trkpt>
      <trkpt lat="47.64977" lon="6.02693">
        <ele>210.80000305176</ele>
        <time>2012-04-18T08:02:43.000Z</time>
      </trkpt>
      <trkpt lat="47.64982" lon="6.02736">
        <ele>210.80000305176</ele>
        <time>2012-04-18T08:02:49.000Z</time>
      </trkpt>
      <trkpt lat="47.64986" lon="6.02776">
        <ele>210.80000305176</ele>
        <time>2012-04-18T08:02:55.000Z</time>
      </trkpt>
      <trkpt lat="47.64988" lon="6.02795">
        <ele>210.80000305176</ele>
        <time>2012-04-18T08:02:58.000Z</time>
      </trkpt>
      <trkpt lat="47.64996" lon="6.02855">
        <ele>210.80000305176</ele>
        <time>2012-04-18T08:03:08.000Z</time>
      </trkpt>
      <trkpt lat="47.65006" lon="6.02904">
        <ele>210.80000305176</ele>
        <time>2012-04-18T08:03:16.000Z</time>
      </trkpt>
      <trkpt lat="47.6502" lon="6.02949">
        <ele>210.80000305176</ele>
        <time>2012-04-18T08:03:24.000Z</time>
      </trkpt>
      <trkpt lat="47.65041" lon="6.02986">
        <ele>210.80000305176</ele>
        <time>2012-04-18T08:03:32.000Z</time>
      </trkpt>
      <trkpt lat="47.65064" lon="6.03024">
        <ele>210.80000305176</ele>
        <time>2012-04-18T08:03:41.000Z</time>
      </trkpt>
      <trkpt lat="47.65068" lon="6.03039">
        <ele>210.80000305176</ele>
        <time>2012-04-18T08:03:44.000Z</time>
      </trkpt>
      <trkpt lat="47.65068" lon="6.03044">
        <ele>210.80000305176</ele>
        <time>2012-04-18T08:03:45.000Z</time>
      </trkpt>
      <trkpt lat="47.65069" lon="6.03064">
        <ele>210.80000305176</ele>
        <time>2012-04-18T08:03:49.000Z</time>
      </trkpt>
      <trkpt lat="47.65071" lon="6.03069">
        <ele>210.80000305176</ele>
        <time>2012-04-18T08:03:50.000Z</time>
      </trkpt>
      <trkpt lat="47.65081" lon="6.03107">
        <ele>210.80000305176</ele>
        <time>2012-04-18T08:03:57.000Z</time>
      </trkpt>
      <trkpt lat="47.65082" lon="6.03112">
        <ele>211.80000305176</ele>
        <time>2012-04-18T08:03:58.000Z</time>
      </trkpt>
      <trkpt lat="47.65081" lon="6.03118">
        <ele>212.19999694824</ele>
        <time>2012-04-18T08:03:59.000Z</time>
      </trkpt>
      <trkpt lat="47.65081" lon="6.03123">
        <ele>212.60000610352</ele>
        <time>2012-04-18T08:04:00.000Z</time>
      </trkpt>
      <trkpt lat="47.6508" lon="6.03128">
        <ele>213</ele>
        <time>2012-04-18T08:04:01.000Z</time>
      </trkpt>
      <trkpt lat="47.65066" lon="6.03159">
        <ele>213</ele>
        <time>2012-04-18T08:04:08.000Z</time>
      </trkpt>
      <trkpt lat="47.65057" lon="6.03177">
        <ele>213.39999389648</ele>
        <time>2012-04-18T08:04:13.000Z</time>
      </trkpt>
      <trkpt lat="47.65055" lon="6.0318">
        <ele>213.80000305176</ele>
        <time>2012-04-18T08:04:14.000Z</time>
      </trkpt>
      <trkpt lat="47.65053" lon="6.03184">
        <ele>214.19999694824</ele>
        <time>2012-04-18T08:04:15.000Z</time>
      </trkpt>
      <trkpt lat="47.65051" lon="6.03187">
        <ele>214.60000610352</ele>
        <time>2012-04-18T08:04:16.000Z</time>
      </trkpt>
      <trkpt lat="47.65048" lon="6.0319">
        <ele>215.19999694824</ele>
        <time>2012-04-18T08:04:17.000Z</time>
      </trkpt>
      <trkpt lat="47.65037" lon="6.03208">
        <ele>215.19999694824</ele>
        <time>2012-04-18T08:04:22.000Z</time>
      </trkpt>
      <trkpt lat="47.65019" lon="6.0323">
        <ele>215.19999694824</ele>
        <time>2012-04-18T08:04:28.000Z</time>
      </trkpt>
      <trkpt lat="47.65016" lon="6.03233">
        <ele>215.19999694824</ele>
        <time>2012-04-18T08:04:29.000Z</time>
      </trkpt>
      <trkpt lat="47.64995" lon="6.0325">
        <ele>215.19999694824</ele>
        <time>2012-04-18T08:04:34.000Z</time>
      </trkpt>
      <trkpt lat="47.64966" lon="6.0327">
        <ele>215.19999694824</ele>
        <time>2012-04-18T08:04:40.000Z</time>
      </trkpt>
      <trkpt lat="47.64961" lon="6.03273">
        <ele>215.19999694824</ele>
        <time>2012-04-18T08:04:41.000Z</time>
      </trkpt>
      <trkpt lat="47.64933" lon="6.03291">
        <ele>215.19999694824</ele>
        <time>2012-04-18T08:04:47.000Z</time>
      </trkpt>
      <trkpt lat="47.64906" lon="6.03305">
        <ele>215.19999694824</ele>
        <time>2012-04-18T08:04:53.000Z</time>
      </trkpt>
      <trkpt lat="47.64902" lon="6.03308">
        <ele>215.19999694824</ele>
        <time>2012-04-18T08:04:54.000Z</time>
      </trkpt>
      <trkpt lat="47.64869" lon="6.03328">
        <ele>215.19999694824</ele>
        <time>2012-04-18T08:05:02.000Z</time>
      </trkpt>
      <trkpt lat="47.64844" lon="6.03343">
        <ele>215.19999694824</ele>
        <time>2012-04-18T08:05:09.000Z</time>
      </trkpt>
      <trkpt lat="47.64819" lon="6.03358">
        <ele>215.19999694824</ele>
        <time>2012-04-18T08:05:17.000Z</time>
      </trkpt>
      <trkpt lat="47.64794" lon="6.03373">
        <ele>215.19999694824</ele>
        <time>2012-04-18T08:05:25.000Z</time>
      </trkpt>
      <trkpt lat="47.64773" lon="6.03385">
        <ele>215.19999694824</ele>
        <time>2012-04-18T08:05:32.000Z</time>
      </trkpt>
      <trkpt lat="47.64742" lon="6.03406">
        <ele>215.19999694824</ele>
        <time>2012-04-18T08:05:40.000Z</time>
      </trkpt>
      <trkpt lat="47.64706" lon="6.03432">
        <ele>215.19999694824</ele>
        <time>2012-04-18T08:05:48.000Z</time>
      </trkpt>
      <trkpt lat="47.64678" lon="6.03453">
        <ele>215.19999694824</ele>
        <time>2012-04-18T08:05:54.000Z</time>
      </trkpt>
      <trkpt lat="47.64666" lon="6.03465">
        <ele>215.19999694824</ele>
        <time>2012-04-18T08:05:57.000Z</time>
      </trkpt>
      <trkpt lat="47.64655" lon="6.03478">
        <ele>215.19999694824</ele>
        <time>2012-04-18T08:06:00.000Z</time>
      </trkpt>
      <trkpt lat="47.64649" lon="6.03488">
        <ele>215.19999694824</ele>
        <time>2012-04-18T08:06:02.000Z</time>
      </trkpt>
      <trkpt lat="47.64636" lon="6.03506">
        <ele>215.19999694824</ele>
        <time>2012-04-18T08:06:06.000Z</time>
      </trkpt>
      <trkpt lat="47.64609" lon="6.03538">
        <ele>215.19999694824</ele>
        <time>2012-04-18T08:06:13.000Z</time>
      </trkpt>
      <trkpt lat="47.64596" lon="6.03556">
        <ele>215.19999694824</ele>
        <time>2012-04-18T08:06:17.000Z</time>
      </trkpt>
      <trkpt lat="47.64589" lon="6.03564">
        <ele>215.60000610352</ele>
        <time>2012-04-18T08:06:19.000Z</time>
      </trkpt>
      <trkpt lat="47.64586" lon="6.03568">
        <ele>216</ele>
        <time>2012-04-18T08:06:20.000Z</time>
      </trkpt>
      <trkpt lat="47.64583" lon="6.03572">
        <ele>216.39999389648</ele>
        <time>2012-04-18T08:06:21.000Z</time>
      </trkpt>
      <trkpt lat="47.6458" lon="6.03575">
        <ele>216.80000305176</ele>
        <time>2012-04-18T08:06:22.000Z</time>
      </trkpt>
      <trkpt lat="47.64577" lon="6.03579">
        <ele>217.19999694824</ele>
        <time>2012-04-18T08:06:23.000Z</time>
      </trkpt>
      <trkpt lat="47.64574" lon="6.03583">
        <ele>217.19999694824</ele>
        <time>2012-04-18T08:06:24.000Z</time>
      </trkpt>
      <trkpt lat="47.64557" lon="6.03601">
        <ele>217.19999694824</ele>
        <time>2012-04-18T08:06:30.000Z</time>
      </trkpt>
      <trkpt lat="47.64534" lon="6.03614">
        <ele>217.19999694824</ele>
        <time>2012-04-18T08:06:37.000Z</time>
      </trkpt>
      <trkpt lat="47.64506" lon="6.0362">
        <ele>217.19999694824</ele>
        <time>2012-04-18T08:06:45.000Z</time>
      </trkpt>
      <trkpt lat="47.64477" lon="6.03623">
        <ele>217.19999694824</ele>
        <time>2012-04-18T08:06:53.000Z</time>
      </trkpt>
      <trkpt lat="47.64453" lon="6.03622">
        <ele>217.19999694824</ele>
        <time>2012-04-18T08:07:00.000Z</time>
      </trkpt>
      <trkpt lat="47.64434" lon="6.03621">
        <ele>217.19999694824</ele>
        <time>2012-04-18T08:07:06.000Z</time>
      </trkpt>
      <trkpt lat="47.64416" lon="6.03631">
        <ele>217.19999694824</ele>
        <time>2012-04-18T08:07:12.000Z</time>
      </trkpt>
      <trkpt lat="47.64407" lon="6.03648">
        <ele>217.60000610352</ele>
        <time>2012-04-18T08:07:17.000Z</time>
      </trkpt>
      <trkpt lat="47.64406" lon="6.03652">
        <ele>218</ele>
        <time>2012-04-18T08:07:18.000Z</time>
      </trkpt>
      <trkpt lat="47.64404" lon="6.03656">
        <ele>218.39999389648</ele>
        <time>2012-04-18T08:07:19.000Z</time>
      </trkpt>
      <trkpt lat="47.64403" lon="6.0366">
        <ele>218.80000305176</ele>
        <time>2012-04-18T08:07:20.000Z</time>
      </trkpt>
      <trkpt lat="47.64402" lon="6.03664">
        <ele>219.19999694824</ele>
        <time>2012-04-18T08:07:21.000Z</time>
      </trkpt>
      <trkpt lat="47.64398" lon="6.03676">
        <ele>219.19999694824</ele>
        <time>2012-04-18T08:07:24.000Z</time>
      </trkpt>
      <trkpt lat="47.64388" lon="6.03689">
        <ele>219.19999694824</ele>
        <time>2012-04-18T08:07:29.000Z</time>
      </trkpt>
      <trkpt lat="47.64379" lon="6.03692">
        <ele>219.60000610352</ele>
        <time>2012-04-18T08:07:33.000Z</time>
      </trkpt>
      <trkpt lat="47.64377" lon="6.03693">
        <ele>220</ele>
        <time>2012-04-18T08:07:34.000Z</time>
      </trkpt>
      <trkpt lat="47.64374" lon="6.03694">
        <ele>220.39999389648</ele>
        <time>2012-04-18T08:07:35.000Z</time>
      </trkpt>
      <trkpt lat="47.64372" lon="6.03695">
        <ele>220.80000305176</ele>
        <time>2012-04-18T08:07:36.000Z</time>
      </trkpt>
      <trkpt lat="47.6437" lon="6.03696">
        <ele>221.19999694824</ele>
        <time>2012-04-18T08:07:37.000Z</time>
      </trkpt>
      <trkpt lat="47.64362" lon="6.03698">
        <ele>221.19999694824</ele>
        <time>2012-04-18T08:07:40.000Z</time>
      </trkpt>
      <trkpt lat="47.64359" lon="6.03699">
        <ele>221.60000610352</ele>
        <time>2012-04-18T08:07:41.000Z</time>
      </trkpt>
      <trkpt lat="47.64356" lon="6.037">
        <ele>222</ele>
        <time>2012-04-18T08:07:42.000Z</time>
      </trkpt>
      <trkpt lat="47.64353" lon="6.03701">
        <ele>222.39999389648</ele>
        <time>2012-04-18T08:07:43.000Z</time>
      </trkpt>
      <trkpt lat="47.6435" lon="6.03702">
        <ele>222.80000305176</ele>
        <time>2012-04-18T08:07:44.000Z</time>
      </trkpt>
      <trkpt lat="47.64347" lon="6.03702">
        <ele>223.19999694824</ele>
        <time>2012-04-18T08:07:45.000Z</time>
      </trkpt>
      <trkpt lat="47.6434" lon="6.03704">
        <ele>223.19999694824</ele>
        <time>2012-04-18T08:07:47.000Z</time>
      </trkpt>
      <trkpt lat="47.64314" lon="6.03707">
        <ele>223.19999694824</ele>
        <time>2012-04-18T08:07:56.000Z</time>
      </trkpt>
      <trkpt lat="47.64289" lon="6.03707">
        <ele>223.19999694824</ele>
        <time>2012-04-18T08:08:04.000Z</time>
      </trkpt>
      <trkpt lat="47.64265" lon="6.03701">
        <ele>223.19999694824</ele>
        <time>2012-04-18T08:08:11.000Z</time>
      </trkpt>
      <trkpt lat="47.64239" lon="6.03693">
        <ele>223.19999694824</ele>
        <time>2012-04-18T08:08:17.000Z</time>
      </trkpt>
      <trkpt lat="47.64207" lon="6.03684">
        <ele>223.19999694824</ele>
        <time>2012-04-18T08:08:25.000Z</time>
      </trkpt>
      <trkpt lat="47.64204" lon="6.03683">
        <ele>223.60000610352</ele>
        <time>2012-04-18T08:08:26.000Z</time>
      </trkpt>
      <trkpt lat="47.642" lon="6.03682">
        <ele>224</ele>
        <time>2012-04-18T08:08:27.000Z</time>
      </trkpt>
      <trkpt lat="47.64196" lon="6.03682">
        <ele>224.39999389648</ele>
        <time>2012-04-18T08:08:28.000Z</time>
      </trkpt>
      <trkpt lat="47.64193" lon="6.03681">
        <ele>224.80000305176</ele>
        <time>2012-04-18T08:08:29.000Z</time>
      </trkpt>
      <trkpt lat="47.64189" lon="6.03681">
        <ele>225.19999694824</ele>
        <time>2012-04-18T08:08:30.000Z</time>
      </trkpt>
      <trkpt lat="47.64181" lon="6.03682">
        <ele>225.19999694824</ele>
        <time>2012-04-18T08:08:32.000Z</time>
      </trkpt>
      <trkpt lat="47.6415" lon="6.03682">
        <ele>225.19999694824</ele>
        <time>2012-04-18T08:08:41.000Z</time>
      </trkpt>
      <trkpt lat="47.6413" lon="6.03677">
        <ele>225.19999694824</ele>
        <time>2012-04-18T08:08:47.000Z</time>
      </trkpt>
      <trkpt lat="47.64101" lon="6.03663">
        <ele>225.19999694824</ele>
        <time>2012-04-18T08:08:56.000Z</time>
      </trkpt>
      <trkpt lat="47.64076" lon="6.03651">
        <ele>225.19999694824</ele>
        <time>2012-04-18T08:09:03.000Z</time>
      </trkpt>
      <trkpt lat="47.6405" lon="6.03638">
        <ele>225.19999694824</ele>
        <time>2012-04-18T08:09:10.000Z</time>
      </trkpt>
      <trkpt lat="47.64019" lon="6.03615">
        <ele>225.19999694824</ele>
        <time>2012-04-18T08:09:18.000Z</time>
      </trkpt>
      <trkpt lat="47.63996" lon="6.03597">
        <ele>225.19999694824</ele>
        <time>2012-04-18T08:09:25.000Z</time>
      </trkpt>
      <trkpt lat="47.63967" lon="6.03579">
        <ele>225.19999694824</ele>
        <time>2012-04-18T08:09:32.000Z</time>
      </trkpt>
      <trkpt lat="47.63959" lon="6.03576">
        <ele>225.19999694824</ele>
        <time>2012-04-18T08:09:34.000Z</time>
      </trkpt>
      <trkpt lat="47.63941" lon="6.03569">
        <ele>225.19999694824</ele>
        <time>2012-04-18T08:09:38.000Z</time>
      </trkpt>
      <trkpt lat="47.63916" lon="6.03561">
        <ele>225.19999694824</ele>
        <time>2012-04-18T08:09:44.000Z</time>
      </trkpt>
      <trkpt lat="47.63908" lon="6.03558">
        <ele>225.19999694824</ele>
        <time>2012-04-18T08:09:46.000Z</time>
      </trkpt>
      <trkpt lat="47.63896" lon="6.03551">
        <ele>224.80000305176</ele>
        <time>2012-04-18T08:09:49.000Z</time>
      </trkpt>
      <trkpt lat="47.63891" lon="6.03549">
        <ele>224.39999389648</ele>
        <time>2012-04-18T08:09:50.000Z</time>
      </trkpt>
      <trkpt lat="47.63887" lon="6.03546">
        <ele>224</ele>
        <time>2012-04-18T08:09:51.000Z</time>
      </trkpt>
      <trkpt lat="47.63882" lon="6.03543">
        <ele>223.60000610352</ele>
        <time>2012-04-18T08:09:52.000Z</time>
      </trkpt>
      <trkpt lat="47.63877" lon="6.03541">
        <ele>223.19999694824</ele>
        <time>2012-04-18T08:09:53.000Z</time>
      </trkpt>
      <trkpt lat="47.63867" lon="6.03535">
        <ele>223.19999694824</ele>
        <time>2012-04-18T08:09:55.000Z</time>
      </trkpt>
      <trkpt lat="47.63851" lon="6.03528">
        <ele>223.19999694824</ele>
        <time>2012-04-18T08:09:58.000Z</time>
      </trkpt>
      <trkpt lat="47.63846" lon="6.03526">
        <ele>222.80000305176</ele>
        <time>2012-04-18T08:09:59.000Z</time>
      </trkpt>
      <trkpt lat="47.63839" lon="6.03525">
        <ele>222.39999389648</ele>
        <time>2012-04-18T08:10:00.000Z</time>
      </trkpt>
      <trkpt lat="47.63833" lon="6.03524">
        <ele>222</ele>
        <time>2012-04-18T08:10:01.000Z</time>
      </trkpt>
      <trkpt lat="47.63827" lon="6.03523">
        <ele>221.39999389648</ele>
        <time>2012-04-18T08:10:02.000Z</time>
      </trkpt>
      <trkpt lat="47.6382" lon="6.03521">
        <ele>221</ele>
        <time>2012-04-18T08:10:03.000Z</time>
      </trkpt>
      <trkpt lat="47.63801" lon="6.03515">
        <ele>221</ele>
        <time>2012-04-18T08:10:06.000Z</time>
      </trkpt>
      <trkpt lat="47.63787" lon="6.03511">
        <ele>220.60000610352</ele>
        <time>2012-04-18T08:10:08.000Z</time>
      </trkpt>
      <trkpt lat="47.6378" lon="6.03508">
        <ele>219.60000610352</ele>
        <time>2012-04-18T08:10:09.000Z</time>
      </trkpt>
      <trkpt lat="47.63773" lon="6.03507">
        <ele>219.19999694824</ele>
        <time>2012-04-18T08:10:10.000Z</time>
      </trkpt>
      <trkpt lat="47.63766" lon="6.03507">
        <ele>218.80000305176</ele>
        <time>2012-04-18T08:10:11.000Z</time>
      </trkpt>
      <trkpt lat="47.63759" lon="6.03508">
        <ele>218.19999694824</ele>
        <time>2012-04-18T08:10:12.000Z</time>
      </trkpt>
      <trkpt lat="47.63751" lon="6.03509">
        <ele>217.80000305176</ele>
        <time>2012-04-18T08:10:13.000Z</time>
      </trkpt>
      <trkpt lat="47.63744" lon="6.03512">
        <ele>217.19999694824</ele>
        <time>2012-04-18T08:10:14.000Z</time>
      </trkpt>
      <trkpt lat="47.63737" lon="6.03515">
        <ele>216.60000610352</ele>
        <time>2012-04-18T08:10:15.000Z</time>
      </trkpt>
      <trkpt lat="47.63729" lon="6.03519">
        <ele>216.19999694824</ele>
        <time>2012-04-18T08:10:16.000Z</time>
      </trkpt>
      <trkpt lat="47.63722" lon="6.03522">
        <ele>215.80000305176</ele>
        <time>2012-04-18T08:10:17.000Z</time>
      </trkpt>
      <trkpt lat="47.63715" lon="6.03524">
        <ele>215.39999389648</ele>
        <time>2012-04-18T08:10:18.000Z</time>
      </trkpt>
      <trkpt lat="47.63709" lon="6.03527">
        <ele>215</ele>
        <time>2012-04-18T08:10:19.000Z</time>
      </trkpt>
      <trkpt lat="47.63702" lon="6.03529">
        <ele>214.60000610352</ele>
        <time>2012-04-18T08:10:20.000Z</time>
      </trkpt>
      <trkpt lat="47.63697" lon="6.03532">
        <ele>214.60000610352</ele>
        <time>2012-04-18T08:10:21.000Z</time>
      </trkpt>
      <trkpt lat="47.63685" lon="6.03549">
        <ele>214.60000610352</ele>
        <time>2012-04-18T08:10:24.000Z</time>
      </trkpt>
      <trkpt lat="47.63661" lon="6.03585">
        <ele>214.60000610352</ele>
        <time>2012-04-18T08:10:31.000Z</time>
      </trkpt>
      <trkpt lat="47.6365" lon="6.03599">
        <ele>214.60000610352</ele>
        <time>2012-04-18T08:10:34.000Z</time>
      </trkpt>
      <trkpt lat="47.63639" lon="6.03613">
        <ele>214.60000610352</ele>
        <time>2012-04-18T08:10:37.000Z</time>
      </trkpt>
      <trkpt lat="47.63616" lon="6.03635">
        <ele>214.60000610352</ele>
        <time>2012-04-18T08:10:43.000Z</time>
      </trkpt>
      <trkpt lat="47.63589" lon="6.03658">
        <ele>214.60000610352</ele>
        <time>2012-04-18T08:10:50.000Z</time>
      </trkpt>
      <trkpt lat="47.63557" lon="6.03681">
        <ele>214.60000610352</ele>
        <time>2012-04-18T08:10:58.000Z</time>
      </trkpt>
      <trkpt lat="47.63528" lon="6.03704">
        <ele>214.60000610352</ele>
        <time>2012-04-18T08:11:06.000Z</time>
      </trkpt>
      <trkpt lat="47.635" lon="6.03728">
        <ele>214.60000610352</ele>
        <time>2012-04-18T08:11:14.000Z</time>
      </trkpt>
      <trkpt lat="47.63469" lon="6.03755">
        <ele>214.60000610352</ele>
        <time>2012-04-18T08:11:23.000Z</time>
      </trkpt>
      <trkpt lat="47.6344" lon="6.03782">
        <ele>214.60000610352</ele>
        <time>2012-04-18T08:11:30.000Z</time>
      </trkpt>
      <trkpt lat="47.63411" lon="6.03815">
        <ele>214.60000610352</ele>
        <time>2012-04-18T08:11:36.000Z</time>
      </trkpt>
      <trkpt lat="47.63365" lon="6.03865">
        <ele>214.60000610352</ele>
        <time>2012-04-18T08:11:45.000Z</time>
      </trkpt>
      <trkpt lat="47.63357" lon="6.03874">
        <ele>214.60000610352</ele>
        <time>2012-04-18T08:11:47.000Z</time>
      </trkpt>
      <trkpt lat="47.63343" lon="6.03885">
        <ele>214.60000610352</ele>
        <time>2012-04-18T08:11:50.000Z</time>
      </trkpt>
      <trkpt lat="47.63308" lon="6.03908">
        <ele>214.60000610352</ele>
        <time>2012-04-18T08:11:58.000Z</time>
      </trkpt>
      <trkpt lat="47.63279" lon="6.03927">
        <ele>214.60000610352</ele>
        <time>2012-04-18T08:12:05.000Z</time>
      </trkpt>
      <trkpt lat="47.63275" lon="6.03929">
        <ele>214.60000610352</ele>
        <time>2012-04-18T08:12:06.000Z</time>
      </trkpt>
      <trkpt lat="47.6326" lon="6.0394">
        <ele>214.60000610352</ele>
        <time>2012-04-18T08:12:10.000Z</time>
      </trkpt>
      <trkpt lat="47.63228" lon="6.03962">
        <ele>214.60000610352</ele>
        <time>2012-04-18T08:12:19.000Z</time>
      </trkpt>
      <trkpt lat="47.632" lon="6.03982">
        <ele>214.60000610352</ele>
        <time>2012-04-18T08:12:26.000Z</time>
      </trkpt>
      <trkpt lat="47.63173" lon="6.04">
        <ele>214.60000610352</ele>
        <time>2012-04-18T08:12:33.000Z</time>
      </trkpt>
      <trkpt lat="47.63169" lon="6.04002">
        <ele>214.60000610352</ele>
        <time>2012-04-18T08:12:34.000Z</time>
      </trkpt>
      <trkpt lat="47.6316" lon="6.04005">
        <ele>214.60000610352</ele>
        <time>2012-04-18T08:12:36.000Z</time>
      </trkpt>
      <trkpt lat="47.63147" lon="6.04005">
        <ele>214.60000610352</ele>
        <time>2012-04-18T08:12:39.000Z</time>
      </trkpt>
      <trkpt lat="47.63143" lon="6.04003">
        <ele>214.60000610352</ele>
        <time>2012-04-18T08:12:40.000Z</time>
      </trkpt>
      <trkpt lat="47.63127" lon="6.03992">
        <ele>214.60000610352</ele>
        <time>2012-04-18T08:12:44.000Z</time>
      </trkpt>
      <trkpt lat="47.63123" lon="6.03988">
        <ele>214.60000610352</ele>
        <time>2012-04-18T08:12:45.000Z</time>
      </trkpt>
      <trkpt lat="47.63089" lon="6.03955">
        <ele>214.60000610352</ele>
        <time>2012-04-18T08:12:54.000Z</time>
      </trkpt>
      <trkpt lat="47.63071" lon="6.03948">
        <ele>214.60000610352</ele>
        <time>2012-04-18T08:12:58.000Z</time>
      </trkpt>
      <trkpt lat="47.63062" lon="6.03946">
        <ele>214.60000610352</ele>
        <time>2012-04-18T08:13:00.000Z</time>
      </trkpt>
      <trkpt lat="47.63027" lon="6.03945">
        <ele>214.60000610352</ele>
        <time>2012-04-18T08:13:08.000Z</time>
      </trkpt>
      <trkpt lat="47.63023" lon="6.03947">
        <ele>214.60000610352</ele>
        <time>2012-04-18T08:13:09.000Z</time>
      </trkpt>
      <trkpt lat="47.63008" lon="6.03957">
        <ele>214.60000610352</ele>
        <time>2012-04-18T08:13:13.000Z</time>
      </trkpt>
      <trkpt lat="47.63005" lon="6.03961">
        <ele>214.60000610352</ele>
        <time>2012-04-18T08:13:14.000Z</time>
      </trkpt>
      <trkpt lat="47.63001" lon="6.03964">
        <ele>214.60000610352</ele>
        <time>2012-04-18T08:13:15.000Z</time>
      </trkpt>
      <trkpt lat="47.62982" lon="6.03986">
        <ele>214.60000610352</ele>
        <time>2012-04-18T08:13:21.000Z</time>
      </trkpt>
      <trkpt lat="47.62959" lon="6.04017">
        <ele>214.60000610352</ele>
        <time>2012-04-18T08:13:29.000Z</time>
      </trkpt>
      <trkpt lat="47.62949" lon="6.0403">
        <ele>214.60000610352</ele>
        <time>2012-04-18T08:13:32.000Z</time>
      </trkpt>
      <trkpt lat="47.62938" lon="6.04045">
        <ele>214.60000610352</ele>
        <time>2012-04-18T08:13:35.000Z</time>
      </trkpt>
      <trkpt lat="47.6292" lon="6.04077">
        <ele>214.60000610352</ele>
        <time>2012-04-18T08:13:41.000Z</time>
      </trkpt>
      <trkpt lat="47.62899" lon="6.04118">
        <ele>215</ele>
        <time>2012-04-18T08:13:48.000Z</time>
      </trkpt>
      <trkpt lat="47.62896" lon="6.04125">
        <ele>215.39999389648</ele>
        <time>2012-04-18T08:13:49.000Z</time>
      </trkpt>
      <trkpt lat="47.62893" lon="6.04131">
        <ele>216.19999694824</ele>
        <time>2012-04-18T08:13:50.000Z</time>
      </trkpt>
      <trkpt lat="47.62891" lon="6.04138">
        <ele>216.80000305176</ele>
        <time>2012-04-18T08:13:51.000Z</time>
      </trkpt>
      <trkpt lat="47.62875" lon="6.04174">
        <ele>216.80000305176</ele>
        <time>2012-04-18T08:13:57.000Z</time>
      </trkpt>
      <trkpt lat="47.62855" lon="6.04217">
        <ele>216.80000305176</ele>
        <time>2012-04-18T08:14:05.000Z</time>
      </trkpt>
      <trkpt lat="47.62829" lon="6.04276">
        <ele>216.80000305176</ele>
        <time>2012-04-18T08:14:15.000Z</time>
      </trkpt>
      <trkpt lat="47.6281" lon="6.04317">
        <ele>216.80000305176</ele>
        <time>2012-04-18T08:14:22.000Z</time>
      </trkpt>
      <trkpt lat="47.62803" lon="6.04335">
        <ele>216.39999389648</ele>
        <time>2012-04-18T08:14:25.000Z</time>
      </trkpt>
      <trkpt lat="47.62801" lon="6.04342">
        <ele>215.80000305176</ele>
        <time>2012-04-18T08:14:26.000Z</time>
      </trkpt>
      <trkpt lat="47.62798" lon="6.04348">
        <ele>215.39999389648</ele>
        <time>2012-04-18T08:14:27.000Z</time>
      </trkpt>
      <trkpt lat="47.62796" lon="6.04354">
        <ele>215</ele>
        <time>2012-04-18T08:14:28.000Z</time>
      </trkpt>
      <trkpt lat="47.62794" lon="6.0436">
        <ele>214.60000610352</ele>
        <time>2012-04-18T08:14:29.000Z</time>
      </trkpt>
      <trkpt lat="47.62787" lon="6.04386">
        <ele>214.60000610352</ele>
        <time>2012-04-18T08:14:33.000Z</time>
      </trkpt>
      <trkpt lat="47.62783" lon="6.04405">
        <ele>214.60000610352</ele>
        <time>2012-04-18T08:14:36.000Z</time>
      </trkpt>
      <trkpt lat="47.62779" lon="6.04443">
        <ele>214.60000610352</ele>
        <time>2012-04-18T08:14:42.000Z</time>
      </trkpt>
      <trkpt lat="47.62779" lon="6.04449">
        <ele>214.60000610352</ele>
        <time>2012-04-18T08:14:43.000Z</time>
      </trkpt>
      <trkpt lat="47.62776" lon="6.04508">
        <ele>214.60000610352</ele>
        <time>2012-04-18T08:14:52.000Z</time>
      </trkpt>
      <trkpt lat="47.62774" lon="6.04559">
        <ele>214.60000610352</ele>
        <time>2012-04-18T08:15:00.000Z</time>
      </trkpt>
      <trkpt lat="47.62773" lon="6.04614">
        <ele>214.60000610352</ele>
        <time>2012-04-18T08:15:08.000Z</time>
      </trkpt>
      <trkpt lat="47.62772" lon="6.04655">
        <ele>214.60000610352</ele>
        <time>2012-04-18T08:15:15.000Z</time>
      </trkpt>
      <trkpt lat="47.62773" lon="6.04692">
        <ele>214.60000610352</ele>
        <time>2012-04-18T08:15:22.000Z</time>
      </trkpt>
      <trkpt lat="47.62771" lon="6.04732">
        <ele>214.60000610352</ele>
        <time>2012-04-18T08:15:28.000Z</time>
      </trkpt>
      <trkpt lat="47.62771" lon="6.04762">
        <ele>214.60000610352</ele>
        <time>2012-04-18T08:15:32.000Z</time>
      </trkpt>
      <trkpt lat="47.62773" lon="6.04783">
        <ele>214.60000610352</ele>
        <time>2012-04-18T08:15:35.000Z</time>
      </trkpt>
      <trkpt lat="47.62775" lon="6.04824">
        <ele>214.60000610352</ele>
        <time>2012-04-18T08:15:41.000Z</time>
      </trkpt>
      <trkpt lat="47.62781" lon="6.04879">
        <ele>214.60000610352</ele>
        <time>2012-04-18T08:15:49.000Z</time>
      </trkpt>
      <trkpt lat="47.62791" lon="6.04924">
        <ele>214.60000610352</ele>
        <time>2012-04-18T08:15:56.000Z</time>
      </trkpt>
      <trkpt lat="47.62799" lon="6.04956">
        <ele>214.60000610352</ele>
        <time>2012-04-18T08:16:02.000Z</time>
      </trkpt>
      <trkpt lat="47.62806" lon="6.04978">
        <ele>215</ele>
        <time>2012-04-18T08:16:07.000Z</time>
      </trkpt>
      <trkpt lat="47.62807" lon="6.04982">
        <ele>215.60000610352</ele>
        <time>2012-04-18T08:16:08.000Z</time>
      </trkpt>
      <trkpt lat="47.62808" lon="6.04987">
        <ele>216</ele>
        <time>2012-04-18T08:16:09.000Z</time>
      </trkpt>
      <trkpt lat="47.62808" lon="6.04991">
        <ele>216.39999389648</ele>
        <time>2012-04-18T08:16:10.000Z</time>
      </trkpt>
      <trkpt lat="47.62809" lon="6.04996">
        <ele>216.80000305176</ele>
        <time>2012-04-18T08:16:11.000Z</time>
      </trkpt>
      <trkpt lat="47.62814" lon="6.05014">
        <ele>216.80000305176</ele>
        <time>2012-04-18T08:16:15.000Z</time>
      </trkpt>
      <trkpt lat="47.62819" lon="6.05051">
        <ele>216.80000305176</ele>
        <time>2012-04-18T08:16:21.000Z</time>
      </trkpt>
      <trkpt lat="47.62825" lon="6.05092">
        <ele>216.80000305176</ele>
        <time>2012-04-18T08:16:28.000Z</time>
      </trkpt>
      <trkpt lat="47.62831" lon="6.05129">
        <ele>216.80000305176</ele>
        <time>2012-04-18T08:16:34.000Z</time>
      </trkpt>
      <trkpt lat="47.62839" lon="6.05159">
        <ele>216.80000305176</ele>
        <time>2012-04-18T08:16:40.000Z</time>
      </trkpt>
      <trkpt lat="47.62842" lon="6.05173">
        <ele>217.19999694824</ele>
        <time>2012-04-18T08:16:44.000Z</time>
      </trkpt>
      <trkpt lat="47.62843" lon="6.05177">
        <ele>217.60000610352</ele>
        <time>2012-04-18T08:16:45.000Z</time>
      </trkpt>
      <trkpt lat="47.62844" lon="6.0518">
        <ele>218</ele>
        <time>2012-04-18T08:16:46.000Z</time>
      </trkpt>
      <trkpt lat="47.62844" lon="6.05184">
        <ele>218.39999389648</ele>
        <time>2012-04-18T08:16:47.000Z</time>
      </trkpt>
      <trkpt lat="47.62844" lon="6.05188">
        <ele>218.80000305176</ele>
        <time>2012-04-18T08:16:48.000Z</time>
      </trkpt>
      <trkpt lat="47.62848" lon="6.05212">
        <ele>218.80000305176</ele>
        <time>2012-04-18T08:16:52.000Z</time>
      </trkpt>
      <trkpt lat="47.62853" lon="6.05233">
        <ele>219.19999694824</ele>
        <time>2012-04-18T08:16:57.000Z</time>
      </trkpt>
      <trkpt lat="47.62854" lon="6.05236">
        <ele>219.60000610352</ele>
        <time>2012-04-18T08:16:58.000Z</time>
      </trkpt>
      <trkpt lat="47.62855" lon="6.0524">
        <ele>220.19999694824</ele>
        <time>2012-04-18T08:16:59.000Z</time>
      </trkpt>
      <trkpt lat="47.62856" lon="6.05243">
        <ele>220.60000610352</ele>
        <time>2012-04-18T08:17:00.000Z</time>
      </trkpt>
      <trkpt lat="47.62857" lon="6.05246">
        <ele>221</ele>
        <time>2012-04-18T08:17:01.000Z</time>
      </trkpt>
      <trkpt lat="47.62861" lon="6.05255">
        <ele>221</ele>
        <time>2012-04-18T08:17:04.000Z</time>
      </trkpt>
      <trkpt lat="47.62865" lon="6.0527">
        <ele>221</ele>
        <time>2012-04-18T08:17:10.000Z</time>
      </trkpt>
      <trkpt lat="47.62867" lon="6.05286">
        <ele>221</ele>
        <time>2012-04-18T08:17:16.000Z</time>
      </trkpt>
      <trkpt lat="47.62868" lon="6.0531">
        <ele>221</ele>
        <time>2012-04-18T08:17:23.000Z</time>
      </trkpt>
      <trkpt lat="47.62872" lon="6.05337">
        <ele>221</ele>
        <time>2012-04-18T08:17:29.000Z</time>
      </trkpt>
      <trkpt lat="47.62871" lon="6.05372">
        <ele>221</ele>
        <time>2012-04-18T08:17:35.000Z</time>
      </trkpt>
      <trkpt lat="47.62881" lon="6.05392">
        <ele>221</ele>
        <time>2012-04-18T08:17:40.000Z</time>
      </trkpt>
      <trkpt lat="47.62888" lon="6.05411">
        <ele>221</ele>
        <time>2012-04-18T08:17:45.000Z</time>
      </trkpt>
      <trkpt lat="47.62895" lon="6.05434">
        <ele>221</ele>
        <time>2012-04-18T08:17:51.000Z</time>
      </trkpt>
      <trkpt lat="47.62902" lon="6.05468">
        <ele>221</ele>
        <time>2012-04-18T08:17:58.000Z</time>
      </trkpt>
      <trkpt lat="47.62906" lon="6.05502">
        <ele>221</ele>
        <time>2012-04-18T08:18:04.000Z</time>
      </trkpt>
      <trkpt lat="47.62909" lon="6.05533">
        <ele>221</ele>
        <time>2012-04-18T08:18:09.000Z</time>
      </trkpt>
      <trkpt lat="47.62909" lon="6.05583">
        <ele>221</ele>
        <time>2012-04-18T08:18:17.000Z</time>
      </trkpt>
      <trkpt lat="47.62909" lon="6.05617">
        <ele>221</ele>
        <time>2012-04-18T08:18:24.000Z</time>
      </trkpt>
      <trkpt lat="47.62909" lon="6.05622">
        <ele>221.39999389648</ele>
        <time>2012-04-18T08:18:25.000Z</time>
      </trkpt>
      <trkpt lat="47.62909" lon="6.05627">
        <ele>221.80000305176</ele>
        <time>2012-04-18T08:18:26.000Z</time>
      </trkpt>
      <trkpt lat="47.6291" lon="6.05632">
        <ele>222.19999694824</ele>
        <time>2012-04-18T08:18:27.000Z</time>
      </trkpt>
      <trkpt lat="47.62911" lon="6.05637">
        <ele>222.60000610352</ele>
        <time>2012-04-18T08:18:28.000Z</time>
      </trkpt>
      <trkpt lat="47.62912" lon="6.05641">
        <ele>223</ele>
        <time>2012-04-18T08:18:29.000Z</time>
      </trkpt>
      <trkpt lat="47.62918" lon="6.05666">
        <ele>223</ele>
        <time>2012-04-18T08:18:35.000Z</time>
      </trkpt>
      <trkpt lat="47.62925" lon="6.05707">
        <ele>223</ele>
        <time>2012-04-18T08:18:43.000Z</time>
      </trkpt>
      <trkpt lat="47.62923" lon="6.05736">
        <ele>223</ele>
        <time>2012-04-18T08:18:49.000Z</time>
      </trkpt>
      <trkpt lat="47.62915" lon="6.05755">
        <ele>223</ele>
        <time>2012-04-18T08:18:54.000Z</time>
      </trkpt>
      <trkpt lat="47.62899" lon="6.05783">
        <ele>223</ele>
        <time>2012-04-18T08:19:01.000Z</time>
      </trkpt>
      <trkpt lat="47.62888" lon="6.058">
        <ele>223</ele>
        <time>2012-04-18T08:19:06.000Z</time>
      </trkpt>
      <trkpt lat="47.62875" lon="6.05822">
        <ele>223.80000305176</ele>
        <time>2012-04-18T08:19:12.000Z</time>
      </trkpt>
      <trkpt lat="47.62873" lon="6.05825">
        <ele>224.19999694824</ele>
        <time>2012-04-18T08:19:13.000Z</time>
      </trkpt>
      <trkpt lat="47.62871" lon="6.05828">
        <ele>224.60000610352</ele>
        <time>2012-04-18T08:19:14.000Z</time>
      </trkpt>
      <trkpt lat="47.62869" lon="6.05832">
        <ele>225</ele>
        <time>2012-04-18T08:19:15.000Z</time>
      </trkpt>
      <trkpt lat="47.62859" lon="6.05851">
        <ele>225</ele>
        <time>2012-04-18T08:19:21.000Z</time>
      </trkpt>
      <trkpt lat="47.62848" lon="6.05874">
        <ele>225</ele>
        <time>2012-04-18T08:19:28.000Z</time>
      </trkpt>
      <trkpt lat="47.62846" lon="6.05878">
        <ele>225.39999389648</ele>
        <time>2012-04-18T08:19:29.000Z</time>
      </trkpt>
      <trkpt lat="47.62844" lon="6.05881">
        <ele>225.80000305176</ele>
        <time>2012-04-18T08:19:30.000Z</time>
      </trkpt>
      <trkpt lat="47.62842" lon="6.05884">
        <ele>226.39999389648</ele>
        <time>2012-04-18T08:19:31.000Z</time>
      </trkpt>
      <trkpt lat="47.6284" lon="6.05887">
        <ele>226.80000305176</ele>
        <time>2012-04-18T08:19:32.000Z</time>
      </trkpt>
      <trkpt lat="47.62839" lon="6.0589">
        <ele>227.19999694824</ele>
        <time>2012-04-18T08:19:33.000Z</time>
      </trkpt>
      <trkpt lat="47.62833" lon="6.059">
        <ele>227.19999694824</ele>
        <time>2012-04-18T08:19:36.000Z</time>
      </trkpt>
      <trkpt lat="47.62818" lon="6.05921">
        <ele>227.19999694824</ele>
        <time>2012-04-18T08:19:43.000Z</time>
      </trkpt>
      <trkpt lat="47.62798" lon="6.05943">
        <ele>227.19999694824</ele>
        <time>2012-04-18T08:19:51.000Z</time>
      </trkpt>
      <trkpt lat="47.62773" lon="6.05969">
        <ele>227.19999694824</ele>
        <time>2012-04-18T08:20:00.000Z</time>
      </trkpt>
      <trkpt lat="47.6275" lon="6.05991">
        <ele>227.19999694824</ele>
        <time>2012-04-18T08:20:08.000Z</time>
      </trkpt>
      <trkpt lat="47.62735" lon="6.0601">
        <ele>227.60000610352</ele>
        <time>2012-04-18T08:20:15.000Z</time>
      </trkpt>
      <trkpt lat="47.62732" lon="6.06012">
        <ele>228</ele>
        <time>2012-04-18T08:20:16.000Z</time>
      </trkpt>
      <trkpt lat="47.6273" lon="6.06015">
        <ele>228.39999389648</ele>
        <time>2012-04-18T08:20:17.000Z</time>
      </trkpt>
      <trkpt lat="47.62727" lon="6.06017">
        <ele>228.80000305176</ele>
        <time>2012-04-18T08:20:18.000Z</time>
      </trkpt>
      <trkpt lat="47.62724" lon="6.0602">
        <ele>229.19999694824</ele>
        <time>2012-04-18T08:20:19.000Z</time>
      </trkpt>
      <trkpt lat="47.62711" lon="6.06037">
        <ele>229.19999694824</ele>
        <time>2012-04-18T08:20:24.000Z</time>
      </trkpt>
      <trkpt lat="47.6269" lon="6.06063">
        <ele>229.19999694824</ele>
        <time>2012-04-18T08:20:30.000Z</time>
      </trkpt>
      <trkpt lat="47.62672" lon="6.06087">
        <ele>229.19999694824</ele>
        <time>2012-04-18T08:20:36.000Z</time>
      </trkpt>
      <trkpt lat="47.62668" lon="6.0609">
        <ele>229.19999694824</ele>
        <time>2012-04-18T08:20:37.000Z</time>
      </trkpt>
      <trkpt lat="47.6266" lon="6.06096">
        <ele>229.19999694824</ele>
        <time>2012-04-18T08:20:39.000Z</time>
      </trkpt>
      <trkpt lat="47.62644" lon="6.06107">
        <ele>229.19999694824</ele>
        <time>2012-04-18T08:20:43.000Z</time>
      </trkpt>
      <trkpt lat="47.62632" lon="6.06114">
        <ele>229.19999694824</ele>
        <time>2012-04-18T08:20:46.000Z</time>
      </trkpt>
      <trkpt lat="47.62616" lon="6.06123">
        <ele>229.19999694824</ele>
        <time>2012-04-18T08:20:50.000Z</time>
      </trkpt>
      <trkpt lat="47.62612" lon="6.06126">
        <ele>228.39999389648</ele>
        <time>2012-04-18T08:20:51.000Z</time>
      </trkpt>
      <trkpt lat="47.62608" lon="6.06128">
        <ele>228</ele>
        <time>2012-04-18T08:20:52.000Z</time>
      </trkpt>
      <trkpt lat="47.62604" lon="6.0613">
        <ele>227.60000610352</ele>
        <time>2012-04-18T08:20:53.000Z</time>
      </trkpt>
      <trkpt lat="47.626" lon="6.06133">
        <ele>227.19999694824</ele>
        <time>2012-04-18T08:20:54.000Z</time>
      </trkpt>
      <trkpt lat="47.62593" lon="6.06139">
        <ele>227.19999694824</ele>
        <time>2012-04-18T08:20:56.000Z</time>
      </trkpt>
      <trkpt lat="47.62589" lon="6.06142">
        <ele>227.19999694824</ele>
        <time>2012-04-18T08:20:57.000Z</time>
      </trkpt>
      <trkpt lat="47.62554" lon="6.06179">
        <ele>227.19999694824</ele>
        <time>2012-04-18T08:21:06.000Z</time>
      </trkpt>
      <trkpt lat="47.6255" lon="6.06184">
        <ele>227.19999694824</ele>
        <time>2012-04-18T08:21:07.000Z</time>
      </trkpt>
      <trkpt lat="47.6254" lon="6.06199">
        <ele>226.80000305176</ele>
        <time>2012-04-18T08:21:10.000Z</time>
      </trkpt>
      <trkpt lat="47.62536" lon="6.06203">
        <ele>226.39999389648</ele>
        <time>2012-04-18T08:21:11.000Z</time>
      </trkpt>
      <trkpt lat="47.62533" lon="6.06207">
        <ele>225.80000305176</ele>
        <time>2012-04-18T08:21:12.000Z</time>
      </trkpt>
      <trkpt lat="47.62529" lon="6.06212">
        <ele>225.39999389648</ele>
        <time>2012-04-18T08:21:13.000Z</time>
      </trkpt>
      <trkpt lat="47.62526" lon="6.06216">
        <ele>225</ele>
        <time>2012-04-18T08:21:14.000Z</time>
      </trkpt>
      <trkpt lat="47.62523" lon="6.06221">
        <ele>225</ele>
        <time>2012-04-18T08:21:15.000Z</time>
      </trkpt>
      <trkpt lat="47.62521" lon="6.06245">
        <ele>225</ele>
        <time>2012-04-18T08:21:18.000Z</time>
      </trkpt>
      <trkpt lat="47.62528" lon="6.0626">
        <ele>224.60000610352</ele>
        <time>2012-04-18T08:21:20.000Z</time>
      </trkpt>
      <trkpt lat="47.62533" lon="6.06265">
        <ele>224.19999694824</ele>
        <time>2012-04-18T08:21:21.000Z</time>
      </trkpt>
      <trkpt lat="47.62539" lon="6.06271">
        <ele>223.80000305176</ele>
        <time>2012-04-18T08:21:22.000Z</time>
      </trkpt>
      <trkpt lat="47.62544" lon="6.06276">
        <ele>223.39999389648</ele>
        <time>2012-04-18T08:21:23.000Z</time>
      </trkpt>
      <trkpt lat="47.6255" lon="6.06282">
        <ele>223</ele>
        <time>2012-04-18T08:21:24.000Z</time>
      </trkpt>
      <trkpt lat="47.62574" lon="6.06306">
        <ele>223</ele>
        <time>2012-04-18T08:21:28.000Z</time>
      </trkpt>
      <trkpt lat="47.62592" lon="6.06326">
        <ele>222.60000610352</ele>
        <time>2012-04-18T08:21:31.000Z</time>
      </trkpt>
      <trkpt lat="47.62598" lon="6.06333">
        <ele>222</ele>
        <time>2012-04-18T08:21:32.000Z</time>
      </trkpt>
      <trkpt lat="47.62604" lon="6.06339">
        <ele>221.60000610352</ele>
        <time>2012-04-18T08:21:33.000Z</time>
      </trkpt>
      <trkpt lat="47.6261" lon="6.06345">
        <ele>221.19999694824</ele>
        <time>2012-04-18T08:21:34.000Z</time>
      </trkpt>
      <trkpt lat="47.62616" lon="6.06351">
        <ele>220.80000305176</ele>
        <time>2012-04-18T08:21:35.000Z</time>
      </trkpt>
      <trkpt lat="47.62647" lon="6.06382">
        <ele>220.80000305176</ele>
        <time>2012-04-18T08:21:41.000Z</time>
      </trkpt>
      <trkpt lat="47.62669" lon="6.06404">
        <ele>220.80000305176</ele>
        <time>2012-04-18T08:21:46.000Z</time>
      </trkpt>
      <trkpt lat="47.62696" lon="6.06433">
        <ele>220.80000305176</ele>
        <time>2012-04-18T08:21:53.000Z</time>
      </trkpt>
      <trkpt lat="47.62707" lon="6.06443">
        <ele>220.80000305176</ele>
        <time>2012-04-18T08:21:56.000Z</time>
      </trkpt>
      <trkpt lat="47.62715" lon="6.06448">
        <ele>220.80000305176</ele>
        <time>2012-04-18T08:21:58.000Z</time>
      </trkpt>
      <trkpt lat="47.62726" lon="6.0646">
        <ele>220.80000305176</ele>
        <time>2012-04-18T08:22:02.000Z</time>
      </trkpt>
      <trkpt lat="47.62742" lon="6.06482">
        <ele>220.80000305176</ele>
        <time>2012-04-18T08:22:08.000Z</time>
      </trkpt>
      <trkpt lat="47.62759" lon="6.06508">
        <ele>220.80000305176</ele>
        <time>2012-04-18T08:22:15.000Z</time>
      </trkpt>
      <trkpt lat="47.62771" lon="6.06529">
        <ele>220.80000305176</ele>
        <time>2012-04-18T08:22:21.000Z</time>
      </trkpt>
      <trkpt lat="47.62786" lon="6.06557">
        <ele>220.80000305176</ele>
        <time>2012-04-18T08:22:27.000Z</time>
      </trkpt>
      <trkpt lat="47.62801" lon="6.06594">
        <ele>220.80000305176</ele>
        <time>2012-04-18T08:22:32.000Z</time>
      </trkpt>
      <trkpt lat="47.62813" lon="6.06619">
        <ele>220.39999389648</ele>
        <time>2012-04-18T08:22:35.000Z</time>
      </trkpt>
      <trkpt lat="47.62817" lon="6.06626">
        <ele>220</ele>
        <time>2012-04-18T08:22:36.000Z</time>
      </trkpt>
      <trkpt lat="47.62821" lon="6.06633">
        <ele>219.39999389648</ele>
        <time>2012-04-18T08:22:37.000Z</time>
      </trkpt>
      <trkpt lat="47.62825" lon="6.0664">
        <ele>219</ele>
        <time>2012-04-18T08:22:38.000Z</time>
      </trkpt>
      <trkpt lat="47.62828" lon="6.06646">
        <ele>218.60000610352</ele>
        <time>2012-04-18T08:22:39.000Z</time>
      </trkpt>
      <trkpt lat="47.62833" lon="6.06652">
        <ele>218.60000610352</ele>
        <time>2012-04-18T08:22:40.000Z</time>
      </trkpt>
      <trkpt lat="47.62851" lon="6.06674">
        <ele>218.60000610352</ele>
        <time>2012-04-18T08:22:44.000Z</time>
      </trkpt>
      <trkpt lat="47.62887" lon="6.06707">
        <ele>218.60000610352</ele>
        <time>2012-04-18T08:22:52.000Z</time>
      </trkpt>
      <trkpt lat="47.62916" lon="6.06721">
        <ele>218.60000610352</ele>
        <time>2012-04-18T08:22:58.000Z</time>
      </trkpt>
      <trkpt lat="47.62941" lon="6.06723">
        <ele>218.60000610352</ele>
        <time>2012-04-18T08:23:03.000Z</time>
      </trkpt>
      <trkpt lat="47.62967" lon="6.06725">
        <ele>218.60000610352</ele>
        <time>2012-04-18T08:23:09.000Z</time>
      </trkpt>
      <trkpt lat="47.62972" lon="6.06725">
        <ele>218.60000610352</ele>
        <time>2012-04-18T08:23:10.000Z</time>
      </trkpt>
      <trkpt lat="47.6299" lon="6.06726">
        <ele>218.60000610352</ele>
        <time>2012-04-18T08:23:15.000Z</time>
      </trkpt>
      <trkpt lat="47.63018" lon="6.06728">
        <ele>218.60000610352</ele>
        <time>2012-04-18T08:23:23.000Z</time>
      </trkpt>
      <trkpt lat="47.63028" lon="6.06728">
        <ele>219</ele>
        <time>2012-04-18T08:23:26.000Z</time>
      </trkpt>
      <trkpt lat="47.63031" lon="6.06728">
        <ele>219.39999389648</ele>
        <time>2012-04-18T08:23:27.000Z</time>
      </trkpt>
      <trkpt lat="47.63034" lon="6.06729">
        <ele>219.80000305176</ele>
        <time>2012-04-18T08:23:28.000Z</time>
      </trkpt>
      <trkpt lat="47.63038" lon="6.06729">
        <ele>220.19999694824</ele>
        <time>2012-04-18T08:23:29.000Z</time>
      </trkpt>
      <trkpt lat="47.63041" lon="6.06729">
        <ele>220.60000610352</ele>
        <time>2012-04-18T08:23:30.000Z</time>
      </trkpt>
      <trkpt lat="47.63045" lon="6.06729">
        <ele>220.60000610352</ele>
        <time>2012-04-18T08:23:31.000Z</time>
      </trkpt>
      <trkpt lat="47.63066" lon="6.06733">
        <ele>220.60000610352</ele>
        <time>2012-04-18T08:23:38.000Z</time>
      </trkpt>
      <trkpt lat="47.63088" lon="6.06737">
        <ele>220.60000610352</ele>
        <time>2012-04-18T08:23:45.000Z</time>
      </trkpt>
      <trkpt lat="47.63114" lon="6.06744">
        <ele>220.60000610352</ele>
        <time>2012-04-18T08:23:53.000Z</time>
      </trkpt>
      <trkpt lat="47.63135" lon="6.06752">
        <ele>220.60000610352</ele>
        <time>2012-04-18T08:23:59.000Z</time>
      </trkpt>
      <trkpt lat="47.63157" lon="6.06759">
        <ele>221</ele>
        <time>2012-04-18T08:24:04.000Z</time>
      </trkpt>
      <trkpt lat="47.63161" lon="6.0676">
        <ele>221.60000610352</ele>
        <time>2012-04-18T08:24:05.000Z</time>
      </trkpt>
      <trkpt lat="47.63166" lon="6.06761">
        <ele>222</ele>
        <time>2012-04-18T08:24:06.000Z</time>
      </trkpt>
      <trkpt lat="47.63171" lon="6.06763">
        <ele>222.39999389648</ele>
        <time>2012-04-18T08:24:07.000Z</time>
      </trkpt>
      <trkpt lat="47.63176" lon="6.06765">
        <ele>222.80000305176</ele>
        <time>2012-04-18T08:24:08.000Z</time>
      </trkpt>
      <trkpt lat="47.63199" lon="6.06772">
        <ele>222.80000305176</ele>
        <time>2012-04-18T08:24:13.000Z</time>
      </trkpt>
      <trkpt lat="47.63237" lon="6.06786">
        <ele>222.80000305176</ele>
        <time>2012-04-18T08:24:21.000Z</time>
      </trkpt>
      <trkpt lat="47.63271" lon="6.06796">
        <ele>222.80000305176</ele>
        <time>2012-04-18T08:24:28.000Z</time>
      </trkpt>
      <trkpt lat="47.63304" lon="6.06809">
        <ele>222.80000305176</ele>
        <time>2012-04-18T08:24:35.000Z</time>
      </trkpt>
      <trkpt lat="47.63312" lon="6.06813">
        <ele>222.80000305176</ele>
        <time>2012-04-18T08:24:37.000Z</time>
      </trkpt>
      <trkpt lat="47.63333" lon="6.06827">
        <ele>222.80000305176</ele>
        <time>2012-04-18T08:24:42.000Z</time>
      </trkpt>
      <trkpt lat="47.63359" lon="6.06845">
        <ele>222.80000305176</ele>
        <time>2012-04-18T08:24:48.000Z</time>
      </trkpt>
      <trkpt lat="47.63363" lon="6.06848">
        <ele>222.80000305176</ele>
        <time>2012-04-18T08:24:49.000Z</time>
      </trkpt>
      <trkpt lat="47.63379" lon="6.06863">
        <ele>222.80000305176</ele>
        <time>2012-04-18T08:24:53.000Z</time>
      </trkpt>
      <trkpt lat="47.63415" lon="6.06892">
        <ele>222.80000305176</ele>
        <time>2012-04-18T08:25:01.000Z</time>
      </trkpt>
      <trkpt lat="47.63441" lon="6.06912">
        <ele>222.80000305176</ele>
        <time>2012-04-18T08:25:07.000Z</time>
      </trkpt>
      <trkpt lat="47.63463" lon="6.06935">
        <ele>222.80000305176</ele>
        <time>2012-04-18T08:25:13.000Z</time>
      </trkpt>
      <trkpt lat="47.63489" lon="6.06971">
        <ele>222.80000305176</ele>
        <time>2012-04-18T08:25:20.000Z</time>
      </trkpt>
      <trkpt lat="47.63517" lon="6.07012">
        <ele>222.80000305176</ele>
        <time>2012-04-18T08:25:27.000Z</time>
      </trkpt>
      <trkpt lat="47.63541" lon="6.07044">
        <ele>222.80000305176</ele>
        <time>2012-04-18T08:25:33.000Z</time>
      </trkpt>
      <trkpt lat="47.63567" lon="6.07079">
        <ele>222.80000305176</ele>
        <time>2012-04-18T08:25:40.000Z</time>
      </trkpt>
      <trkpt lat="47.63599" lon="6.07123">
        <ele>222.80000305176</ele>
        <time>2012-04-18T08:25:49.000Z</time>
      </trkpt>
      <trkpt lat="47.63626" lon="6.0716">
        <ele>222.80000305176</ele>
        <time>2012-04-18T08:25:57.000Z</time>
      </trkpt>
      <trkpt lat="47.63639" lon="6.07177">
        <ele>222.80000305176</ele>
        <time>2012-04-18T08:26:01.000Z</time>
      </trkpt>
      <trkpt lat="47.63647" lon="6.07184">
        <ele>222.80000305176</ele>
        <time>2012-04-18T08:26:03.000Z</time>
      </trkpt>
      <trkpt lat="47.63678" lon="6.0721">
        <ele>222.80000305176</ele>
        <time>2012-04-18T08:26:11.000Z</time>
      </trkpt>
      <trkpt lat="47.63699" lon="6.07228">
        <ele>222.80000305176</ele>
        <time>2012-04-18T08:26:15.000Z</time>
      </trkpt>
      <trkpt lat="47.63704" lon="6.07232">
        <ele>222.80000305176</ele>
        <time>2012-04-18T08:26:16.000Z</time>
      </trkpt>
      <trkpt lat="47.63729" lon="6.07254">
        <ele>222.80000305176</ele>
        <time>2012-04-18T08:26:22.000Z</time>
      </trkpt>
      <trkpt lat="47.63736" lon="6.0726">
        <ele>223.19999694824</ele>
        <time>2012-04-18T08:26:24.000Z</time>
      </trkpt>
      <trkpt lat="47.63739" lon="6.07262">
        <ele>223.60000610352</ele>
        <time>2012-04-18T08:26:25.000Z</time>
      </trkpt>
      <trkpt lat="47.63742" lon="6.07266">
        <ele>224</ele>
        <time>2012-04-18T08:26:26.000Z</time>
      </trkpt>
      <trkpt lat="47.63746" lon="6.07269">
        <ele>224.60000610352</ele>
        <time>2012-04-18T08:26:27.000Z</time>
      </trkpt>
      <trkpt lat="47.63749" lon="6.07272">
        <ele>225</ele>
        <time>2012-04-18T08:26:28.000Z</time>
      </trkpt>
      <trkpt lat="47.63762" lon="6.07288">
        <ele>225</ele>
        <time>2012-04-18T08:26:32.000Z</time>
      </trkpt>
      <trkpt lat="47.63766" lon="6.07293">
        <ele>225</ele>
        <time>2012-04-18T08:26:33.000Z</time>
      </trkpt>
      <trkpt lat="47.63778" lon="6.0731">
        <ele>225.39999389648</ele>
        <time>2012-04-18T08:26:37.000Z</time>
      </trkpt>
      <trkpt lat="47.63782" lon="6.07314">
        <ele>225.80000305176</ele>
        <time>2012-04-18T08:26:38.000Z</time>
      </trkpt>
      <trkpt lat="47.63785" lon="6.07317">
        <ele>226.19999694824</ele>
        <time>2012-04-18T08:26:39.000Z</time>
      </trkpt>
      <trkpt lat="47.63789" lon="6.07321">
        <ele>226.60000610352</ele>
        <time>2012-04-18T08:26:40.000Z</time>
      </trkpt>
      <trkpt lat="47.63792" lon="6.07325">
        <ele>227</ele>
        <time>2012-04-18T08:26:41.000Z</time>
      </trkpt>
      <trkpt lat="47.63801" lon="6.07334">
        <ele>227</ele>
        <time>2012-04-18T08:26:44.000Z</time>
      </trkpt>
      <trkpt lat="47.63814" lon="6.0735">
        <ele>227</ele>
        <time>2012-04-18T08:26:49.000Z</time>
      </trkpt>
      <trkpt lat="47.63825" lon="6.07363">
        <ele>227</ele>
        <time>2012-04-18T08:26:53.000Z</time>
      </trkpt>
      <trkpt lat="47.63845" lon="6.07386">
        <ele>227.39999389648</ele>
        <time>2012-04-18T08:27:00.000Z</time>
      </trkpt>
      <trkpt lat="47.63848" lon="6.07388">
        <ele>227.80000305176</ele>
        <time>2012-04-18T08:27:01.000Z</time>
      </trkpt>
      <trkpt lat="47.63851" lon="6.0739">
        <ele>228.60000610352</ele>
        <time>2012-04-18T08:27:02.000Z</time>
      </trkpt>
      <trkpt lat="47.63855" lon="6.07392">
        <ele>229.19999694824</ele>
        <time>2012-04-18T08:27:03.000Z</time>
      </trkpt>
      <trkpt lat="47.6387" lon="6.07402">
        <ele>229.19999694824</ele>
        <time>2012-04-18T08:27:08.000Z</time>
      </trkpt>
      <trkpt lat="47.63896" lon="6.07423">
        <ele>229.19999694824</ele>
        <time>2012-04-18T08:27:17.000Z</time>
      </trkpt>
      <trkpt lat="47.63911" lon="6.07446">
        <ele>229.19999694824</ele>
        <time>2012-04-18T08:27:23.000Z</time>
      </trkpt>
      <trkpt lat="47.63914" lon="6.07451">
        <ele>229.19999694824</ele>
        <time>2012-04-18T08:27:24.000Z</time>
      </trkpt>
      <trkpt lat="47.63926" lon="6.07471">
        <ele>229.19999694824</ele>
        <time>2012-04-18T08:27:28.000Z</time>
      </trkpt>
      <trkpt lat="47.6394" lon="6.07505">
        <ele>229.19999694824</ele>
        <time>2012-04-18T08:27:34.000Z</time>
      </trkpt>
      <trkpt lat="47.63961" lon="6.07551">
        <ele>229.19999694824</ele>
        <time>2012-04-18T08:27:42.000Z</time>
      </trkpt>
      <trkpt lat="47.63976" lon="6.07596">
        <ele>229.19999694824</ele>
        <time>2012-04-18T08:27:49.000Z</time>
      </trkpt>
      <trkpt lat="47.63978" lon="6.07603">
        <ele>229.19999694824</ele>
        <time>2012-04-18T08:27:50.000Z</time>
      </trkpt>
      <trkpt lat="47.63998" lon="6.07662">
        <ele>229.19999694824</ele>
        <time>2012-04-18T08:27:59.000Z</time>
      </trkpt>
      <trkpt lat="47.64012" lon="6.07701">
        <ele>229.19999694824</ele>
        <time>2012-04-18T08:28:06.000Z</time>
      </trkpt>
      <trkpt lat="47.6403" lon="6.07748">
        <ele>229.19999694824</ele>
        <time>2012-04-18T08:28:14.000Z</time>
      </trkpt>
      <trkpt lat="47.64049" lon="6.07798">
        <ele>229.19999694824</ele>
        <time>2012-04-18T08:28:21.000Z</time>
      </trkpt>
      <trkpt lat="47.64074" lon="6.07852">
        <ele>228.60000610352</ele>
        <time>2012-04-18T08:28:27.000Z</time>
      </trkpt>
      <trkpt lat="47.64078" lon="6.0786">
        <ele>228.19999694824</ele>
        <time>2012-04-18T08:28:28.000Z</time>
      </trkpt>
      <trkpt lat="47.64082" lon="6.07869">
        <ele>227.80000305176</ele>
        <time>2012-04-18T08:28:29.000Z</time>
      </trkpt>
      <trkpt lat="47.64087" lon="6.07878">
        <ele>227.39999389648</ele>
        <time>2012-04-18T08:28:30.000Z</time>
      </trkpt>
      <trkpt lat="47.6409" lon="6.07886">
        <ele>227</ele>
        <time>2012-04-18T08:28:31.000Z</time>
      </trkpt>
      <trkpt lat="47.64101" lon="6.07913">
        <ele>227</ele>
        <time>2012-04-18T08:28:34.000Z</time>
      </trkpt>
      <trkpt lat="47.64129" lon="6.07986">
        <ele>227</ele>
        <time>2012-04-18T08:28:42.000Z</time>
      </trkpt>
      <trkpt lat="47.64133" lon="6.07995">
        <ele>227</ele>
        <time>2012-04-18T08:28:43.000Z</time>
      </trkpt>
      <trkpt lat="47.64161" lon="6.08065">
        <ele>227</ele>
        <time>2012-04-18T08:28:51.000Z</time>
      </trkpt>
      <trkpt lat="47.64182" lon="6.08112">
        <ele>227</ele>
        <time>2012-04-18T08:28:57.000Z</time>
      </trkpt>
      <trkpt lat="47.64213" lon="6.08186">
        <ele>227</ele>
        <time>2012-04-18T08:29:07.000Z</time>
      </trkpt>
      <trkpt lat="47.64216" lon="6.08194">
        <ele>227</ele>
        <time>2012-04-18T08:29:08.000Z</time>
      </trkpt>
      <trkpt lat="47.64234" lon="6.08244">
        <ele>227</ele>
        <time>2012-04-18T08:29:15.000Z</time>
      </trkpt>
      <trkpt lat="47.64259" lon="6.08322">
        <ele>227</ele>
        <time>2012-04-18T08:29:25.000Z</time>
      </trkpt>
      <trkpt lat="47.64275" lon="6.08363">
        <ele>226.60000610352</ele>
        <time>2012-04-18T08:29:30.000Z</time>
      </trkpt>
      <trkpt lat="47.64279" lon="6.08371">
        <ele>226.19999694824</ele>
        <time>2012-04-18T08:29:31.000Z</time>
      </trkpt>
      <trkpt lat="47.64282" lon="6.0838">
        <ele>225.60000610352</ele>
        <time>2012-04-18T08:29:32.000Z</time>
      </trkpt>
      <trkpt lat="47.64285" lon="6.08387">
        <ele>225.19999694824</ele>
        <time>2012-04-18T08:29:33.000Z</time>
      </trkpt>
      <trkpt lat="47.64288" lon="6.08394">
        <ele>224.80000305176</ele>
        <time>2012-04-18T08:29:34.000Z</time>
      </trkpt>
      <trkpt lat="47.64298" lon="6.08414">
        <ele>224.80000305176</ele>
        <time>2012-04-18T08:29:37.000Z</time>
      </trkpt>
      <trkpt lat="47.64322" lon="6.08458">
        <ele>224.80000305176</ele>
        <time>2012-04-18T08:29:45.000Z</time>
      </trkpt>
      <trkpt lat="47.64351" lon="6.08503">
        <ele>225.80000305176</ele>
        <time>2012-04-18T08:29:55.000Z</time>
      </trkpt>
      <trkpt lat="47.64354" lon="6.08507">
        <ele>226.19999694824</ele>
        <time>2012-04-18T08:29:56.000Z</time>
      </trkpt>
      <trkpt lat="47.64356" lon="6.08512">
        <ele>226.60000610352</ele>
        <time>2012-04-18T08:29:57.000Z</time>
      </trkpt>
      <trkpt lat="47.64359" lon="6.08515">
        <ele>227</ele>
        <time>2012-04-18T08:29:58.000Z</time>
      </trkpt>
      <trkpt lat="47.64372" lon="6.08539">
        <ele>227</ele>
        <time>2012-04-18T08:30:04.000Z</time>
      </trkpt>
      <trkpt lat="47.64386" lon="6.08568">
        <ele>227</ele>
        <time>2012-04-18T08:30:11.000Z</time>
      </trkpt>
      <trkpt lat="47.64394" lon="6.08585">
        <ele>227.39999389648</ele>
        <time>2012-04-18T08:30:15.000Z</time>
      </trkpt>
      <trkpt lat="47.64396" lon="6.08589">
        <ele>227.80000305176</ele>
        <time>2012-04-18T08:30:16.000Z</time>
      </trkpt>
      <trkpt lat="47.64398" lon="6.08595">
        <ele>228.19999694824</ele>
        <time>2012-04-18T08:30:17.000Z</time>
      </trkpt>
      <trkpt lat="47.644" lon="6.086">
        <ele>228.60000610352</ele>
        <time>2012-04-18T08:30:18.000Z</time>
      </trkpt>
      <trkpt lat="47.64403" lon="6.08605">
        <ele>229</ele>
        <time>2012-04-18T08:30:19.000Z</time>
      </trkpt>
      <trkpt lat="47.64413" lon="6.08631">
        <ele>229</ele>
        <time>2012-04-18T08:30:23.000Z</time>
      </trkpt>
      <trkpt lat="47.64416" lon="6.08638">
        <ele>229</ele>
        <time>2012-04-18T08:30:24.000Z</time>
      </trkpt>
      <trkpt lat="47.64438" lon="6.08693">
        <ele>229</ele>
        <time>2012-04-18T08:30:31.000Z</time>
      </trkpt>
      <trkpt lat="47.64461" lon="6.08753">
        <ele>229</ele>
        <time>2012-04-18T08:30:38.000Z</time>
      </trkpt>
      <trkpt lat="47.64488" lon="6.08819">
        <ele>229</ele>
        <time>2012-04-18T08:30:46.000Z</time>
      </trkpt>
      <trkpt lat="47.64498" lon="6.08845">
        <ele>228.60000610352</ele>
        <time>2012-04-18T08:30:49.000Z</time>
      </trkpt>
      <trkpt lat="47.64502" lon="6.08854">
        <ele>228.19999694824</ele>
        <time>2012-04-18T08:30:50.000Z</time>
      </trkpt>
      <trkpt lat="47.64506" lon="6.08863">
        <ele>227.60000610352</ele>
        <time>2012-04-18T08:30:51.000Z</time>
      </trkpt>
      <trkpt lat="47.64509" lon="6.08871">
        <ele>227.19999694824</ele>
        <time>2012-04-18T08:30:52.000Z</time>
      </trkpt>
      <trkpt lat="47.64513" lon="6.0888">
        <ele>226.80000305176</ele>
        <time>2012-04-18T08:30:53.000Z</time>
      </trkpt>
      <trkpt lat="47.64538" lon="6.08933">
        <ele>226.80000305176</ele>
        <time>2012-04-18T08:30:59.000Z</time>
      </trkpt>
      <trkpt lat="47.64542" lon="6.08941">
        <ele>226.39999389648</ele>
        <time>2012-04-18T08:31:00.000Z</time>
      </trkpt>
      <trkpt lat="47.64547" lon="6.0895">
        <ele>226</ele>
        <time>2012-04-18T08:31:01.000Z</time>
      </trkpt>
      <trkpt lat="47.64552" lon="6.08958">
        <ele>225.60000610352</ele>
        <time>2012-04-18T08:31:02.000Z</time>
      </trkpt>
      <trkpt lat="47.64557" lon="6.08968">
        <ele>225.19999694824</ele>
        <time>2012-04-18T08:31:03.000Z</time>
      </trkpt>
      <trkpt lat="47.64562" lon="6.08976">
        <ele>224.80000305176</ele>
        <time>2012-04-18T08:31:04.000Z</time>
      </trkpt>
      <trkpt lat="47.64571" lon="6.08996">
        <ele>224.80000305176</ele>
        <time>2012-04-18T08:31:06.000Z</time>
      </trkpt>
      <trkpt lat="47.64603" lon="6.09061">
        <ele>224.80000305176</ele>
        <time>2012-04-18T08:31:13.000Z</time>
      </trkpt>
      <trkpt lat="47.64608" lon="6.0907">
        <ele>224.80000305176</ele>
        <time>2012-04-18T08:31:14.000Z</time>
      </trkpt>
      <trkpt lat="47.6464" lon="6.09114">
        <ele>224.80000305176</ele>
        <time>2012-04-18T08:31:20.000Z</time>
      </trkpt>
      <trkpt lat="47.64664" lon="6.09138">
        <ele>224.80000305176</ele>
        <time>2012-04-18T08:31:25.000Z</time>
      </trkpt>
      <trkpt lat="47.64683" lon="6.0915">
        <ele>224.80000305176</ele>
        <time>2012-04-18T08:31:30.000Z</time>
      </trkpt>
      <trkpt lat="47.64708" lon="6.09161">
        <ele>224.80000305176</ele>
        <time>2012-04-18T08:31:37.000Z</time>
      </trkpt>
      <trkpt lat="47.64713" lon="6.09169">
        <ele>224.80000305176</ele>
        <time>2012-04-18T08:31:39.000Z</time>
      </trkpt>
      <trkpt lat="47.64714" lon="6.09176">
        <ele>224.80000305176</ele>
        <time>2012-04-18T08:31:40.000Z</time>
      </trkpt>
      <trkpt lat="47.64708" lon="6.09191">
        <ele>224.80000305176</ele>
        <time>2012-04-18T08:31:42.000Z</time>
      </trkpt>
      <trkpt lat="47.64699" lon="6.09205">
        <ele>224.19999694824</ele>
        <time>2012-04-18T08:31:44.000Z</time>
      </trkpt>
      <trkpt lat="47.64694" lon="6.09211">
        <ele>223.80000305176</ele>
        <time>2012-04-18T08:31:45.000Z</time>
      </trkpt>
      <trkpt lat="47.6469" lon="6.09219">
        <ele>223.19999694824</ele>
        <time>2012-04-18T08:31:46.000Z</time>
      </trkpt>
      <trkpt lat="47.64686" lon="6.09226">
        <ele>222.80000305176</ele>
        <time>2012-04-18T08:31:47.000Z</time>
      </trkpt>
      <trkpt lat="47.64682" lon="6.09234">
        <ele>222.19999694824</ele>
        <time>2012-04-18T08:31:48.000Z</time>
      </trkpt>
      <trkpt lat="47.64679" lon="6.09241">
        <ele>221.80000305176</ele>
        <time>2012-04-18T08:31:49.000Z</time>
      </trkpt>
      <trkpt lat="47.64675" lon="6.09248">
        <ele>221.19999694824</ele>
        <time>2012-04-18T08:31:50.000Z</time>
      </trkpt>
      <trkpt lat="47.64671" lon="6.09255">
        <ele>220.80000305176</ele>
        <time>2012-04-18T08:31:51.000Z</time>
      </trkpt>
      <trkpt lat="47.64668" lon="6.09262">
        <ele>220.19999694824</ele>
        <time>2012-04-18T08:31:52.000Z</time>
      </trkpt>
      <trkpt lat="47.64664" lon="6.09268">
        <ele>220.19999694824</ele>
        <time>2012-04-18T08:31:53.000Z</time>
      </trkpt>
      <trkpt lat="47.64662" lon="6.09274">
        <ele>220.19999694824</ele>
        <time>2012-04-18T08:31:54.000Z</time>
      </trkpt>
      <trkpt lat="47.6465" lon="6.09299">
        <ele>220.19999694824</ele>
        <time>2012-04-18T08:31:58.000Z</time>
      </trkpt>
      <trkpt lat="47.64629" lon="6.09332">
        <ele>220.19999694824</ele>
        <time>2012-04-18T08:32:04.000Z</time>
      </trkpt>
      <trkpt lat="47.64625" lon="6.09335">
        <ele>220.19999694824</ele>
        <time>2012-04-18T08:32:05.000Z</time>
      </trkpt>
      <trkpt lat="47.64622" lon="6.09339">
        <ele>219.80000305176</ele>
        <time>2012-04-18T08:32:06.000Z</time>
      </trkpt>
      <trkpt lat="47.64618" lon="6.09343">
        <ele>219.39999389648</ele>
        <time>2012-04-18T08:32:07.000Z</time>
      </trkpt>
      <trkpt lat="47.64615" lon="6.09347">
        <ele>219</ele>
        <time>2012-04-18T08:32:08.000Z</time>
      </trkpt>
      <trkpt lat="47.64612" lon="6.09351">
        <ele>218.60000610352</ele>
        <time>2012-04-18T08:32:09.000Z</time>
      </trkpt>
      <trkpt lat="47.6461" lon="6.09357">
        <ele>218.19999694824</ele>
        <time>2012-04-18T08:32:10.000Z</time>
      </trkpt>
      <trkpt lat="47.64608" lon="6.09363">
        <ele>218.19999694824</ele>
        <time>2012-04-18T08:32:11.000Z</time>
      </trkpt>
      <trkpt lat="47.64609" lon="6.0939">
        <ele>218.19999694824</ele>
        <time>2012-04-18T08:32:15.000Z</time>
      </trkpt>
      <trkpt lat="47.6461" lon="6.09403">
        <ele>218.60000610352</ele>
        <time>2012-04-18T08:32:17.000Z</time>
      </trkpt>
      <trkpt lat="47.64611" lon="6.0941">
        <ele>219</ele>
        <time>2012-04-18T08:32:18.000Z</time>
      </trkpt>
      <trkpt lat="47.64612" lon="6.09417">
        <ele>219.39999389648</ele>
        <time>2012-04-18T08:32:19.000Z</time>
      </trkpt>
      <trkpt lat="47.64613" lon="6.09424">
        <ele>219.80000305176</ele>
        <time>2012-04-18T08:32:20.000Z</time>
      </trkpt>
      <trkpt lat="47.64615" lon="6.09431">
        <ele>220.19999694824</ele>
        <time>2012-04-18T08:32:21.000Z</time>
      </trkpt>
      <trkpt lat="47.64618" lon="6.09454">
        <ele>220.19999694824</ele>
        <time>2012-04-18T08:32:24.000Z</time>
      </trkpt>
      <trkpt lat="47.64621" lon="6.09503">
        <ele>220.19999694824</ele>
        <time>2012-04-18T08:32:31.000Z</time>
      </trkpt>
      <trkpt lat="47.64616" lon="6.09544">
        <ele>219.80000305176</ele>
        <time>2012-04-18T08:32:37.000Z</time>
      </trkpt>
      <trkpt lat="47.64615" lon="6.0955">
        <ele>219.39999389648</ele>
        <time>2012-04-18T08:32:38.000Z</time>
      </trkpt>
      <trkpt lat="47.64613" lon="6.09557">
        <ele>219</ele>
        <time>2012-04-18T08:32:39.000Z</time>
      </trkpt>
      <trkpt lat="47.64611" lon="6.09564">
        <ele>218.60000610352</ele>
        <time>2012-04-18T08:32:40.000Z</time>
      </trkpt>
      <trkpt lat="47.6461" lon="6.0957">
        <ele>218.19999694824</ele>
        <time>2012-04-18T08:32:41.000Z</time>
      </trkpt>
      <trkpt lat="47.64604" lon="6.09588">
        <ele>218.19999694824</ele>
        <time>2012-04-18T08:32:44.000Z</time>
      </trkpt>
      <trkpt lat="47.64586" lon="6.09641">
        <ele>218.19999694824</ele>
        <time>2012-04-18T08:32:53.000Z</time>
      </trkpt>
      <trkpt lat="47.64566" lon="6.09698">
        <ele>218.19999694824</ele>
        <time>2012-04-18T08:33:03.000Z</time>
      </trkpt>
      <trkpt lat="47.64547" lon="6.09751">
        <ele>218.19999694824</ele>
        <time>2012-04-18T08:33:12.000Z</time>
      </trkpt>
      <trkpt lat="47.64528" lon="6.09807">
        <ele>218.19999694824</ele>
        <time>2012-04-18T08:33:22.000Z</time>
      </trkpt>
      <trkpt lat="47.6452" lon="6.09829">
        <ele>218.19999694824</ele>
        <time>2012-04-18T08:33:26.000Z</time>
      </trkpt>
      <trkpt lat="47.64515" lon="6.09844">
        <ele>218.19999694824</ele>
        <time>2012-04-18T08:33:29.000Z</time>
      </trkpt>
      <trkpt lat="47.64499" lon="6.09889">
        <ele>218.19999694824</ele>
        <time>2012-04-18T08:33:37.000Z</time>
      </trkpt>
      <trkpt lat="47.64495" lon="6.09899">
        <ele>218.19999694824</ele>
        <time>2012-04-18T08:33:39.000Z</time>
      </trkpt>
      <trkpt lat="47.64491" lon="6.09922">
        <ele>218.19999694824</ele>
        <time>2012-04-18T08:33:43.000Z</time>
      </trkpt>
      <trkpt lat="47.6449" lon="6.09934">
        <ele>218.19999694824</ele>
        <time>2012-04-18T08:33:45.000Z</time>
      </trkpt>
      <trkpt lat="47.6449" lon="6.09956">
        <ele>218.19999694824</ele>
        <time>2012-04-18T08:33:49.000Z</time>
      </trkpt>
      <trkpt lat="47.64481" lon="6.09964">
        <ele>218.19999694824</ele>
        <time>2012-04-18T08:33:52.000Z</time>
      </trkpt>
      <trkpt lat="47.64471" lon="6.09958">
        <ele>218.60000610352</ele>
        <time>2012-04-18T08:33:55.000Z</time>
      </trkpt>
      <trkpt lat="47.64467" lon="6.09956">
        <ele>219</ele>
        <time>2012-04-18T08:33:56.000Z</time>
      </trkpt>
      <trkpt lat="47.64464" lon="6.09955">
        <ele>219.39999389648</ele>
        <time>2012-04-18T08:33:57.000Z</time>
      </trkpt>
      <trkpt lat="47.6446" lon="6.09953">
        <ele>219.80000305176</ele>
        <time>2012-04-18T08:33:58.000Z</time>
      </trkpt>
      <trkpt lat="47.64457" lon="6.09952">
        <ele>220.19999694824</ele>
        <time>2012-04-18T08:33:59.000Z</time>
      </trkpt>
      <trkpt lat="47.64442" lon="6.09948">
        <ele>220.19999694824</ele>
        <time>2012-04-18T08:34:04.000Z</time>
      </trkpt>
      <trkpt lat="47.64422" lon="6.09948">
        <ele>220.19999694824</ele>
        <time>2012-04-18T08:34:10.000Z</time>
      </trkpt>
      <trkpt lat="47.64401" lon="6.09948">
        <ele>220.19999694824</ele>
        <time>2012-04-18T08:34:17.000Z</time>
      </trkpt>
      <trkpt lat="47.64387" lon="6.0995">
        <ele>220.19999694824</ele>
        <time>2012-04-18T08:34:23.000Z</time>
      </trkpt>
      <trkpt lat="47.64382" lon="6.0995">
        <ele>220.19999694824</ele>
        <time>2012-04-18T08:34:28.000Z</time>
      </trkpt>
      <trkpt lat="47.64381" lon="6.0995">
        <ele>220.19999694824</ele>
        <time>2012-04-18T08:34:38.000Z</time>
      </trkpt>
      <trkpt lat="47.64377" lon="6.09951">
        <ele>220.19999694824</ele>
        <time>2012-04-18T08:34:41.000Z</time>
      </trkpt>
      <trkpt lat="47.64365" lon="6.09957">
        <ele>220.19999694824</ele>
        <time>2012-04-18T08:34:48.000Z</time>
      </trkpt>
      <trkpt lat="47.64344" lon="6.09971">
        <ele>220.19999694824</ele>
        <time>2012-04-18T08:34:57.000Z</time>
      </trkpt>
      <trkpt lat="47.64326" lon="6.0998">
        <ele>220.19999694824</ele>
        <time>2012-04-18T08:35:04.000Z</time>
      </trkpt>
      <trkpt lat="47.64316" lon="6.09991">
        <ele>220.19999694824</ele>
        <time>2012-04-18T08:35:10.000Z</time>
      </trkpt>
      <trkpt lat="47.64315" lon="6.09993">
        <ele>220.19999694824</ele>
        <time>2012-04-18T08:35:11.000Z</time>
      </trkpt>
      <trkpt lat="47.64306" lon="6.09997">
        <ele>220.19999694824</ele>
        <time>2012-04-18T08:35:15.000Z</time>
      </trkpt>
      <trkpt lat="47.64291" lon="6.10007">
        <ele>220.19999694824</ele>
        <time>2012-04-18T08:35:22.000Z</time>
      </trkpt>
      <trkpt lat="47.64274" lon="6.10018">
        <ele>220.19999694824</ele>
        <time>2012-04-18T08:35:29.000Z</time>
      </trkpt>
      <trkpt lat="47.64253" lon="6.10033">
        <ele>220.19999694824</ele>
        <time>2012-04-18T08:35:37.000Z</time>
      </trkpt>
      <trkpt lat="47.64235" lon="6.10047">
        <ele>220.19999694824</ele>
        <time>2012-04-18T08:35:44.000Z</time>
      </trkpt>
      <trkpt lat="47.64209" lon="6.10066">
        <ele>220.19999694824</ele>
        <time>2012-04-18T08:35:54.000Z</time>
      </trkpt>
      <trkpt lat="47.64196" lon="6.10075">
        <ele>220.19999694824</ele>
        <time>2012-04-18T08:35:59.000Z</time>
      </trkpt>
      <trkpt lat="47.64165" lon="6.10098">
        <ele>220.19999694824</ele>
        <time>2012-04-18T08:36:09.000Z</time>
      </trkpt>
      <trkpt lat="47.64138" lon="6.10118">
        <ele>220.19999694824</ele>
        <time>2012-04-18T08:36:17.000Z</time>
      </trkpt>
      <trkpt lat="47.64112" lon="6.10138">
        <ele>220.19999694824</ele>
        <time>2012-04-18T08:36:25.000Z</time>
      </trkpt>
      <trkpt lat="47.64093" lon="6.10151">
        <ele>220.19999694824</ele>
        <time>2012-04-18T08:36:31.000Z</time>
      </trkpt>
      <trkpt lat="47.64069" lon="6.10169">
        <ele>220.19999694824</ele>
        <time>2012-04-18T08:36:39.000Z</time>
      </trkpt>
      <trkpt lat="47.64043" lon="6.10188">
        <ele>220.19999694824</ele>
        <time>2012-04-18T08:36:48.000Z</time>
      </trkpt>
      <trkpt lat="47.64019" lon="6.10205">
        <ele>220.19999694824</ele>
        <time>2012-04-18T08:36:56.000Z</time>
      </trkpt>
      <trkpt lat="47.63994" lon="6.10223">
        <ele>220.19999694824</ele>
        <time>2012-04-18T08:37:05.000Z</time>
      </trkpt>
      <trkpt lat="47.6397" lon="6.1024">
        <ele>220.19999694824</ele>
        <time>2012-04-18T08:37:14.000Z</time>
      </trkpt>
      <trkpt lat="47.63964" lon="6.10245">
        <ele>220.60000610352</ele>
        <time>2012-04-18T08:37:16.000Z</time>
      </trkpt>
      <trkpt lat="47.63961" lon="6.10247">
        <ele>221</ele>
        <time>2012-04-18T08:37:17.000Z</time>
      </trkpt>
      <trkpt lat="47.63958" lon="6.10249">
        <ele>221.39999389648</ele>
        <time>2012-04-18T08:37:18.000Z</time>
      </trkpt>
      <trkpt lat="47.63955" lon="6.10251">
        <ele>221.80000305176</ele>
        <time>2012-04-18T08:37:19.000Z</time>
      </trkpt>
      <trkpt lat="47.63953" lon="6.10253">
        <ele>222.19999694824</ele>
        <time>2012-04-18T08:37:20.000Z</time>
      </trkpt>
      <trkpt lat="47.63944" lon="6.10259">
        <ele>222.19999694824</ele>
        <time>2012-04-18T08:37:23.000Z</time>
      </trkpt>
      <trkpt lat="47.63919" lon="6.10277">
        <ele>222.19999694824</ele>
        <time>2012-04-18T08:37:32.000Z</time>
      </trkpt>
      <trkpt lat="47.639" lon="6.10295">
        <ele>222.19999694824</ele>
        <time>2012-04-18T08:37:39.000Z</time>
      </trkpt>
      <trkpt lat="47.63889" lon="6.10326">
        <ele>222.19999694824</ele>
        <time>2012-04-18T08:37:46.000Z</time>
      </trkpt>
      <trkpt lat="47.6388" lon="6.10371">
        <ele>222.19999694824</ele>
        <time>2012-04-18T08:37:54.000Z</time>
      </trkpt>
      <trkpt lat="47.63877" lon="6.10388">
        <ele>222.19999694824</ele>
        <time>2012-04-18T08:37:57.000Z</time>
      </trkpt>
      <trkpt lat="47.63873" lon="6.1041">
        <ele>222.19999694824</ele>
        <time>2012-04-18T08:38:01.000Z</time>
      </trkpt>
      <trkpt lat="47.63864" lon="6.10462">
        <ele>222.19999694824</ele>
        <time>2012-04-18T08:38:10.000Z</time>
      </trkpt>
      <trkpt lat="47.63863" lon="6.10468">
        <ele>222.60000610352</ele>
        <time>2012-04-18T08:38:11.000Z</time>
      </trkpt>
      <trkpt lat="47.63862" lon="6.10474">
        <ele>223.19999694824</ele>
        <time>2012-04-18T08:38:12.000Z</time>
      </trkpt>
      <trkpt lat="47.63862" lon="6.1048">
        <ele>223.60000610352</ele>
        <time>2012-04-18T08:38:13.000Z</time>
      </trkpt>
      <trkpt lat="47.63861" lon="6.10486">
        <ele>224</ele>
        <time>2012-04-18T08:38:14.000Z</time>
      </trkpt>
      <trkpt lat="47.6386" lon="6.10492">
        <ele>224.39999389648</ele>
        <time>2012-04-18T08:38:15.000Z</time>
      </trkpt>
      <trkpt lat="47.63857" lon="6.10502">
        <ele>224.39999389648</ele>
        <time>2012-04-18T08:38:17.000Z</time>
      </trkpt>
      <trkpt lat="47.63854" lon="6.10521">
        <ele>224.39999389648</ele>
        <time>2012-04-18T08:38:21.000Z</time>
      </trkpt>
      <trkpt lat="47.63856" lon="6.10526">
        <ele>224.39999389648</ele>
        <time>2012-04-18T08:38:22.000Z</time>
      </trkpt>
      <trkpt lat="47.63865" lon="6.10534">
        <ele>224.39999389648</ele>
        <time>2012-04-18T08:38:25.000Z</time>
      </trkpt>
      <trkpt lat="47.63889" lon="6.10551">
        <ele>224.39999389648</ele>
        <time>2012-04-18T08:38:33.000Z</time>
      </trkpt>
      <trkpt lat="47.63907" lon="6.10568">
        <ele>224.39999389648</ele>
        <time>2012-04-18T08:38:40.000Z</time>
      </trkpt>
      <trkpt lat="47.63921" lon="6.10586">
        <ele>224.39999389648</ele>
        <time>2012-04-18T08:38:46.000Z</time>
      </trkpt>
      <trkpt lat="47.63933" lon="6.10609">
        <ele>224.39999389648</ele>
        <time>2012-04-18T08:38:52.000Z</time>
      </trkpt>
      <trkpt lat="47.63936" lon="6.10642">
        <ele>224.39999389648</ele>
        <time>2012-04-18T08:38:58.000Z</time>
      </trkpt>
      <trkpt lat="47.63937" lon="6.10669">
        <ele>224.39999389648</ele>
        <time>2012-04-18T08:39:02.000Z</time>
      </trkpt>
      <trkpt lat="47.63939" lon="6.10685">
        <ele>224.39999389648</ele>
        <time>2012-04-18T08:39:04.000Z</time>
      </trkpt>
      <trkpt lat="47.6394" lon="6.10694">
        <ele>224</ele>
        <time>2012-04-18T08:39:05.000Z</time>
      </trkpt>
      <trkpt lat="47.63941" lon="6.10702">
        <ele>223.60000610352</ele>
        <time>2012-04-18T08:39:06.000Z</time>
      </trkpt>
      <trkpt lat="47.63941" lon="6.10711">
        <ele>223.19999694824</ele>
        <time>2012-04-18T08:39:07.000Z</time>
      </trkpt>
      <trkpt lat="47.63942" lon="6.1072">
        <ele>222.80000305176</ele>
        <time>2012-04-18T08:39:08.000Z</time>
      </trkpt>
      <trkpt lat="47.63942" lon="6.10729">
        <ele>222.39999389648</ele>
        <time>2012-04-18T08:39:09.000Z</time>
      </trkpt>
      <trkpt lat="47.63943" lon="6.10738">
        <ele>222.39999389648</ele>
        <time>2012-04-18T08:39:10.000Z</time>
      </trkpt>
      <trkpt lat="47.63943" lon="6.10756">
        <ele>222.39999389648</ele>
        <time>2012-04-18T08:39:12.000Z</time>
      </trkpt>
      <trkpt lat="47.63943" lon="6.10765">
        <ele>222</ele>
        <time>2012-04-18T08:39:13.000Z</time>
      </trkpt>
      <trkpt lat="47.63942" lon="6.10773">
        <ele>221.60000610352</ele>
        <time>2012-04-18T08:39:14.000Z</time>
      </trkpt>
      <trkpt lat="47.6394" lon="6.1078">
        <ele>221.19999694824</ele>
        <time>2012-04-18T08:39:15.000Z</time>
      </trkpt>
      <trkpt lat="47.63939" lon="6.10787">
        <ele>220.80000305176</ele>
        <time>2012-04-18T08:39:16.000Z</time>
      </trkpt>
      <trkpt lat="47.63937" lon="6.10792">
        <ele>220.39999389648</ele>
        <time>2012-04-18T08:39:17.000Z</time>
      </trkpt>
      <trkpt lat="47.63932" lon="6.10802">
        <ele>220.39999389648</ele>
        <time>2012-04-18T08:39:19.000Z</time>
      </trkpt>
      <trkpt lat="47.63932" lon="6.10817">
        <ele>220.39999389648</ele>
        <time>2012-04-18T08:39:22.000Z</time>
      </trkpt>
      <trkpt lat="47.63933" lon="6.10822">
        <ele>220.39999389648</ele>
        <time>2012-04-18T08:39:23.000Z</time>
      </trkpt>
      <trkpt lat="47.63942" lon="6.1086">
        <ele>220.39999389648</ele>
        <time>2012-04-18T08:39:30.000Z</time>
      </trkpt>
      <trkpt lat="47.63947" lon="6.10897">
        <ele>220.39999389648</ele>
        <time>2012-04-18T08:39:36.000Z</time>
      </trkpt>
      <trkpt lat="47.63947" lon="6.10903">
        <ele>220.39999389648</ele>
        <time>2012-04-18T08:39:37.000Z</time>
      </trkpt>
      <trkpt lat="47.6394" lon="6.10932">
        <ele>220.39999389648</ele>
        <time>2012-04-18T08:39:42.000Z</time>
      </trkpt>
      <trkpt lat="47.63927" lon="6.10976">
        <ele>220.39999389648</ele>
        <time>2012-04-18T08:39:50.000Z</time>
      </trkpt>
      <trkpt lat="47.63917" lon="6.1102">
        <ele>220.39999389648</ele>
        <time>2012-04-18T08:39:58.000Z</time>
      </trkpt>
      <trkpt lat="47.63912" lon="6.11054">
        <ele>220.39999389648</ele>
        <time>2012-04-18T08:40:04.000Z</time>
      </trkpt>
      <trkpt lat="47.63909" lon="6.11102">
        <ele>220.39999389648</ele>
        <time>2012-04-18T08:40:12.000Z</time>
      </trkpt>
      <trkpt lat="47.6391" lon="6.11136">
        <ele>220.39999389648</ele>
        <time>2012-04-18T08:40:18.000Z</time>
      </trkpt>
      <trkpt lat="47.63911" lon="6.1117">
        <ele>220.39999389648</ele>
        <time>2012-04-18T08:40:24.000Z</time>
      </trkpt>
      <trkpt lat="47.63912" lon="6.11208">
        <ele>220.39999389648</ele>
        <time>2012-04-18T08:40:31.000Z</time>
      </trkpt>
      <trkpt lat="47.63916" lon="6.11237">
        <ele>220.39999389648</ele>
        <time>2012-04-18T08:40:37.000Z</time>
      </trkpt>
      <trkpt lat="47.63919" lon="6.11268">
        <ele>220.39999389648</ele>
        <time>2012-04-18T08:40:43.000Z</time>
      </trkpt>
      <trkpt lat="47.63923" lon="6.113">
        <ele>220.39999389648</ele>
        <time>2012-04-18T08:40:49.000Z</time>
      </trkpt>
      <trkpt lat="47.63922" lon="6.11334">
        <ele>220.39999389648</ele>
        <time>2012-04-18T08:40:55.000Z</time>
      </trkpt>
      <trkpt lat="47.63916" lon="6.11367">
        <ele>220.39999389648</ele>
        <time>2012-04-18T08:41:01.000Z</time>
      </trkpt>
      <trkpt lat="47.63904" lon="6.11402">
        <ele>220.39999389648</ele>
        <time>2012-04-18T08:41:08.000Z</time>
      </trkpt>
      <trkpt lat="47.63893" lon="6.11433">
        <ele>220.39999389648</ele>
        <time>2012-04-18T08:41:14.000Z</time>
      </trkpt>
      <trkpt lat="47.63877" lon="6.11461">
        <ele>220.39999389648</ele>
        <time>2012-04-18T08:41:21.000Z</time>
      </trkpt>
      <trkpt lat="47.63862" lon="6.1148">
        <ele>220.39999389648</ele>
        <time>2012-04-18T08:41:27.000Z</time>
      </trkpt>
      <trkpt lat="47.63848" lon="6.11494">
        <ele>220.39999389648</ele>
        <time>2012-04-18T08:41:32.000Z</time>
      </trkpt>
      <trkpt lat="47.63834" lon="6.11513">
        <ele>220.39999389648</ele>
        <time>2012-04-18T08:41:38.000Z</time>
      </trkpt>
      <trkpt lat="47.63824" lon="6.11522">
        <ele>220.39999389648</ele>
        <time>2012-04-18T08:41:44.000Z</time>
      </trkpt>
      <trkpt lat="47.63823" lon="6.11522">
        <ele>220.39999389648</ele>
        <time>2012-04-18T08:41:46.000Z</time>
      </trkpt>
      <trkpt lat="47.63822" lon="6.11523">
        <ele>220.39999389648</ele>
        <time>2012-04-18T08:41:52.000Z</time>
      </trkpt>
      <trkpt lat="47.63822" lon="6.11523">
        <ele>220.39999389648</ele>
        <time>2012-04-18T08:41:53.000Z</time>
      </trkpt>
      <trkpt lat="47.63821" lon="6.11523">
        <ele>220.39999389648</ele>
        <time>2012-04-18T08:41:56.000Z</time>
      </trkpt>
      <trkpt lat="47.63823" lon="6.11526">
        <ele>222</ele>
        <time>2012-04-18T08:42:16.000Z</time>
      </trkpt>
      <trkpt lat="47.63825" lon="6.11526">
        <ele>222</ele>
        <time>2012-04-18T08:42:19.000Z</time>
      </trkpt>
      <trkpt lat="47.63825" lon="6.11526">
        <ele>222</ele>
        <time>2012-04-18T08:42:53.000Z</time>
      </trkpt>
      <trkpt lat="47.63826" lon="6.11527">
        <ele>222</ele>
        <time>2012-04-18T08:42:54.000Z</time>
      </trkpt>
      <trkpt lat="47.63826" lon="6.11528">
        <ele>222</ele>
        <time>2012-04-18T08:42:55.000Z</time>
      </trkpt>
      <trkpt lat="47.63826" lon="6.11528">
        <ele>222</ele>
        <time>2012-04-18T08:42:56.000Z</time>
      </trkpt>
      <trkpt lat="47.63826" lon="6.11528">
        <ele>222</ele>
        <time>2012-04-18T08:44:24.000Z</time>
      </trkpt>
      <trkpt lat="47.63826" lon="6.11528">
        <ele>222</ele>
        <time>2012-04-18T08:44:25.000Z</time>
      </trkpt>
      <trkpt lat="47.63826" lon="6.11528">
        <ele>222</ele>
        <time>2012-04-18T08:44:29.000Z</time>
      </trkpt>
      <trkpt lat="47.63826" lon="6.11528">
        <ele>222</ele>
        <time>2012-04-18T08:44:30.000Z</time>
      </trkpt>
      <trkpt lat="47.63825" lon="6.11528">
        <ele>222</ele>
        <time>2012-04-18T08:44:31.000Z</time>
      </trkpt>
      <trkpt lat="47.63824" lon="6.11528">
        <ele>222</ele>
        <time>2012-04-18T08:44:34.000Z</time>
      </trkpt>
      <trkpt lat="47.63823" lon="6.11529">
        <ele>219.80000305176</ele>
        <time>2012-04-18T08:44:55.000Z</time>
      </trkpt>
      <trkpt lat="47.63823" lon="6.11528">
        <ele>219.80000305176</ele>
        <time>2012-04-18T08:44:57.000Z</time>
      </trkpt>
      <trkpt lat="47.63822" lon="6.11527">
        <ele>219.80000305176</ele>
        <time>2012-04-18T08:44:59.000Z</time>
      </trkpt>
      <trkpt lat="47.63822" lon="6.11527">
        <ele>222</ele>
        <time>2012-04-18T08:46:24.000Z</time>
      </trkpt>
      <trkpt lat="47.63823" lon="6.11527">
        <ele>222</ele>
        <time>2012-04-18T08:46:25.000Z</time>
      </trkpt>
      <trkpt lat="47.63823" lon="6.11527">
        <ele>222</ele>
        <time>2012-04-18T08:46:31.000Z</time>
      </trkpt>
      <trkpt lat="47.63825" lon="6.11533">
        <ele>222</ele>
        <time>2012-04-18T08:46:34.000Z</time>
      </trkpt>
      <trkpt lat="47.63831" lon="6.11552">
        <ele>222</ele>
        <time>2012-04-18T08:46:39.000Z</time>
      </trkpt>
      <trkpt lat="47.63844" lon="6.11583">
        <ele>222</ele>
        <time>2012-04-18T08:46:47.000Z</time>
      </trkpt>
      <trkpt lat="47.63853" lon="6.11605">
        <ele>222</ele>
        <time>2012-04-18T08:46:53.000Z</time>
      </trkpt>
      <trkpt lat="47.63865" lon="6.11636">
        <ele>222</ele>
        <time>2012-04-18T08:46:59.000Z</time>
      </trkpt>
      <trkpt lat="47.6388" lon="6.11676">
        <ele>222</ele>
        <time>2012-04-18T08:47:06.000Z</time>
      </trkpt>
      <trkpt lat="47.63902" lon="6.11727">
        <ele>222</ele>
        <time>2012-04-18T08:47:15.000Z</time>
      </trkpt>
      <trkpt lat="47.6392" lon="6.11763">
        <ele>222</ele>
        <time>2012-04-18T08:47:22.000Z</time>
      </trkpt>
      <trkpt lat="47.63932" lon="6.11786">
        <ele>222</ele>
        <time>2012-04-18T08:47:28.000Z</time>
      </trkpt>
      <trkpt lat="47.63941" lon="6.11807">
        <ele>222</ele>
        <time>2012-04-18T08:47:34.000Z</time>
      </trkpt>
      <trkpt lat="47.6395" lon="6.11829">
        <ele>222</ele>
        <time>2012-04-18T08:47:40.000Z</time>
      </trkpt>
      <trkpt lat="47.63959" lon="6.11848">
        <ele>222</ele>
        <time>2012-04-18T08:47:46.000Z</time>
      </trkpt>
      <trkpt lat="47.63966" lon="6.11877">
        <ele>222</ele>
        <time>2012-04-18T08:47:53.000Z</time>
      </trkpt>
      <trkpt lat="47.63979" lon="6.1192">
        <ele>222</ele>
        <time>2012-04-18T08:48:01.000Z</time>
      </trkpt>
      <trkpt lat="47.63984" lon="6.11947">
        <ele>222</ele>
        <time>2012-04-18T08:48:05.000Z</time>
      </trkpt>
      <trkpt lat="47.63985" lon="6.1196">
        <ele>222</ele>
        <time>2012-04-18T08:48:07.000Z</time>
      </trkpt>
      <trkpt lat="47.63986" lon="6.11974">
        <ele>222</ele>
        <time>2012-04-18T08:48:09.000Z</time>
      </trkpt>
      <trkpt lat="47.63986" lon="6.12">
        <ele>222</ele>
        <time>2012-04-18T08:48:13.000Z</time>
      </trkpt>
      <trkpt lat="47.63981" lon="6.12051">
        <ele>222</ele>
        <time>2012-04-18T08:48:21.000Z</time>
      </trkpt>
      <trkpt lat="47.63976" lon="6.12075">
        <ele>222</ele>
        <time>2012-04-18T08:48:25.000Z</time>
      </trkpt>
      <trkpt lat="47.63971" lon="6.12092">
        <ele>222</ele>
        <time>2012-04-18T08:48:28.000Z</time>
      </trkpt>
      <trkpt lat="47.63966" lon="6.12109">
        <ele>222</ele>
        <time>2012-04-18T08:48:31.000Z</time>
      </trkpt>
      <trkpt lat="47.6396" lon="6.12124">
        <ele>222</ele>
        <time>2012-04-18T08:48:34.000Z</time>
      </trkpt>
      <trkpt lat="47.63941" lon="6.12165">
        <ele>222</ele>
        <time>2012-04-18T08:48:43.000Z</time>
      </trkpt>
      <trkpt lat="47.63922" lon="6.12193">
        <ele>221.60000610352</ele>
        <time>2012-04-18T08:48:50.000Z</time>
      </trkpt>
      <trkpt lat="47.63919" lon="6.12196">
        <ele>221.19999694824</ele>
        <time>2012-04-18T08:48:51.000Z</time>
      </trkpt>
      <trkpt lat="47.63916" lon="6.122">
        <ele>220.80000305176</ele>
        <time>2012-04-18T08:48:52.000Z</time>
      </trkpt>
      <trkpt lat="47.63913" lon="6.12204">
        <ele>220.39999389648</ele>
        <time>2012-04-18T08:48:53.000Z</time>
      </trkpt>
      <trkpt lat="47.6391" lon="6.12207">
        <ele>220</ele>
        <time>2012-04-18T08:48:54.000Z</time>
      </trkpt>
      <trkpt lat="47.639" lon="6.12217">
        <ele>220</ele>
        <time>2012-04-18T08:48:57.000Z</time>
      </trkpt>
      <trkpt lat="47.6388" lon="6.1223">
        <ele>220</ele>
        <time>2012-04-18T08:49:03.000Z</time>
      </trkpt>
      <trkpt lat="47.63855" lon="6.12243">
        <ele>220</ele>
        <time>2012-04-18T08:49:10.000Z</time>
      </trkpt>
      <trkpt lat="47.63835" lon="6.12252">
        <ele>220</ele>
        <time>2012-04-18T08:49:16.000Z</time>
      </trkpt>
      <trkpt lat="47.63811" lon="6.12259">
        <ele>220</ele>
        <time>2012-04-18T08:49:23.000Z</time>
      </trkpt>
      <trkpt lat="47.63786" lon="6.12267">
        <ele>220</ele>
        <time>2012-04-18T08:49:30.000Z</time>
      </trkpt>
      <trkpt lat="47.6378" lon="6.12271">
        <ele>220</ele>
        <time>2012-04-18T08:49:32.000Z</time>
      </trkpt>
      <trkpt lat="47.63756" lon="6.12276">
        <ele>220</ele>
        <time>2012-04-18T08:49:38.000Z</time>
      </trkpt>
      <trkpt lat="47.63728" lon="6.12281">
        <ele>220</ele>
        <time>2012-04-18T08:49:45.000Z</time>
      </trkpt>
      <trkpt lat="47.63696" lon="6.12283">
        <ele>220</ele>
        <time>2012-04-18T08:49:53.000Z</time>
      </trkpt>
      <trkpt lat="47.63674" lon="6.12282">
        <ele>220</ele>
        <time>2012-04-18T08:49:59.000Z</time>
      </trkpt>
      <trkpt lat="47.63654" lon="6.12281">
        <ele>220</ele>
        <time>2012-04-18T08:50:05.000Z</time>
      </trkpt>
      <trkpt lat="47.6363" lon="6.1228">
        <ele>220</ele>
        <time>2012-04-18T08:50:12.000Z</time>
      </trkpt>
      <trkpt lat="47.63609" lon="6.12283">
        <ele>220</ele>
        <time>2012-04-18T08:50:18.000Z</time>
      </trkpt>
      <trkpt lat="47.63588" lon="6.12289">
        <ele>220</ele>
        <time>2012-04-18T08:50:24.000Z</time>
      </trkpt>
      <trkpt lat="47.63558" lon="6.12305">
        <ele>220</ele>
        <time>2012-04-18T08:50:32.000Z</time>
      </trkpt>
      <trkpt lat="47.63533" lon="6.12321">
        <ele>220</ele>
        <time>2012-04-18T08:50:39.000Z</time>
      </trkpt>
      <trkpt lat="47.6351" lon="6.12326">
        <ele>220</ele>
        <time>2012-04-18T08:50:45.000Z</time>
      </trkpt>
      <trkpt lat="47.63485" lon="6.12331">
        <ele>220</ele>
        <time>2012-04-18T08:50:51.000Z</time>
      </trkpt>
      <trkpt lat="47.63458" lon="6.1233">
        <ele>220</ele>
        <time>2012-04-18T08:50:56.000Z</time>
      </trkpt>
      <trkpt lat="47.63428" lon="6.12331">
        <ele>220</ele>
        <time>2012-04-18T08:51:01.000Z</time>
      </trkpt>
      <trkpt lat="47.63395" lon="6.12336">
        <ele>220</ele>
        <time>2012-04-18T08:51:07.000Z</time>
      </trkpt>
      <trkpt lat="47.63367" lon="6.1234">
        <ele>220</ele>
        <time>2012-04-18T08:51:12.000Z</time>
      </trkpt>
      <trkpt lat="47.63356" lon="6.12341">
        <ele>220</ele>
        <time>2012-04-18T08:51:14.000Z</time>
      </trkpt>
      <trkpt lat="47.63335" lon="6.12349">
        <ele>220</ele>
        <time>2012-04-18T08:51:18.000Z</time>
      </trkpt>
      <trkpt lat="47.63325" lon="6.12354">
        <ele>220</ele>
        <time>2012-04-18T08:51:20.000Z</time>
      </trkpt>
      <trkpt lat="47.63311" lon="6.12363">
        <ele>220</ele>
        <time>2012-04-18T08:51:23.000Z</time>
      </trkpt>
      <trkpt lat="47.63304" lon="6.12372">
        <ele>220</ele>
        <time>2012-04-18T08:51:25.000Z</time>
      </trkpt>
      <trkpt lat="47.63298" lon="6.12383">
        <ele>220</ele>
        <time>2012-04-18T08:51:27.000Z</time>
      </trkpt>
      <trkpt lat="47.63288" lon="6.12406">
        <ele>220</ele>
        <time>2012-04-18T08:51:31.000Z</time>
      </trkpt>
      <trkpt lat="47.63281" lon="6.12422">
        <ele>220</ele>
        <time>2012-04-18T08:51:34.000Z</time>
      </trkpt>
      <trkpt lat="47.63278" lon="6.12429">
        <ele>220</ele>
        <time>2012-04-18T08:51:35.000Z</time>
      </trkpt>
      <trkpt lat="47.63272" lon="6.12448">
        <ele>220</ele>
        <time>2012-04-18T08:51:38.000Z</time>
      </trkpt>
      <trkpt lat="47.63266" lon="6.12469">
        <ele>220</ele>
        <time>2012-04-18T08:51:41.000Z</time>
      </trkpt>
      <trkpt lat="47.63257" lon="6.12517">
        <ele>220</ele>
        <time>2012-04-18T08:51:48.000Z</time>
      </trkpt>
      <trkpt lat="47.63251" lon="6.12563">
        <ele>220</ele>
        <time>2012-04-18T08:51:55.000Z</time>
      </trkpt>
      <trkpt lat="47.63247" lon="6.12602">
        <ele>220</ele>
        <time>2012-04-18T08:52:02.000Z</time>
      </trkpt>
      <trkpt lat="47.63243" lon="6.12628">
        <ele>220</ele>
        <time>2012-04-18T08:52:07.000Z</time>
      </trkpt>
      <trkpt lat="47.63235" lon="6.12659">
        <ele>220</ele>
        <time>2012-04-18T08:52:13.000Z</time>
      </trkpt>
      <trkpt lat="47.63221" lon="6.1269">
        <ele>220</ele>
        <time>2012-04-18T08:52:20.000Z</time>
      </trkpt>
      <trkpt lat="47.63206" lon="6.12715">
        <ele>220</ele>
        <time>2012-04-18T08:52:26.000Z</time>
      </trkpt>
      <trkpt lat="47.63191" lon="6.12738">
        <ele>220</ele>
        <time>2012-04-18T08:52:32.000Z</time>
      </trkpt>
      <trkpt lat="47.63179" lon="6.12761">
        <ele>220</ele>
        <time>2012-04-18T08:52:38.000Z</time>
      </trkpt>
      <trkpt lat="47.63177" lon="6.12789">
        <ele>220</ele>
        <time>2012-04-18T08:52:43.000Z</time>
      </trkpt>
      <trkpt lat="47.63182" lon="6.12822">
        <ele>220</ele>
        <time>2012-04-18T08:52:49.000Z</time>
      </trkpt>
      <trkpt lat="47.63194" lon="6.1285">
        <ele>220</ele>
        <time>2012-04-18T08:52:55.000Z</time>
      </trkpt>
      <trkpt lat="47.63211" lon="6.12867">
        <ele>220</ele>
        <time>2012-04-18T08:53:00.000Z</time>
      </trkpt>
      <trkpt lat="47.63225" lon="6.12877">
        <ele>220</ele>
        <time>2012-04-18T08:53:04.000Z</time>
      </trkpt>
      <trkpt lat="47.63235" lon="6.12883">
        <ele>220</ele>
        <time>2012-04-18T08:53:07.000Z</time>
      </trkpt>
      <trkpt lat="47.63245" lon="6.12898">
        <ele>220</ele>
        <time>2012-04-18T08:53:11.000Z</time>
      </trkpt>
      <trkpt lat="47.6325" lon="6.12923">
        <ele>220</ele>
        <time>2012-04-18T08:53:16.000Z</time>
      </trkpt>
      <trkpt lat="47.63249" lon="6.12956">
        <ele>220</ele>
        <time>2012-04-18T08:53:22.000Z</time>
      </trkpt>
      <trkpt lat="47.63243" lon="6.12991">
        <ele>220</ele>
        <time>2012-04-18T08:53:28.000Z</time>
      </trkpt>
      <trkpt lat="47.63228" lon="6.1301">
        <ele>220</ele>
        <time>2012-04-18T08:53:33.000Z</time>
      </trkpt>
      <trkpt lat="47.63225" lon="6.13014">
        <ele>220</ele>
        <time>2012-04-18T08:53:34.000Z</time>
      </trkpt>
      <trkpt lat="47.63218" lon="6.13027">
        <ele>220</ele>
        <time>2012-04-18T08:53:37.000Z</time>
      </trkpt>
      <trkpt lat="47.63217" lon="6.13037">
        <ele>220</ele>
        <time>2012-04-18T08:53:39.000Z</time>
      </trkpt>
      <trkpt lat="47.63219" lon="6.13049">
        <ele>220</ele>
        <time>2012-04-18T08:53:41.000Z</time>
      </trkpt>
      <trkpt lat="47.63228" lon="6.1307">
        <ele>220</ele>
        <time>2012-04-18T08:53:47.000Z</time>
      </trkpt>
      <trkpt lat="47.63236" lon="6.13066">
        <ele>220</ele>
        <time>2012-04-18T08:53:50.000Z</time>
      </trkpt>
      <trkpt lat="47.63238" lon="6.13064">
        <ele>220.39999389648</ele>
        <time>2012-04-18T08:53:51.000Z</time>
      </trkpt>
      <trkpt lat="47.63241" lon="6.13062">
        <ele>220.80000305176</ele>
        <time>2012-04-18T08:53:52.000Z</time>
      </trkpt>
      <trkpt lat="47.63244" lon="6.13059">
        <ele>221.60000610352</ele>
        <time>2012-04-18T08:53:53.000Z</time>
      </trkpt>
      <trkpt lat="47.63247" lon="6.13057">
        <ele>222</ele>
        <time>2012-04-18T08:53:54.000Z</time>
      </trkpt>
      <trkpt lat="47.63257" lon="6.13052">
        <ele>222</ele>
        <time>2012-04-18T08:53:57.000Z</time>
      </trkpt>
      <trkpt lat="47.63274" lon="6.13058">
        <ele>222</ele>
        <time>2012-04-18T08:54:02.000Z</time>
      </trkpt>
      <trkpt lat="47.63282" lon="6.13074">
        <ele>222</ele>
        <time>2012-04-18T08:54:06.000Z</time>
      </trkpt>
      <trkpt lat="47.63293" lon="6.13106">
        <ele>222</ele>
        <time>2012-04-18T08:54:14.000Z</time>
      </trkpt>
      <trkpt lat="47.63298" lon="6.13112">
        <ele>222</ele>
        <time>2012-04-18T08:54:16.000Z</time>
      </trkpt>
      <trkpt lat="47.63301" lon="6.13111">
        <ele>222</ele>
        <time>2012-04-18T08:54:17.000Z</time>
      </trkpt>
      <trkpt lat="47.63317" lon="6.13097">
        <ele>222</ele>
        <time>2012-04-18T08:54:22.000Z</time>
      </trkpt>
      <trkpt lat="47.63342" lon="6.13076">
        <ele>222</ele>
        <time>2012-04-18T08:54:29.000Z</time>
      </trkpt>
      <trkpt lat="47.63358" lon="6.13066">
        <ele>221.60000610352</ele>
        <time>2012-04-18T08:54:34.000Z</time>
      </trkpt>
      <trkpt lat="47.6336" lon="6.13064">
        <ele>221</ele>
        <time>2012-04-18T08:54:35.000Z</time>
      </trkpt>
      <trkpt lat="47.63363" lon="6.13063">
        <ele>220.60000610352</ele>
        <time>2012-04-18T08:54:36.000Z</time>
      </trkpt>
      <trkpt lat="47.63366" lon="6.13061">
        <ele>220.19999694824</ele>
        <time>2012-04-18T08:54:37.000Z</time>
      </trkpt>
      <trkpt lat="47.63369" lon="6.13059">
        <ele>219.80000305176</ele>
        <time>2012-04-18T08:54:38.000Z</time>
      </trkpt>
      <trkpt lat="47.63375" lon="6.13056">
        <ele>219.80000305176</ele>
        <time>2012-04-18T08:54:40.000Z</time>
      </trkpt>
      <trkpt lat="47.6339" lon="6.13047">
        <ele>219.80000305176</ele>
        <time>2012-04-18T08:54:45.000Z</time>
      </trkpt>
      <trkpt lat="47.63404" lon="6.13041">
        <ele>219.80000305176</ele>
        <time>2012-04-18T08:54:50.000Z</time>
      </trkpt>
      <trkpt lat="47.63432" lon="6.13037">
        <ele>219.80000305176</ele>
        <time>2012-04-18T08:54:58.000Z</time>
      </trkpt>
      <trkpt lat="47.63458" lon="6.13027">
        <ele>219.80000305176</ele>
        <time>2012-04-18T08:55:05.000Z</time>
      </trkpt>
      <trkpt lat="47.63488" lon="6.13006">
        <ele>219.80000305176</ele>
        <time>2012-04-18T08:55:13.000Z</time>
      </trkpt>
      <trkpt lat="47.63515" lon="6.1298">
        <ele>219.80000305176</ele>
        <time>2012-04-18T08:55:21.000Z</time>
      </trkpt>
      <trkpt lat="47.63532" lon="6.12962">
        <ele>219.80000305176</ele>
        <time>2012-04-18T08:55:26.000Z</time>
      </trkpt>
      <trkpt lat="47.63541" lon="6.1295">
        <ele>219.80000305176</ele>
        <time>2012-04-18T08:55:29.000Z</time>
      </trkpt>
      <trkpt lat="47.63546" lon="6.12934">
        <ele>219.80000305176</ele>
        <time>2012-04-18T08:55:32.000Z</time>
      </trkpt>
      <trkpt lat="47.63549" lon="6.12922">
        <ele>219.80000305176</ele>
        <time>2012-04-18T08:55:34.000Z</time>
      </trkpt>
      <trkpt lat="47.63559" lon="6.12881">
        <ele>219.80000305176</ele>
        <time>2012-04-18T08:55:41.000Z</time>
      </trkpt>
      <trkpt lat="47.63571" lon="6.1283">
        <ele>219.80000305176</ele>
        <time>2012-04-18T08:55:50.000Z</time>
      </trkpt>
      <trkpt lat="47.63574" lon="6.12819">
        <ele>219.80000305176</ele>
        <time>2012-04-18T08:55:52.000Z</time>
      </trkpt>
      <trkpt lat="47.63583" lon="6.12807">
        <ele>219.80000305176</ele>
        <time>2012-04-18T08:55:55.000Z</time>
      </trkpt>
      <trkpt lat="47.63596" lon="6.12803">
        <ele>219.80000305176</ele>
        <time>2012-04-18T08:55:58.000Z</time>
      </trkpt>
      <trkpt lat="47.63604" lon="6.12802">
        <ele>219.80000305176</ele>
        <time>2012-04-18T08:56:00.000Z</time>
      </trkpt>
      <trkpt lat="47.63632" lon="6.12801">
        <ele>219.80000305176</ele>
        <time>2012-04-18T08:56:07.000Z</time>
      </trkpt>
      <trkpt lat="47.63659" lon="6.12798">
        <ele>219.80000305176</ele>
        <time>2012-04-18T08:56:14.000Z</time>
      </trkpt>
      <trkpt lat="47.63688" lon="6.12794">
        <ele>219.80000305176</ele>
        <time>2012-04-18T08:56:21.000Z</time>
      </trkpt>
      <trkpt lat="47.63714" lon="6.1279">
        <ele>219.80000305176</ele>
        <time>2012-04-18T08:56:27.000Z</time>
      </trkpt>
      <trkpt lat="47.6374" lon="6.12786">
        <ele>219.80000305176</ele>
        <time>2012-04-18T08:56:33.000Z</time>
      </trkpt>
      <trkpt lat="47.6378" lon="6.12779">
        <ele>219.80000305176</ele>
        <time>2012-04-18T08:56:42.000Z</time>
      </trkpt>
      <trkpt lat="47.6381" lon="6.12774">
        <ele>219.80000305176</ele>
        <time>2012-04-18T08:56:49.000Z</time>
      </trkpt>
      <trkpt lat="47.63846" lon="6.12767">
        <ele>219.80000305176</ele>
        <time>2012-04-18T08:56:58.000Z</time>
      </trkpt>
      <trkpt lat="47.63858" lon="6.12765">
        <ele>219.80000305176</ele>
        <time>2012-04-18T08:57:01.000Z</time>
      </trkpt>
      <trkpt lat="47.63874" lon="6.12762">
        <ele>219.80000305176</ele>
        <time>2012-04-18T08:57:05.000Z</time>
      </trkpt>
      <trkpt lat="47.63895" lon="6.12764">
        <ele>219.80000305176</ele>
        <time>2012-04-18T08:57:11.000Z</time>
      </trkpt>
      <trkpt lat="47.63899" lon="6.12784">
        <ele>219.80000305176</ele>
        <time>2012-04-18T08:57:15.000Z</time>
      </trkpt>
      <trkpt lat="47.63901" lon="6.12824">
        <ele>219.80000305176</ele>
        <time>2012-04-18T08:57:22.000Z</time>
      </trkpt>
      <trkpt lat="47.63902" lon="6.12836">
        <ele>219.80000305176</ele>
        <time>2012-04-18T08:57:24.000Z</time>
      </trkpt>
      <trkpt lat="47.63904" lon="6.12854">
        <ele>219.80000305176</ele>
        <time>2012-04-18T08:57:27.000Z</time>
      </trkpt>
      <trkpt lat="47.63905" lon="6.12859">
        <ele>219.80000305176</ele>
        <time>2012-04-18T08:57:28.000Z</time>
      </trkpt>
      <trkpt lat="47.63907" lon="6.12888">
        <ele>219.80000305176</ele>
        <time>2012-04-18T08:57:33.000Z</time>
      </trkpt>
      <trkpt lat="47.63912" lon="6.12927">
        <ele>219.80000305176</ele>
        <time>2012-04-18T08:57:40.000Z</time>
      </trkpt>
      <trkpt lat="47.63916" lon="6.12976">
        <ele>219.80000305176</ele>
        <time>2012-04-18T08:57:49.000Z</time>
      </trkpt>
      <trkpt lat="47.63922" lon="6.13039">
        <ele>219.80000305176</ele>
        <time>2012-04-18T08:58:00.000Z</time>
      </trkpt>
      <trkpt lat="47.63925" lon="6.13064">
        <ele>219.80000305176</ele>
        <time>2012-04-18T08:58:04.000Z</time>
      </trkpt>
      <trkpt lat="47.63927" lon="6.1307">
        <ele>219.80000305176</ele>
        <time>2012-04-18T08:58:05.000Z</time>
      </trkpt>
      <trkpt lat="47.63938" lon="6.13073">
        <ele>219.80000305176</ele>
        <time>2012-04-18T08:58:08.000Z</time>
      </trkpt>
      <trkpt lat="47.63941" lon="6.13071">
        <ele>219.80000305176</ele>
        <time>2012-04-18T08:58:09.000Z</time>
      </trkpt>
      <trkpt lat="47.63964" lon="6.13064">
        <ele>219.80000305176</ele>
        <time>2012-04-18T08:58:15.000Z</time>
      </trkpt>
      <trkpt lat="47.63988" lon="6.13057">
        <ele>219.80000305176</ele>
        <time>2012-04-18T08:58:21.000Z</time>
      </trkpt>
      <trkpt lat="47.64021" lon="6.1305">
        <ele>219.80000305176</ele>
        <time>2012-04-18T08:58:29.000Z</time>
      </trkpt>
      <trkpt lat="47.64053" lon="6.1304">
        <ele>219.80000305176</ele>
        <time>2012-04-18T08:58:37.000Z</time>
      </trkpt>
      <trkpt lat="47.64057" lon="6.13039">
        <ele>219.80000305176</ele>
        <time>2012-04-18T08:58:38.000Z</time>
      </trkpt>
      <trkpt lat="47.64077" lon="6.13033">
        <ele>219.80000305176</ele>
        <time>2012-04-18T08:58:43.000Z</time>
      </trkpt>
      <trkpt lat="47.64081" lon="6.13032">
        <ele>219.80000305176</ele>
        <time>2012-04-18T08:58:44.000Z</time>
      </trkpt>
      <trkpt lat="47.6411" lon="6.13025">
        <ele>219.80000305176</ele>
        <time>2012-04-18T08:58:51.000Z</time>
      </trkpt>
      <trkpt lat="47.64138" lon="6.13017">
        <ele>219.80000305176</ele>
        <time>2012-04-18T08:58:58.000Z</time>
      </trkpt>
      <trkpt lat="47.64166" lon="6.13009">
        <ele>219.80000305176</ele>
        <time>2012-04-18T08:59:05.000Z</time>
      </trkpt>
      <trkpt lat="47.64201" lon="6.12999">
        <ele>219.80000305176</ele>
        <time>2012-04-18T08:59:13.000Z</time>
      </trkpt>
      <trkpt lat="47.64228" lon="6.12991">
        <ele>219.80000305176</ele>
        <time>2012-04-18T08:59:20.000Z</time>
      </trkpt>
      <trkpt lat="47.64261" lon="6.12982">
        <ele>219.80000305176</ele>
        <time>2012-04-18T08:59:28.000Z</time>
      </trkpt>
      <trkpt lat="47.64281" lon="6.12976">
        <ele>219.80000305176</ele>
        <time>2012-04-18T08:59:33.000Z</time>
      </trkpt>
      <trkpt lat="47.64289" lon="6.12973">
        <ele>219.80000305176</ele>
        <time>2012-04-18T08:59:35.000Z</time>
      </trkpt>
      <trkpt lat="47.64318" lon="6.12965">
        <ele>219.80000305176</ele>
        <time>2012-04-18T08:59:42.000Z</time>
      </trkpt>
      <trkpt lat="47.64349" lon="6.12956">
        <ele>219.80000305176</ele>
        <time>2012-04-18T08:59:49.000Z</time>
      </trkpt>
      <trkpt lat="47.6439" lon="6.12945">
        <ele>219.80000305176</ele>
        <time>2012-04-18T08:59:57.000Z</time>
      </trkpt>
      <trkpt lat="47.64431" lon="6.12932">
        <ele>219.80000305176</ele>
        <time>2012-04-18T09:00:05.000Z</time>
      </trkpt>
      <trkpt lat="47.64463" lon="6.12919">
        <ele>219.80000305176</ele>
        <time>2012-04-18T09:00:12.000Z</time>
      </trkpt>
      <trkpt lat="47.64472" lon="6.12919">
        <ele>219.80000305176</ele>
        <time>2012-04-18T09:00:14.000Z</time>
      </trkpt>
      <trkpt lat="47.64481" lon="6.12926">
        <ele>219.80000305176</ele>
        <time>2012-04-18T09:00:16.000Z</time>
      </trkpt>
      <trkpt lat="47.6449" lon="6.12937">
        <ele>219.80000305176</ele>
        <time>2012-04-18T09:00:18.000Z</time>
      </trkpt>
      <trkpt lat="47.64505" lon="6.12948">
        <ele>219.80000305176</ele>
        <time>2012-04-18T09:00:21.000Z</time>
      </trkpt>
      <trkpt lat="47.64526" lon="6.12959">
        <ele>219.80000305176</ele>
        <time>2012-04-18T09:00:25.000Z</time>
      </trkpt>
      <trkpt lat="47.64537" lon="6.12966">
        <ele>219.80000305176</ele>
        <time>2012-04-18T09:00:27.000Z</time>
      </trkpt>
      <trkpt lat="47.64542" lon="6.12971">
        <ele>219.80000305176</ele>
        <time>2012-04-18T09:00:28.000Z</time>
      </trkpt>
      <trkpt lat="47.64564" lon="6.12988">
        <ele>219.80000305176</ele>
        <time>2012-04-18T09:00:32.000Z</time>
      </trkpt>
      <trkpt lat="47.64569" lon="6.12988">
        <ele>220.19999694824</ele>
        <time>2012-04-18T09:00:33.000Z</time>
      </trkpt>
      <trkpt lat="47.64575" lon="6.12987">
        <ele>220.60000610352</ele>
        <time>2012-04-18T09:00:34.000Z</time>
      </trkpt>
      <trkpt lat="47.6458" lon="6.12984">
        <ele>221</ele>
        <time>2012-04-18T09:00:35.000Z</time>
      </trkpt>
      <trkpt lat="47.64585" lon="6.12982">
        <ele>221.60000610352</ele>
        <time>2012-04-18T09:00:36.000Z</time>
      </trkpt>
      <trkpt lat="47.64589" lon="6.1298">
        <ele>222</ele>
        <time>2012-04-18T09:00:37.000Z</time>
      </trkpt>
      <trkpt lat="47.64594" lon="6.12977">
        <ele>222</ele>
        <time>2012-04-18T09:00:38.000Z</time>
      </trkpt>
      <trkpt lat="47.64614" lon="6.12963">
        <ele>222</ele>
        <time>2012-04-18T09:00:42.000Z</time>
      </trkpt>
      <trkpt lat="47.64644" lon="6.12944">
        <ele>222</ele>
        <time>2012-04-18T09:00:49.000Z</time>
      </trkpt>
      <trkpt lat="47.64675" lon="6.12924">
        <ele>222</ele>
        <time>2012-04-18T09:00:57.000Z</time>
      </trkpt>
      <trkpt lat="47.64699" lon="6.12909">
        <ele>222</ele>
        <time>2012-04-18T09:01:03.000Z</time>
      </trkpt>
      <trkpt lat="47.64702" lon="6.12906">
        <ele>222</ele>
        <time>2012-04-18T09:01:04.000Z</time>
      </trkpt>
      <trkpt lat="47.64725" lon="6.12892">
        <ele>222</ele>
        <time>2012-04-18T09:01:10.000Z</time>
      </trkpt>
      <trkpt lat="47.64729" lon="6.12889">
        <ele>222</ele>
        <time>2012-04-18T09:01:11.000Z</time>
      </trkpt>
      <trkpt lat="47.64732" lon="6.12885">
        <ele>222.39999389648</ele>
        <time>2012-04-18T09:01:12.000Z</time>
      </trkpt>
      <trkpt lat="47.64735" lon="6.12881">
        <ele>222.80000305176</ele>
        <time>2012-04-18T09:01:13.000Z</time>
      </trkpt>
      <trkpt lat="47.64738" lon="6.12877">
        <ele>223.19999694824</ele>
        <time>2012-04-18T09:01:14.000Z</time>
      </trkpt>
      <trkpt lat="47.64741" lon="6.12871">
        <ele>223.80000305176</ele>
        <time>2012-04-18T09:01:15.000Z</time>
      </trkpt>
      <trkpt lat="47.64742" lon="6.12866">
        <ele>224.19999694824</ele>
        <time>2012-04-18T09:01:16.000Z</time>
      </trkpt>
      <trkpt lat="47.64744" lon="6.1285">
        <ele>224.19999694824</ele>
        <time>2012-04-18T09:01:19.000Z</time>
      </trkpt>
      <trkpt lat="47.64745" lon="6.12844">
        <ele>224.19999694824</ele>
        <time>2012-04-18T09:01:20.000Z</time>
      </trkpt>
      <trkpt lat="47.64747" lon="6.12815">
        <ele>224.60000610352</ele>
        <time>2012-04-18T09:01:25.000Z</time>
      </trkpt>
      <trkpt lat="47.64747" lon="6.1281">
        <ele>225</ele>
        <time>2012-04-18T09:01:26.000Z</time>
      </trkpt>
      <trkpt lat="47.64748" lon="6.12806">
        <ele>225.39999389648</ele>
        <time>2012-04-18T09:01:27.000Z</time>
      </trkpt>
      <trkpt lat="47.64748" lon="6.12801">
        <ele>225.80000305176</ele>
        <time>2012-04-18T09:01:28.000Z</time>
      </trkpt>
      <trkpt lat="47.64749" lon="6.12797">
        <ele>226.19999694824</ele>
        <time>2012-04-18T09:01:29.000Z</time>
      </trkpt>
      <trkpt lat="47.64751" lon="6.12789">
        <ele>226.19999694824</ele>
        <time>2012-04-18T09:01:31.000Z</time>
      </trkpt>
      <trkpt lat="47.64755" lon="6.12757">
        <ele>226.19999694824</ele>
        <time>2012-04-18T09:01:38.000Z</time>
      </trkpt>
      <trkpt lat="47.64756" lon="6.12752">
        <ele>226.60000610352</ele>
        <time>2012-04-18T09:01:39.000Z</time>
      </trkpt>
      <trkpt lat="47.64756" lon="6.12747">
        <ele>227</ele>
        <time>2012-04-18T09:01:40.000Z</time>
      </trkpt>
      <trkpt lat="47.64757" lon="6.12742">
        <ele>227.39999389648</ele>
        <time>2012-04-18T09:01:41.000Z</time>
      </trkpt>
      <trkpt lat="47.64758" lon="6.12738">
        <ele>227.80000305176</ele>
        <time>2012-04-18T09:01:42.000Z</time>
      </trkpt>
      <trkpt lat="47.64758" lon="6.12733">
        <ele>228.19999694824</ele>
        <time>2012-04-18T09:01:43.000Z</time>
      </trkpt>
      <trkpt lat="47.64759" lon="6.12729">
        <ele>228.19999694824</ele>
        <time>2012-04-18T09:01:44.000Z</time>
      </trkpt>
      <trkpt lat="47.64764" lon="6.127">
        <ele>228.19999694824</ele>
        <time>2012-04-18T09:01:50.000Z</time>
      </trkpt>
      <trkpt lat="47.64772" lon="6.12663">
        <ele>228.19999694824</ele>
        <time>2012-04-18T09:01:58.000Z</time>
      </trkpt>
      <trkpt lat="47.6478" lon="6.12617">
        <ele>228.19999694824</ele>
        <time>2012-04-18T09:02:07.000Z</time>
      </trkpt>
      <trkpt lat="47.64788" lon="6.12582">
        <ele>228.19999694824</ele>
        <time>2012-04-18T09:02:13.000Z</time>
      </trkpt>
      <trkpt lat="47.64791" lon="6.12565">
        <ele>228.19999694824</ele>
        <time>2012-04-18T09:02:16.000Z</time>
      </trkpt>
      <trkpt lat="47.6479" lon="6.12545">
        <ele>228.19999694824</ele>
        <time>2012-04-18T09:02:19.000Z</time>
      </trkpt>
      <trkpt lat="47.64778" lon="6.12527">
        <ele>228.19999694824</ele>
        <time>2012-04-18T09:02:23.000Z</time>
      </trkpt>
      <trkpt lat="47.64774" lon="6.12524">
        <ele>228.19999694824</ele>
        <time>2012-04-18T09:02:24.000Z</time>
      </trkpt>
      <trkpt lat="47.64757" lon="6.12511">
        <ele>228.19999694824</ele>
        <time>2012-04-18T09:02:29.000Z</time>
      </trkpt>
      <trkpt lat="47.64754" lon="6.12503">
        <ele>228.19999694824</ele>
        <time>2012-04-18T09:02:31.000Z</time>
      </trkpt>
      <trkpt lat="47.64755" lon="6.12498">
        <ele>228.19999694824</ele>
        <time>2012-04-18T09:02:32.000Z</time>
      </trkpt>
      <trkpt lat="47.64762" lon="6.12494">
        <ele>228.19999694824</ele>
        <time>2012-04-18T09:02:35.000Z</time>
      </trkpt>
      <trkpt lat="47.64766" lon="6.12499">
        <ele>228.19999694824</ele>
        <time>2012-04-18T09:02:37.000Z</time>
      </trkpt>
      <trkpt lat="47.64772" lon="6.12504">
        <ele>228.19999694824</ele>
        <time>2012-04-18T09:02:39.000Z</time>
      </trkpt>
      <trkpt lat="47.64788" lon="6.12519">
        <ele>228.19999694824</ele>
        <time>2012-04-18T09:02:45.000Z</time>
      </trkpt>
      <trkpt lat="47.64804" lon="6.12533">
        <ele>228.19999694824</ele>
        <time>2012-04-18T09:02:52.000Z</time>
      </trkpt>
      <trkpt lat="47.64806" lon="6.12535">
        <ele>228.60000610352</ele>
        <time>2012-04-18T09:02:53.000Z</time>
      </trkpt>
      <trkpt lat="47.64808" lon="6.12538">
        <ele>229.19999694824</ele>
        <time>2012-04-18T09:02:54.000Z</time>
      </trkpt>
      <trkpt lat="47.6481" lon="6.1254">
        <ele>229.60000610352</ele>
        <time>2012-04-18T09:02:55.000Z</time>
      </trkpt>
      <trkpt lat="47.64813" lon="6.12543">
        <ele>230</ele>
        <time>2012-04-18T09:02:56.000Z</time>
      </trkpt>
      <trkpt lat="47.64815" lon="6.12545">
        <ele>230.39999389648</ele>
        <time>2012-04-18T09:02:57.000Z</time>
      </trkpt>
      <trkpt lat="47.64819" lon="6.12549">
        <ele>230.39999389648</ele>
        <time>2012-04-18T09:02:59.000Z</time>
      </trkpt>
      <trkpt lat="47.64841" lon="6.12571">
        <ele>230.39999389648</ele>
        <time>2012-04-18T09:03:07.000Z</time>
      </trkpt>
      <trkpt lat="47.64863" lon="6.12594">
        <ele>230.39999389648</ele>
        <time>2012-04-18T09:03:13.000Z</time>
      </trkpt>
      <trkpt lat="47.64885" lon="6.12616">
        <ele>230</ele>
        <time>2012-04-18T09:03:17.000Z</time>
      </trkpt>
      <trkpt lat="47.64891" lon="6.12622">
        <ele>229.60000610352</ele>
        <time>2012-04-18T09:03:18.000Z</time>
      </trkpt>
      <trkpt lat="47.64898" lon="6.12629">
        <ele>229.19999694824</ele>
        <time>2012-04-18T09:03:19.000Z</time>
      </trkpt>
      <trkpt lat="47.64904" lon="6.12635">
        <ele>228.80000305176</ele>
        <time>2012-04-18T09:03:20.000Z</time>
      </trkpt>
      <trkpt lat="47.64912" lon="6.1264">
        <ele>228.39999389648</ele>
        <time>2012-04-18T09:03:21.000Z</time>
      </trkpt>
      <trkpt lat="47.64919" lon="6.12644">
        <ele>227.60000610352</ele>
        <time>2012-04-18T09:03:22.000Z</time>
      </trkpt>
      <trkpt lat="47.64927" lon="6.12646">
        <ele>227</ele>
        <time>2012-04-18T09:03:23.000Z</time>
      </trkpt>
      <trkpt lat="47.64934" lon="6.12645">
        <ele>226.60000610352</ele>
        <time>2012-04-18T09:03:24.000Z</time>
      </trkpt>
      <trkpt lat="47.64941" lon="6.12643">
        <ele>226.19999694824</ele>
        <time>2012-04-18T09:03:25.000Z</time>
      </trkpt>
      <trkpt lat="47.64948" lon="6.12639">
        <ele>226.19999694824</ele>
        <time>2012-04-18T09:03:26.000Z</time>
      </trkpt>
      <trkpt lat="47.64955" lon="6.12636">
        <ele>226.19999694824</ele>
        <time>2012-04-18T09:03:27.000Z</time>
      </trkpt>
      <trkpt lat="47.64984" lon="6.12621">
        <ele>226.19999694824</ele>
        <time>2012-04-18T09:03:32.000Z</time>
      </trkpt>
      <trkpt lat="47.65005" lon="6.12619">
        <ele>226.19999694824</ele>
        <time>2012-04-18T09:03:36.000Z</time>
      </trkpt>
      <trkpt lat="47.6501" lon="6.1262">
        <ele>226.19999694824</ele>
        <time>2012-04-18T09:03:37.000Z</time>
      </trkpt>
      <trkpt lat="47.65019" lon="6.12621">
        <ele>226.19999694824</ele>
        <time>2012-04-18T09:03:39.000Z</time>
      </trkpt>
      <trkpt lat="47.65025" lon="6.12612">
        <ele>226.19999694824</ele>
        <time>2012-04-18T09:03:41.000Z</time>
      </trkpt>
      <trkpt lat="47.65038" lon="6.12596">
        <ele>226.19999694824</ele>
        <time>2012-04-18T09:03:45.000Z</time>
      </trkpt>
      <trkpt lat="47.6504" lon="6.12591">
        <ele>226.19999694824</ele>
        <time>2012-04-18T09:03:46.000Z</time>
      </trkpt>
      <trkpt lat="47.65053" lon="6.1257">
        <ele>226.19999694824</ele>
        <time>2012-04-18T09:03:51.000Z</time>
      </trkpt>
      <trkpt lat="47.65074" lon="6.1254">
        <ele>226.19999694824</ele>
        <time>2012-04-18T09:03:59.000Z</time>
      </trkpt>
      <trkpt lat="47.65089" lon="6.12517">
        <ele>226.19999694824</ele>
        <time>2012-04-18T09:04:05.000Z</time>
      </trkpt>
      <trkpt lat="47.65099" lon="6.12504">
        <ele>226.19999694824</ele>
        <time>2012-04-18T09:04:09.000Z</time>
      </trkpt>
      <trkpt lat="47.65101" lon="6.12501">
        <ele>226.60000610352</ele>
        <time>2012-04-18T09:04:10.000Z</time>
      </trkpt>
      <trkpt lat="47.65103" lon="6.12497">
        <ele>227.60000610352</ele>
        <time>2012-04-18T09:04:11.000Z</time>
      </trkpt>
      <trkpt lat="47.65106" lon="6.12494">
        <ele>228</ele>
        <time>2012-04-18T09:04:12.000Z</time>
      </trkpt>
      <trkpt lat="47.65108" lon="6.1249">
        <ele>228.39999389648</ele>
        <time>2012-04-18T09:04:13.000Z</time>
      </trkpt>
      <trkpt lat="47.65114" lon="6.12481">
        <ele>228.39999389648</ele>
        <time>2012-04-18T09:04:16.000Z</time>
      </trkpt>
      <trkpt lat="47.65127" lon="6.12458">
        <ele>228.39999389648</ele>
        <time>2012-04-18T09:04:23.000Z</time>
      </trkpt>
      <trkpt lat="47.65139" lon="6.1244">
        <ele>228.39999389648</ele>
        <time>2012-04-18T09:04:29.000Z</time>
      </trkpt>
      <trkpt lat="47.65143" lon="6.12434">
        <ele>228.80000305176</ele>
        <time>2012-04-18T09:04:31.000Z</time>
      </trkpt>
      <trkpt lat="47.65145" lon="6.12431">
        <ele>229.19999694824</ele>
        <time>2012-04-18T09:04:32.000Z</time>
      </trkpt>
      <trkpt lat="47.65147" lon="6.12428">
        <ele>229.60000610352</ele>
        <time>2012-04-18T09:04:33.000Z</time>
      </trkpt>
      <trkpt lat="47.65149" lon="6.12425">
        <ele>230</ele>
        <time>2012-04-18T09:04:34.000Z</time>
      </trkpt>
      <trkpt lat="47.65151" lon="6.12422">
        <ele>230.39999389648</ele>
        <time>2012-04-18T09:04:35.000Z</time>
      </trkpt>
      <trkpt lat="47.65155" lon="6.1241">
        <ele>230.39999389648</ele>
        <time>2012-04-18T09:04:38.000Z</time>
      </trkpt>
      <trkpt lat="47.65166" lon="6.12389">
        <ele>230.39999389648</ele>
        <time>2012-04-18T09:04:43.000Z</time>
      </trkpt>
      <trkpt lat="47.65183" lon="6.12362">
        <ele>230.39999389648</ele>
        <time>2012-04-18T09:04:50.000Z</time>
      </trkpt>
      <trkpt lat="47.65197" lon="6.12333">
        <ele>230.39999389648</ele>
        <time>2012-04-18T09:04:57.000Z</time>
      </trkpt>
      <trkpt lat="47.65204" lon="6.12318">
        <ele>231.19999694824</ele>
        <time>2012-04-18T09:05:01.000Z</time>
      </trkpt>
      <trkpt lat="47.65205" lon="6.12314">
        <ele>231.60000610352</ele>
        <time>2012-04-18T09:05:02.000Z</time>
      </trkpt>
      <trkpt lat="47.65207" lon="6.1231">
        <ele>232</ele>
        <time>2012-04-18T09:05:03.000Z</time>
      </trkpt>
      <trkpt lat="47.65208" lon="6.12306">
        <ele>232.60000610352</ele>
        <time>2012-04-18T09:05:04.000Z</time>
      </trkpt>
      <trkpt lat="47.6522" lon="6.12274">
        <ele>232.60000610352</ele>
        <time>2012-04-18T09:05:12.000Z</time>
      </trkpt>
      <trkpt lat="47.65234" lon="6.12243">
        <ele>232.60000610352</ele>
        <time>2012-04-18T09:05:20.000Z</time>
      </trkpt>
      <trkpt lat="47.6524" lon="6.1223">
        <ele>233</ele>
        <time>2012-04-18T09:05:23.000Z</time>
      </trkpt>
      <trkpt lat="47.65242" lon="6.12226">
        <ele>233.39999389648</ele>
        <time>2012-04-18T09:05:24.000Z</time>
      </trkpt>
      <trkpt lat="47.65244" lon="6.12222">
        <ele>233.80000305176</ele>
        <time>2012-04-18T09:05:25.000Z</time>
      </trkpt>
      <trkpt lat="47.65247" lon="6.12217">
        <ele>234.60000610352</ele>
        <time>2012-04-18T09:05:26.000Z</time>
      </trkpt>
      <trkpt lat="47.65254" lon="6.12203">
        <ele>234.60000610352</ele>
        <time>2012-04-18T09:05:29.000Z</time>
      </trkpt>
      <trkpt lat="47.65272" lon="6.12177">
        <ele>234.60000610352</ele>
        <time>2012-04-18T09:05:36.000Z</time>
      </trkpt>
      <trkpt lat="47.65292" lon="6.12169">
        <ele>234.60000610352</ele>
        <time>2012-04-18T09:05:41.000Z</time>
      </trkpt>
      <trkpt lat="47.65312" lon="6.12161">
        <ele>234.60000610352</ele>
        <time>2012-04-18T09:05:46.000Z</time>
      </trkpt>
      <trkpt lat="47.65324" lon="6.12149">
        <ele>234.60000610352</ele>
        <time>2012-04-18T09:05:50.000Z</time>
      </trkpt>
      <trkpt lat="47.65338" lon="6.12127">
        <ele>234.60000610352</ele>
        <time>2012-04-18T09:05:56.000Z</time>
      </trkpt>
      <trkpt lat="47.65349" lon="6.12117">
        <ele>235</ele>
        <time>2012-04-18T09:06:00.000Z</time>
      </trkpt>
      <trkpt lat="47.65352" lon="6.12114">
        <ele>235.39999389648</ele>
        <time>2012-04-18T09:06:01.000Z</time>
      </trkpt>
      <trkpt lat="47.65354" lon="6.12111">
        <ele>235.80000305176</ele>
        <time>2012-04-18T09:06:02.000Z</time>
      </trkpt>
      <trkpt lat="47.65356" lon="6.12108">
        <ele>236.19999694824</ele>
        <time>2012-04-18T09:06:03.000Z</time>
      </trkpt>
      <trkpt lat="47.65358" lon="6.12104">
        <ele>236.60000610352</ele>
        <time>2012-04-18T09:06:04.000Z</time>
      </trkpt>
      <trkpt lat="47.65367" lon="6.12092">
        <ele>236.60000610352</ele>
        <time>2012-04-18T09:06:08.000Z</time>
      </trkpt>
      <trkpt lat="47.65378" lon="6.12079">
        <ele>237</ele>
        <time>2012-04-18T09:06:13.000Z</time>
      </trkpt>
      <trkpt lat="47.65379" lon="6.12077">
        <ele>237.39999389648</ele>
        <time>2012-04-18T09:06:14.000Z</time>
      </trkpt>
      <trkpt lat="47.65381" lon="6.12075">
        <ele>238.39999389648</ele>
        <time>2012-04-18T09:06:15.000Z</time>
      </trkpt>
      <trkpt lat="47.65383" lon="6.12072">
        <ele>238.80000305176</ele>
        <time>2012-04-18T09:06:16.000Z</time>
      </trkpt>
      <trkpt lat="47.65393" lon="6.12058">
        <ele>238.80000305176</ele>
        <time>2012-04-18T09:06:22.000Z</time>
      </trkpt>
      <trkpt lat="47.65399" lon="6.12048">
        <ele>239.19999694824</ele>
        <time>2012-04-18T09:06:26.000Z</time>
      </trkpt>
      <trkpt lat="47.65401" lon="6.12046">
        <ele>239.60000610352</ele>
        <time>2012-04-18T09:06:27.000Z</time>
      </trkpt>
      <trkpt lat="47.65402" lon="6.12044">
        <ele>240</ele>
        <time>2012-04-18T09:06:28.000Z</time>
      </trkpt>
      <trkpt lat="47.65404" lon="6.12041">
        <ele>240.39999389648</ele>
        <time>2012-04-18T09:06:29.000Z</time>
      </trkpt>
      <trkpt lat="47.65405" lon="6.12039">
        <ele>240.80000305176</ele>
        <time>2012-04-18T09:06:30.000Z</time>
      </trkpt>
      <trkpt lat="47.65414" lon="6.12025">
        <ele>240.80000305176</ele>
        <time>2012-04-18T09:06:36.000Z</time>
      </trkpt>
      <trkpt lat="47.65419" lon="6.12015">
        <ele>241.60000610352</ele>
        <time>2012-04-18T09:06:40.000Z</time>
      </trkpt>
      <trkpt lat="47.65421" lon="6.12013">
        <ele>242</ele>
        <time>2012-04-18T09:06:41.000Z</time>
      </trkpt>
      <trkpt lat="47.65422" lon="6.12011">
        <ele>242.39999389648</ele>
        <time>2012-04-18T09:06:42.000Z</time>
      </trkpt>
      <trkpt lat="47.65424" lon="6.12008">
        <ele>242.80000305176</ele>
        <time>2012-04-18T09:06:43.000Z</time>
      </trkpt>
      <trkpt lat="47.65428" lon="6.12">
        <ele>242.80000305176</ele>
        <time>2012-04-18T09:06:46.000Z</time>
      </trkpt>
      <trkpt lat="47.65438" lon="6.11981">
        <ele>242.80000305176</ele>
        <time>2012-04-18T09:06:53.000Z</time>
      </trkpt>
      <trkpt lat="47.65452" lon="6.11957">
        <ele>243.19999694824</ele>
        <time>2012-04-18T09:07:02.000Z</time>
      </trkpt>
      <trkpt lat="47.65454" lon="6.11954">
        <ele>243.60000610352</ele>
        <time>2012-04-18T09:07:03.000Z</time>
      </trkpt>
      <trkpt lat="47.65455" lon="6.11951">
        <ele>244.19999694824</ele>
        <time>2012-04-18T09:07:04.000Z</time>
      </trkpt>
      <trkpt lat="47.65457" lon="6.11949">
        <ele>245</ele>
        <time>2012-04-18T09:07:05.000Z</time>
      </trkpt>
      <trkpt lat="47.65465" lon="6.11933">
        <ele>245</ele>
        <time>2012-04-18T09:07:11.000Z</time>
      </trkpt>
      <trkpt lat="47.65477" lon="6.11909">
        <ele>245</ele>
        <time>2012-04-18T09:07:20.000Z</time>
      </trkpt>
      <trkpt lat="47.65479" lon="6.11906">
        <ele>245.39999389648</ele>
        <time>2012-04-18T09:07:21.000Z</time>
      </trkpt>
      <trkpt lat="47.65481" lon="6.11903">
        <ele>245.80000305176</ele>
        <time>2012-04-18T09:07:22.000Z</time>
      </trkpt>
      <trkpt lat="47.65482" lon="6.119">
        <ele>246.19999694824</ele>
        <time>2012-04-18T09:07:23.000Z</time>
      </trkpt>
      <trkpt lat="47.65484" lon="6.11898">
        <ele>246.60000610352</ele>
        <time>2012-04-18T09:07:24.000Z</time>
      </trkpt>
      <trkpt lat="47.65485" lon="6.11894">
        <ele>247</ele>
        <time>2012-04-18T09:07:25.000Z</time>
      </trkpt>
      <trkpt lat="47.6549" lon="6.11886">
        <ele>247</ele>
        <time>2012-04-18T09:07:28.000Z</time>
      </trkpt>
      <trkpt lat="47.65502" lon="6.11864">
        <ele>247</ele>
        <time>2012-04-18T09:07:36.000Z</time>
      </trkpt>
      <trkpt lat="47.65504" lon="6.11859">
        <ele>247.39999389648</ele>
        <time>2012-04-18T09:07:38.000Z</time>
      </trkpt>
      <trkpt lat="47.65506" lon="6.11857">
        <ele>247.80000305176</ele>
        <time>2012-04-18T09:07:39.000Z</time>
      </trkpt>
      <trkpt lat="47.65507" lon="6.11854">
        <ele>248.19999694824</ele>
        <time>2012-04-18T09:07:40.000Z</time>
      </trkpt>
      <trkpt lat="47.65508" lon="6.11851">
        <ele>248.60000610352</ele>
        <time>2012-04-18T09:07:41.000Z</time>
      </trkpt>
      <trkpt lat="47.6551" lon="6.11849">
        <ele>249</ele>
        <time>2012-04-18T09:07:42.000Z</time>
      </trkpt>
      <trkpt lat="47.65515" lon="6.11839">
        <ele>249</ele>
        <time>2012-04-18T09:07:45.000Z</time>
      </trkpt>
      <trkpt lat="47.65529" lon="6.11813">
        <ele>249</ele>
        <time>2012-04-18T09:07:51.000Z</time>
      </trkpt>
      <trkpt lat="47.65538" lon="6.11794">
        <ele>249.39999389648</ele>
        <time>2012-04-18T09:07:56.000Z</time>
      </trkpt>
      <trkpt lat="47.6554" lon="6.11791">
        <ele>249.80000305176</ele>
        <time>2012-04-18T09:07:57.000Z</time>
      </trkpt>
      <trkpt lat="47.65542" lon="6.11787">
        <ele>250.39999389648</ele>
        <time>2012-04-18T09:07:58.000Z</time>
      </trkpt>
      <trkpt lat="47.65543" lon="6.11784">
        <ele>250.80000305176</ele>
        <time>2012-04-18T09:07:59.000Z</time>
      </trkpt>
      <trkpt lat="47.65545" lon="6.1178">
        <ele>251.19999694824</ele>
        <time>2012-04-18T09:08:00.000Z</time>
      </trkpt>
      <trkpt lat="47.65559" lon="6.11753">
        <ele>251.19999694824</ele>
        <time>2012-04-18T09:08:08.000Z</time>
      </trkpt>
      <trkpt lat="47.65574" lon="6.11726">
        <ele>251.19999694824</ele>
        <time>2012-04-18T09:08:16.000Z</time>
      </trkpt>
      <trkpt lat="47.65583" lon="6.11708">
        <ele>251.60000610352</ele>
        <time>2012-04-18T09:08:21.000Z</time>
      </trkpt>
      <trkpt lat="47.65584" lon="6.11705">
        <ele>252</ele>
        <time>2012-04-18T09:08:22.000Z</time>
      </trkpt>
      <trkpt lat="47.65586" lon="6.11701">
        <ele>252.39999389648</ele>
        <time>2012-04-18T09:08:23.000Z</time>
      </trkpt>
      <trkpt lat="47.65588" lon="6.11698">
        <ele>252.80000305176</ele>
        <time>2012-04-18T09:08:24.000Z</time>
      </trkpt>
      <trkpt lat="47.6559" lon="6.11694">
        <ele>253.19999694824</ele>
        <time>2012-04-18T09:08:25.000Z</time>
      </trkpt>
      <trkpt lat="47.65592" lon="6.1169">
        <ele>253.19999694824</ele>
        <time>2012-04-18T09:08:26.000Z</time>
      </trkpt>
      <trkpt lat="47.65597" lon="6.11679">
        <ele>252.80000305176</ele>
        <time>2012-04-18T09:08:29.000Z</time>
      </trkpt>
      <trkpt lat="47.65599" lon="6.11675">
        <ele>252.39999389648</ele>
        <time>2012-04-18T09:08:30.000Z</time>
      </trkpt>
      <trkpt lat="47.656" lon="6.11671">
        <ele>251.80000305176</ele>
        <time>2012-04-18T09:08:31.000Z</time>
      </trkpt>
      <trkpt lat="47.65603" lon="6.11668">
        <ele>252.19999694824</ele>
        <time>2012-04-18T09:08:32.000Z</time>
      </trkpt>
      <trkpt lat="47.65605" lon="6.11664">
        <ele>252.60000610352</ele>
        <time>2012-04-18T09:08:33.000Z</time>
      </trkpt>
      <trkpt lat="47.65607" lon="6.1166">
        <ele>253</ele>
        <time>2012-04-18T09:08:34.000Z</time>
      </trkpt>
      <trkpt lat="47.65609" lon="6.11656">
        <ele>253.39999389648</ele>
        <time>2012-04-18T09:08:35.000Z</time>
      </trkpt>
      <trkpt lat="47.65611" lon="6.11653">
        <ele>253.80000305176</ele>
        <time>2012-04-18T09:08:36.000Z</time>
      </trkpt>
      <trkpt lat="47.65621" lon="6.11637">
        <ele>253.80000305176</ele>
        <time>2012-04-18T09:08:40.000Z</time>
      </trkpt>
      <trkpt lat="47.65641" lon="6.11606">
        <ele>253.80000305176</ele>
        <time>2012-04-18T09:08:48.000Z</time>
      </trkpt>
      <trkpt lat="47.65657" lon="6.11582">
        <ele>253.80000305176</ele>
        <time>2012-04-18T09:08:54.000Z</time>
      </trkpt>
      <trkpt lat="47.65676" lon="6.11555">
        <ele>253.80000305176</ele>
        <time>2012-04-18T09:09:02.000Z</time>
      </trkpt>
      <trkpt lat="47.65696" lon="6.11526">
        <ele>253.80000305176</ele>
        <time>2012-04-18T09:09:10.000Z</time>
      </trkpt>
      <trkpt lat="47.65713" lon="6.11502">
        <ele>253.80000305176</ele>
        <time>2012-04-18T09:09:17.000Z</time>
      </trkpt>
      <trkpt lat="47.65728" lon="6.1148">
        <ele>254.19999694824</ele>
        <time>2012-04-18T09:09:24.000Z</time>
      </trkpt>
      <trkpt lat="47.6573" lon="6.11476">
        <ele>254.60000610352</ele>
        <time>2012-04-18T09:09:25.000Z</time>
      </trkpt>
      <trkpt lat="47.65732" lon="6.11473">
        <ele>255.19999694824</ele>
        <time>2012-04-18T09:09:26.000Z</time>
      </trkpt>
      <trkpt lat="47.65735" lon="6.1147">
        <ele>255.60000610352</ele>
        <time>2012-04-18T09:09:27.000Z</time>
      </trkpt>
      <trkpt lat="47.65737" lon="6.11467">
        <ele>256</ele>
        <time>2012-04-18T09:09:28.000Z</time>
      </trkpt>
      <trkpt lat="47.65749" lon="6.11448">
        <ele>256</ele>
        <time>2012-04-18T09:09:34.000Z</time>
      </trkpt>
      <trkpt lat="47.65766" lon="6.11418">
        <ele>256</ele>
        <time>2012-04-18T09:09:43.000Z</time>
      </trkpt>
      <trkpt lat="47.6578" lon="6.11394">
        <ele>256</ele>
        <time>2012-04-18T09:09:50.000Z</time>
      </trkpt>
      <trkpt lat="47.65785" lon="6.11386">
        <ele>256.39999389648</ele>
        <time>2012-04-18T09:09:52.000Z</time>
      </trkpt>
      <trkpt lat="47.65787" lon="6.11382">
        <ele>256.79998779297</ele>
        <time>2012-04-18T09:09:53.000Z</time>
      </trkpt>
      <trkpt lat="47.65789" lon="6.11378">
        <ele>257.20001220703</ele>
        <time>2012-04-18T09:09:54.000Z</time>
      </trkpt>
      <trkpt lat="47.65792" lon="6.11374">
        <ele>257.60000610352</ele>
        <time>2012-04-18T09:09:55.000Z</time>
      </trkpt>
      <trkpt lat="47.65795" lon="6.1137">
        <ele>258</ele>
        <time>2012-04-18T09:09:56.000Z</time>
      </trkpt>
      <trkpt lat="47.658" lon="6.11361">
        <ele>258</ele>
        <time>2012-04-18T09:09:58.000Z</time>
      </trkpt>
      <trkpt lat="47.65825" lon="6.11321">
        <ele>258</ele>
        <time>2012-04-18T09:10:07.000Z</time>
      </trkpt>
      <trkpt lat="47.65849" lon="6.11285">
        <ele>258</ele>
        <time>2012-04-18T09:10:16.000Z</time>
      </trkpt>
      <trkpt lat="47.65872" lon="6.11251">
        <ele>258</ele>
        <time>2012-04-18T09:10:25.000Z</time>
      </trkpt>
      <trkpt lat="47.65888" lon="6.11228">
        <ele>258</ele>
        <time>2012-04-18T09:10:32.000Z</time>
      </trkpt>
      <trkpt lat="47.659" lon="6.1121">
        <ele>258.39999389648</ele>
        <time>2012-04-18T09:10:37.000Z</time>
      </trkpt>
      <trkpt lat="47.65902" lon="6.11206">
        <ele>258.79998779297</ele>
        <time>2012-04-18T09:10:38.000Z</time>
      </trkpt>
      <trkpt lat="47.65904" lon="6.11203">
        <ele>259.20001220703</ele>
        <time>2012-04-18T09:10:39.000Z</time>
      </trkpt>
      <trkpt lat="47.65907" lon="6.112">
        <ele>259.79998779297</ele>
        <time>2012-04-18T09:10:40.000Z</time>
      </trkpt>
      <trkpt lat="47.65909" lon="6.11197">
        <ele>260.20001220703</ele>
        <time>2012-04-18T09:10:41.000Z</time>
      </trkpt>
      <trkpt lat="47.65919" lon="6.11181">
        <ele>260.20001220703</ele>
        <time>2012-04-18T09:10:46.000Z</time>
      </trkpt>
      <trkpt lat="47.65938" lon="6.11155">
        <ele>260.60000610352</ele>
        <time>2012-04-18T09:10:55.000Z</time>
      </trkpt>
      <trkpt lat="47.6594" lon="6.11152">
        <ele>261</ele>
        <time>2012-04-18T09:10:56.000Z</time>
      </trkpt>
      <trkpt lat="47.65942" lon="6.11149">
        <ele>261.39999389648</ele>
        <time>2012-04-18T09:10:57.000Z</time>
      </trkpt>
      <trkpt lat="47.65943" lon="6.11146">
        <ele>261.79998779297</ele>
        <time>2012-04-18T09:10:58.000Z</time>
      </trkpt>
      <trkpt lat="47.65945" lon="6.11143">
        <ele>262.20001220703</ele>
        <time>2012-04-18T09:10:59.000Z</time>
      </trkpt>
      <trkpt lat="47.65954" lon="6.11131">
        <ele>262.20001220703</ele>
        <time>2012-04-18T09:11:03.000Z</time>
      </trkpt>
      <trkpt lat="47.65959" lon="6.11123">
        <ele>262.79998779297</ele>
        <time>2012-04-18T09:11:05.000Z</time>
      </trkpt>
      <trkpt lat="47.65961" lon="6.11121">
        <ele>263.20001220703</ele>
        <time>2012-04-18T09:11:06.000Z</time>
      </trkpt>
      <trkpt lat="47.65963" lon="6.11118">
        <ele>263.60000610352</ele>
        <time>2012-04-18T09:11:07.000Z</time>
      </trkpt>
      <trkpt lat="47.65965" lon="6.11116">
        <ele>264</ele>
        <time>2012-04-18T09:11:08.000Z</time>
      </trkpt>
      <trkpt lat="47.65967" lon="6.11114">
        <ele>264.39999389648</ele>
        <time>2012-04-18T09:11:09.000Z</time>
      </trkpt>
      <trkpt lat="47.65977" lon="6.11101">
        <ele>264.79998779297</ele>
        <time>2012-04-18T09:11:13.000Z</time>
      </trkpt>
      <trkpt lat="47.65979" lon="6.11099">
        <ele>265.20001220703</ele>
        <time>2012-04-18T09:11:14.000Z</time>
      </trkpt>
      <trkpt lat="47.65981" lon="6.11096">
        <ele>265.60000610352</ele>
        <time>2012-04-18T09:11:15.000Z</time>
      </trkpt>
      <trkpt lat="47.65983" lon="6.11094">
        <ele>266</ele>
        <time>2012-04-18T09:11:16.000Z</time>
      </trkpt>
      <trkpt lat="47.65984" lon="6.11091">
        <ele>266.39999389648</ele>
        <time>2012-04-18T09:11:17.000Z</time>
      </trkpt>
      <trkpt lat="47.65993" lon="6.11076">
        <ele>266.39999389648</ele>
        <time>2012-04-18T09:11:22.000Z</time>
      </trkpt>
      <trkpt lat="47.66002" lon="6.11063">
        <ele>266.79998779297</ele>
        <time>2012-04-18T09:11:26.000Z</time>
      </trkpt>
      <trkpt lat="47.66004" lon="6.11061">
        <ele>267.20001220703</ele>
        <time>2012-04-18T09:11:27.000Z</time>
      </trkpt>
      <trkpt lat="47.66006" lon="6.11058">
        <ele>267.60000610352</ele>
        <time>2012-04-18T09:11:28.000Z</time>
      </trkpt>
      <trkpt lat="47.66008" lon="6.11056">
        <ele>268</ele>
        <time>2012-04-18T09:11:29.000Z</time>
      </trkpt>
      <trkpt lat="47.6601" lon="6.11053">
        <ele>268.39999389648</ele>
        <time>2012-04-18T09:11:30.000Z</time>
      </trkpt>
      <trkpt lat="47.66022" lon="6.11037">
        <ele>268.39999389648</ele>
        <time>2012-04-18T09:11:36.000Z</time>
      </trkpt>
      <trkpt lat="47.6604" lon="6.11014">
        <ele>268.39999389648</ele>
        <time>2012-04-18T09:11:44.000Z</time>
      </trkpt>
      <trkpt lat="47.66049" lon="6.11002">
        <ele>269</ele>
        <time>2012-04-18T09:11:48.000Z</time>
      </trkpt>
      <trkpt lat="47.66052" lon="6.10999">
        <ele>269.39999389648</ele>
        <time>2012-04-18T09:11:49.000Z</time>
      </trkpt>
      <trkpt lat="47.66054" lon="6.10995">
        <ele>270</ele>
        <time>2012-04-18T09:11:50.000Z</time>
      </trkpt>
      <trkpt lat="47.66056" lon="6.10992">
        <ele>270.39999389648</ele>
        <time>2012-04-18T09:11:51.000Z</time>
      </trkpt>
      <trkpt lat="47.66059" lon="6.10988">
        <ele>270.79998779297</ele>
        <time>2012-04-18T09:11:52.000Z</time>
      </trkpt>
      <trkpt lat="47.66081" lon="6.10963">
        <ele>270.79998779297</ele>
        <time>2012-04-18T09:12:00.000Z</time>
      </trkpt>
      <trkpt lat="47.661" lon="6.10937">
        <ele>270.79998779297</ele>
        <time>2012-04-18T09:12:08.000Z</time>
      </trkpt>
      <trkpt lat="47.66116" lon="6.10916">
        <ele>270.79998779297</ele>
        <time>2012-04-18T09:12:14.000Z</time>
      </trkpt>
      <trkpt lat="47.66123" lon="6.10905">
        <ele>271.39999389648</ele>
        <time>2012-04-18T09:12:17.000Z</time>
      </trkpt>
      <trkpt lat="47.66124" lon="6.10902">
        <ele>271.79998779297</ele>
        <time>2012-04-18T09:12:18.000Z</time>
      </trkpt>
      <trkpt lat="47.66127" lon="6.109">
        <ele>272.20001220703</ele>
        <time>2012-04-18T09:12:19.000Z</time>
      </trkpt>
      <trkpt lat="47.66129" lon="6.10898">
        <ele>272.79998779297</ele>
        <time>2012-04-18T09:12:20.000Z</time>
      </trkpt>
      <trkpt lat="47.6613" lon="6.10896">
        <ele>273.20001220703</ele>
        <time>2012-04-18T09:12:21.000Z</time>
      </trkpt>
      <trkpt lat="47.6614" lon="6.10884">
        <ele>273.20001220703</ele>
        <time>2012-04-18T09:12:26.000Z</time>
      </trkpt>
      <trkpt lat="47.66157" lon="6.10862">
        <ele>273.20001220703</ele>
        <time>2012-04-18T09:12:35.000Z</time>
      </trkpt>
      <trkpt lat="47.66164" lon="6.10853">
        <ele>273.60000610352</ele>
        <time>2012-04-18T09:12:38.000Z</time>
      </trkpt>
      <trkpt lat="47.66167" lon="6.1085">
        <ele>274</ele>
        <time>2012-04-18T09:12:39.000Z</time>
      </trkpt>
      <trkpt lat="47.6617" lon="6.10846">
        <ele>274.39999389648</ele>
        <time>2012-04-18T09:12:40.000Z</time>
      </trkpt>
      <trkpt lat="47.66173" lon="6.10842">
        <ele>274.79998779297</ele>
        <time>2012-04-18T09:12:41.000Z</time>
      </trkpt>
      <trkpt lat="47.66176" lon="6.10836">
        <ele>275.20001220703</ele>
        <time>2012-04-18T09:12:42.000Z</time>
      </trkpt>
      <trkpt lat="47.66184" lon="6.1082">
        <ele>275.20001220703</ele>
        <time>2012-04-18T09:12:45.000Z</time>
      </trkpt>
      <trkpt lat="47.66185" lon="6.10814">
        <ele>275.20001220703</ele>
        <time>2012-04-18T09:12:46.000Z</time>
      </trkpt>
      <trkpt lat="47.66189" lon="6.10804">
        <ele>275.20001220703</ele>
        <time>2012-04-18T09:12:48.000Z</time>
      </trkpt>
      <trkpt lat="47.66199" lon="6.10792">
        <ele>275.20001220703</ele>
        <time>2012-04-18T09:12:51.000Z</time>
      </trkpt>
      <trkpt lat="47.66205" lon="6.10785">
        <ele>275.20001220703</ele>
        <time>2012-04-18T09:12:53.000Z</time>
      </trkpt>
      <trkpt lat="47.66211" lon="6.10775">
        <ele>274.79998779297</ele>
        <time>2012-04-18T09:12:55.000Z</time>
      </trkpt>
      <trkpt lat="47.66214" lon="6.10771">
        <ele>274.39999389648</ele>
        <time>2012-04-18T09:12:56.000Z</time>
      </trkpt>
      <trkpt lat="47.66217" lon="6.10766">
        <ele>274</ele>
        <time>2012-04-18T09:12:57.000Z</time>
      </trkpt>
      <trkpt lat="47.6622" lon="6.10762">
        <ele>273.60000610352</ele>
        <time>2012-04-18T09:12:58.000Z</time>
      </trkpt>
      <trkpt lat="47.66222" lon="6.10757">
        <ele>273.20001220703</ele>
        <time>2012-04-18T09:12:59.000Z</time>
      </trkpt>
      <trkpt lat="47.66228" lon="6.10745">
        <ele>273.20001220703</ele>
        <time>2012-04-18T09:13:02.000Z</time>
      </trkpt>
      <trkpt lat="47.66241" lon="6.10718">
        <ele>272.60000610352</ele>
        <time>2012-04-18T09:13:08.000Z</time>
      </trkpt>
      <trkpt lat="47.66242" lon="6.10712">
        <ele>272.20001220703</ele>
        <time>2012-04-18T09:13:09.000Z</time>
      </trkpt>
      <trkpt lat="47.66243" lon="6.10705">
        <ele>271.79998779297</ele>
        <time>2012-04-18T09:13:10.000Z</time>
      </trkpt>
      <trkpt lat="47.66242" lon="6.10698">
        <ele>271.39999389648</ele>
        <time>2012-04-18T09:13:11.000Z</time>
      </trkpt>
      <trkpt lat="47.66241" lon="6.1069">
        <ele>271</ele>
        <time>2012-04-18T09:13:12.000Z</time>
      </trkpt>
      <trkpt lat="47.66235" lon="6.10665">
        <ele>270</ele>
        <time>2012-04-18T09:13:15.000Z</time>
      </trkpt>
      <trkpt lat="47.66233" lon="6.10656">
        <ele>269.39999389648</ele>
        <time>2012-04-18T09:13:16.000Z</time>
      </trkpt>
      <trkpt lat="47.66231" lon="6.10646">
        <ele>269</ele>
        <time>2012-04-18T09:13:17.000Z</time>
      </trkpt>
      <trkpt lat="47.66228" lon="6.10637">
        <ele>268.39999389648</ele>
        <time>2012-04-18T09:13:18.000Z</time>
      </trkpt>
      <trkpt lat="47.66226" lon="6.10628">
        <ele>268</ele>
        <time>2012-04-18T09:13:19.000Z</time>
      </trkpt>
      <trkpt lat="47.66223" lon="6.1062">
        <ele>267.60000610352</ele>
        <time>2012-04-18T09:13:20.000Z</time>
      </trkpt>
      <trkpt lat="47.66219" lon="6.10613">
        <ele>267.20001220703</ele>
        <time>2012-04-18T09:13:21.000Z</time>
      </trkpt>
      <trkpt lat="47.66215" lon="6.10605">
        <ele>266.79998779297</ele>
        <time>2012-04-18T09:13:22.000Z</time>
      </trkpt>
      <trkpt lat="47.6621" lon="6.10597">
        <ele>266.20001220703</ele>
        <time>2012-04-18T09:13:23.000Z</time>
      </trkpt>
      <trkpt lat="47.66206" lon="6.10589">
        <ele>265.60000610352</ele>
        <time>2012-04-18T09:13:24.000Z</time>
      </trkpt>
      <trkpt lat="47.66201" lon="6.1058">
        <ele>265</ele>
        <time>2012-04-18T09:13:25.000Z</time>
      </trkpt>
      <trkpt lat="47.66197" lon="6.10572">
        <ele>264.20001220703</ele>
        <time>2012-04-18T09:13:26.000Z</time>
      </trkpt>
      <trkpt lat="47.66193" lon="6.10565">
        <ele>263.60000610352</ele>
        <time>2012-04-18T09:13:27.000Z</time>
      </trkpt>
      <trkpt lat="47.66184" lon="6.10551">
        <ele>263.60000610352</ele>
        <time>2012-04-18T09:13:29.000Z</time>
      </trkpt>
      <trkpt lat="47.66172" lon="6.10528">
        <ele>263.60000610352</ele>
        <time>2012-04-18T09:13:33.000Z</time>
      </trkpt>
      <trkpt lat="47.66169" lon="6.10524">
        <ele>263.60000610352</ele>
        <time>2012-04-18T09:13:34.000Z</time>
      </trkpt>
      <trkpt lat="47.66156" lon="6.10503">
        <ele>263.60000610352</ele>
        <time>2012-04-18T09:13:40.000Z</time>
      </trkpt>
      <trkpt lat="47.66144" lon="6.10482">
        <ele>263.60000610352</ele>
        <time>2012-04-18T09:13:47.000Z</time>
      </trkpt>
      <trkpt lat="47.66133" lon="6.10463">
        <ele>263.60000610352</ele>
        <time>2012-04-18T09:13:53.000Z</time>
      </trkpt>
      <trkpt lat="47.66115" lon="6.10433">
        <ele>263.60000610352</ele>
        <time>2012-04-18T09:14:01.000Z</time>
      </trkpt>
      <trkpt lat="47.66093" lon="6.10396">
        <ele>263.60000610352</ele>
        <time>2012-04-18T09:14:10.000Z</time>
      </trkpt>
      <trkpt lat="47.66081" lon="6.10371">
        <ele>263.60000610352</ele>
        <time>2012-04-18T09:14:16.000Z</time>
      </trkpt>
      <trkpt lat="47.66082" lon="6.10367">
        <ele>263.60000610352</ele>
        <time>2012-04-18T09:14:17.000Z</time>
      </trkpt>
      <trkpt lat="47.66087" lon="6.10364">
        <ele>263.60000610352</ele>
        <time>2012-04-18T09:14:19.000Z</time>
      </trkpt>
      <trkpt lat="47.66093" lon="6.10374">
        <ele>263.60000610352</ele>
        <time>2012-04-18T09:14:22.000Z</time>
      </trkpt>
      <trkpt lat="47.66098" lon="6.10385">
        <ele>263.60000610352</ele>
        <time>2012-04-18T09:14:25.000Z</time>
      </trkpt>
      <trkpt lat="47.66105" lon="6.10396">
        <ele>263.60000610352</ele>
        <time>2012-04-18T09:14:28.000Z</time>
      </trkpt>
      <trkpt lat="47.6612" lon="6.10411">
        <ele>263.60000610352</ele>
        <time>2012-04-18T09:14:34.000Z</time>
      </trkpt>
      <trkpt lat="47.66131" lon="6.10403">
        <ele>263.60000610352</ele>
        <time>2012-04-18T09:14:38.000Z</time>
      </trkpt>
      <trkpt lat="47.66146" lon="6.10393">
        <ele>263.60000610352</ele>
        <time>2012-04-18T09:14:43.000Z</time>
      </trkpt>
      <trkpt lat="47.66154" lon="6.1039">
        <ele>263.60000610352</ele>
        <time>2012-04-18T09:14:45.000Z</time>
      </trkpt>
      <trkpt lat="47.66164" lon="6.10386">
        <ele>263.60000610352</ele>
        <time>2012-04-18T09:14:47.000Z</time>
      </trkpt>
      <trkpt lat="47.66171" lon="6.10384">
        <ele>263.60000610352</ele>
        <time>2012-04-18T09:14:48.000Z</time>
      </trkpt>
      <trkpt lat="47.66187" lon="6.10383">
        <ele>263.20001220703</ele>
        <time>2012-04-18T09:14:50.000Z</time>
      </trkpt>
      <trkpt lat="47.66195" lon="6.10381">
        <ele>262.79998779297</ele>
        <time>2012-04-18T09:14:51.000Z</time>
      </trkpt>
      <trkpt lat="47.66203" lon="6.10378">
        <ele>262.39999389648</ele>
        <time>2012-04-18T09:14:52.000Z</time>
      </trkpt>
      <trkpt lat="47.6621" lon="6.10374">
        <ele>261.60000610352</ele>
        <time>2012-04-18T09:14:53.000Z</time>
      </trkpt>
      <trkpt lat="47.66217" lon="6.1037">
        <ele>260.39999389648</ele>
        <time>2012-04-18T09:14:54.000Z</time>
      </trkpt>
      <trkpt lat="47.66224" lon="6.10365">
        <ele>259.79998779297</ele>
        <time>2012-04-18T09:14:55.000Z</time>
      </trkpt>
      <trkpt lat="47.6623" lon="6.1036">
        <ele>259.20001220703</ele>
        <time>2012-04-18T09:14:56.000Z</time>
      </trkpt>
      <trkpt lat="47.66262" lon="6.10332">
        <ele>259.20001220703</ele>
        <time>2012-04-18T09:15:02.000Z</time>
      </trkpt>
      <trkpt lat="47.66289" lon="6.1031">
        <ele>259.20001220703</ele>
        <time>2012-04-18T09:15:08.000Z</time>
      </trkpt>
      <trkpt lat="47.66323" lon="6.10286">
        <ele>259.20001220703</ele>
        <time>2012-04-18T09:15:16.000Z</time>
      </trkpt>
      <trkpt lat="47.66344" lon="6.10272">
        <ele>259.20001220703</ele>
        <time>2012-04-18T09:15:22.000Z</time>
      </trkpt>
      <trkpt lat="47.66373" lon="6.10254">
        <ele>259.20001220703</ele>
        <time>2012-04-18T09:15:29.000Z</time>
      </trkpt>
      <trkpt lat="47.66389" lon="6.10239">
        <ele>259.20001220703</ele>
        <time>2012-04-18T09:15:33.000Z</time>
      </trkpt>
      <trkpt lat="47.66393" lon="6.10232">
        <ele>259.20001220703</ele>
        <time>2012-04-18T09:15:34.000Z</time>
      </trkpt>
      <trkpt lat="47.66402" lon="6.10194">
        <ele>259.20001220703</ele>
        <time>2012-04-18T09:15:38.000Z</time>
      </trkpt>
      <trkpt lat="47.66404" lon="6.10183">
        <ele>258.60000610352</ele>
        <time>2012-04-18T09:15:39.000Z</time>
      </trkpt>
      <trkpt lat="47.66406" lon="6.10173">
        <ele>258.20001220703</ele>
        <time>2012-04-18T09:15:40.000Z</time>
      </trkpt>
      <trkpt lat="47.66409" lon="6.10164">
        <ele>257.79998779297</ele>
        <time>2012-04-18T09:15:41.000Z</time>
      </trkpt>
      <trkpt lat="47.66412" lon="6.10156">
        <ele>257.39999389648</ele>
        <time>2012-04-18T09:15:42.000Z</time>
      </trkpt>
      <trkpt lat="47.66415" lon="6.10148">
        <ele>256.79998779297</ele>
        <time>2012-04-18T09:15:43.000Z</time>
      </trkpt>
      <trkpt lat="47.66432" lon="6.10089">
        <ele>256.79998779297</ele>
        <time>2012-04-18T09:15:50.000Z</time>
      </trkpt>
      <trkpt lat="47.66442" lon="6.10011">
        <ele>256.79998779297</ele>
        <time>2012-04-18T09:15:59.000Z</time>
      </trkpt>
      <trkpt lat="47.66442" lon="6.09983">
        <ele>256.39999389648</ele>
        <time>2012-04-18T09:16:02.000Z</time>
      </trkpt>
      <trkpt lat="47.66441" lon="6.09974">
        <ele>256</ele>
        <time>2012-04-18T09:16:03.000Z</time>
      </trkpt>
      <trkpt lat="47.66441" lon="6.09964">
        <ele>255.60000610352</ele>
        <time>2012-04-18T09:16:04.000Z</time>
      </trkpt>
      <trkpt lat="47.66441" lon="6.09954">
        <ele>255.19999694824</ele>
        <time>2012-04-18T09:16:05.000Z</time>
      </trkpt>
      <trkpt lat="47.66441" lon="6.09945">
        <ele>254.80000305176</ele>
        <time>2012-04-18T09:16:06.000Z</time>
      </trkpt>
      <trkpt lat="47.6644" lon="6.09926">
        <ele>254.39999389648</ele>
        <time>2012-04-18T09:16:08.000Z</time>
      </trkpt>
      <trkpt lat="47.66439" lon="6.09916">
        <ele>253.60000610352</ele>
        <time>2012-04-18T09:16:09.000Z</time>
      </trkpt>
      <trkpt lat="47.66439" lon="6.09907">
        <ele>253</ele>
        <time>2012-04-18T09:16:10.000Z</time>
      </trkpt>
      <trkpt lat="47.66439" lon="6.09897">
        <ele>252.39999389648</ele>
        <time>2012-04-18T09:16:11.000Z</time>
      </trkpt>
      <trkpt lat="47.66439" lon="6.09886">
        <ele>251.80000305176</ele>
        <time>2012-04-18T09:16:12.000Z</time>
      </trkpt>
      <trkpt lat="47.66438" lon="6.09875">
        <ele>251.19999694824</ele>
        <time>2012-04-18T09:16:13.000Z</time>
      </trkpt>
      <trkpt lat="47.66436" lon="6.09865">
        <ele>250.60000610352</ele>
        <time>2012-04-18T09:16:14.000Z</time>
      </trkpt>
      <trkpt lat="47.66433" lon="6.09855">
        <ele>250.19999694824</ele>
        <time>2012-04-18T09:16:15.000Z</time>
      </trkpt>
      <trkpt lat="47.6643" lon="6.09847">
        <ele>249.60000610352</ele>
        <time>2012-04-18T09:16:16.000Z</time>
      </trkpt>
      <trkpt lat="47.66426" lon="6.09839">
        <ele>249.19999694824</ele>
        <time>2012-04-18T09:16:17.000Z</time>
      </trkpt>
      <trkpt lat="47.66423" lon="6.09831">
        <ele>248.80000305176</ele>
        <time>2012-04-18T09:16:18.000Z</time>
      </trkpt>
      <trkpt lat="47.6642" lon="6.09823">
        <ele>248.19999694824</ele>
        <time>2012-04-18T09:16:19.000Z</time>
      </trkpt>
      <trkpt lat="47.66414" lon="6.09807">
        <ele>248.19999694824</ele>
        <time>2012-04-18T09:16:21.000Z</time>
      </trkpt>
      <trkpt lat="47.6641" lon="6.0979">
        <ele>248.19999694824</ele>
        <time>2012-04-18T09:16:23.000Z</time>
      </trkpt>
      <trkpt lat="47.66408" lon="6.09773">
        <ele>248.19999694824</ele>
        <time>2012-04-18T09:16:25.000Z</time>
      </trkpt>
      <trkpt lat="47.66406" lon="6.09725">
        <ele>248.19999694824</ele>
        <time>2012-04-18T09:16:31.000Z</time>
      </trkpt>
      <trkpt lat="47.66415" lon="6.09691">
        <ele>248.19999694824</ele>
        <time>2012-04-18T09:16:36.000Z</time>
      </trkpt>
      <trkpt lat="47.66426" lon="6.09648">
        <ele>248.19999694824</ele>
        <time>2012-04-18T09:16:43.000Z</time>
      </trkpt>
      <trkpt lat="47.6643" lon="6.09637">
        <ele>248.19999694824</ele>
        <time>2012-04-18T09:16:46.000Z</time>
      </trkpt>
      <trkpt lat="47.66432" lon="6.09628">
        <ele>248.19999694824</ele>
        <time>2012-04-18T09:16:49.000Z</time>
      </trkpt>
      <trkpt lat="47.66433" lon="6.09625">
        <ele>248.80000305176</ele>
        <time>2012-04-18T09:16:50.000Z</time>
      </trkpt>
      <trkpt lat="47.66434" lon="6.09622">
        <ele>249.19999694824</ele>
        <time>2012-04-18T09:16:51.000Z</time>
      </trkpt>
      <trkpt lat="47.66434" lon="6.09619">
        <ele>249.60000610352</ele>
        <time>2012-04-18T09:16:52.000Z</time>
      </trkpt>
      <trkpt lat="47.66435" lon="6.09617">
        <ele>250</ele>
        <time>2012-04-18T09:16:53.000Z</time>
      </trkpt>
      <trkpt lat="47.66435" lon="6.09614">
        <ele>250.39999389648</ele>
        <time>2012-04-18T09:16:54.000Z</time>
      </trkpt>
      <trkpt lat="47.66436" lon="6.09609">
        <ele>250.39999389648</ele>
        <time>2012-04-18T09:16:56.000Z</time>
      </trkpt>
      <trkpt lat="47.66438" lon="6.09599">
        <ele>250.80000305176</ele>
        <time>2012-04-18T09:16:59.000Z</time>
      </trkpt>
      <trkpt lat="47.66438" lon="6.09596">
        <ele>251.39999389648</ele>
        <time>2012-04-18T09:17:00.000Z</time>
      </trkpt>
      <trkpt lat="47.6644" lon="6.09593">
        <ele>251.80000305176</ele>
        <time>2012-04-18T09:17:01.000Z</time>
      </trkpt>
      <trkpt lat="47.6644" lon="6.0959">
        <ele>252.19999694824</ele>
        <time>2012-04-18T09:17:02.000Z</time>
      </trkpt>
      <trkpt lat="47.66441" lon="6.09587">
        <ele>252.60000610352</ele>
        <time>2012-04-18T09:17:03.000Z</time>
      </trkpt>
      <trkpt lat="47.66442" lon="6.09577">
        <ele>252.60000610352</ele>
        <time>2012-04-18T09:17:06.000Z</time>
      </trkpt>
      <trkpt lat="47.66443" lon="6.09564">
        <ele>253</ele>
        <time>2012-04-18T09:17:10.000Z</time>
      </trkpt>
      <trkpt lat="47.66443" lon="6.09561">
        <ele>253.39999389648</ele>
        <time>2012-04-18T09:17:11.000Z</time>
      </trkpt>
      <trkpt lat="47.66443" lon="6.09559">
        <ele>253.80000305176</ele>
        <time>2012-04-18T09:17:12.000Z</time>
      </trkpt>
      <trkpt lat="47.66444" lon="6.09556">
        <ele>254.19999694824</ele>
        <time>2012-04-18T09:17:13.000Z</time>
      </trkpt>
      <trkpt lat="47.66444" lon="6.09553">
        <ele>254.80000305176</ele>
        <time>2012-04-18T09:17:14.000Z</time>
      </trkpt>
      <trkpt lat="47.66445" lon="6.0954">
        <ele>254.80000305176</ele>
        <time>2012-04-18T09:17:17.000Z</time>
      </trkpt>
      <trkpt lat="47.66445" lon="6.09515">
        <ele>254.80000305176</ele>
        <time>2012-04-18T09:17:23.000Z</time>
      </trkpt>
      <trkpt lat="47.66445" lon="6.09501">
        <ele>255.19999694824</ele>
        <time>2012-04-18T09:17:27.000Z</time>
      </trkpt>
      <trkpt lat="47.66445" lon="6.09498">
        <ele>255.60000610352</ele>
        <time>2012-04-18T09:17:28.000Z</time>
      </trkpt>
      <trkpt lat="47.66445" lon="6.09495">
        <ele>256</ele>
        <time>2012-04-18T09:17:29.000Z</time>
      </trkpt>
      <trkpt lat="47.66445" lon="6.09492">
        <ele>256.39999389648</ele>
        <time>2012-04-18T09:17:30.000Z</time>
      </trkpt>
      <trkpt lat="47.66446" lon="6.0949">
        <ele>256.79998779297</ele>
        <time>2012-04-18T09:17:31.000Z</time>
      </trkpt>
      <trkpt lat="47.66445" lon="6.09478">
        <ele>256.79998779297</ele>
        <time>2012-04-18T09:17:36.000Z</time>
      </trkpt>
      <trkpt lat="47.66446" lon="6.09458">
        <ele>256.79998779297</ele>
        <time>2012-04-18T09:17:42.000Z</time>
      </trkpt>
      <trkpt lat="47.66445" lon="6.09432">
        <ele>256.39999389648</ele>
        <time>2012-04-18T09:17:47.000Z</time>
      </trkpt>
      <trkpt lat="47.66445" lon="6.09425">
        <ele>256</ele>
        <time>2012-04-18T09:17:48.000Z</time>
      </trkpt>
      <trkpt lat="47.66443" lon="6.09416">
        <ele>255.60000610352</ele>
        <time>2012-04-18T09:17:49.000Z</time>
      </trkpt>
      <trkpt lat="47.66442" lon="6.09408">
        <ele>255.19999694824</ele>
        <time>2012-04-18T09:17:50.000Z</time>
      </trkpt>
      <trkpt lat="47.6644" lon="6.094">
        <ele>254.80000305176</ele>
        <time>2012-04-18T09:17:51.000Z</time>
      </trkpt>
      <trkpt lat="47.66438" lon="6.09391">
        <ele>254.19999694824</ele>
        <time>2012-04-18T09:17:52.000Z</time>
      </trkpt>
      <trkpt lat="47.66435" lon="6.09381">
        <ele>253.60000610352</ele>
        <time>2012-04-18T09:17:53.000Z</time>
      </trkpt>
      <trkpt lat="47.66433" lon="6.09371">
        <ele>253.19999694824</ele>
        <time>2012-04-18T09:17:54.000Z</time>
      </trkpt>
      <trkpt lat="47.6643" lon="6.09361">
        <ele>252.60000610352</ele>
        <time>2012-04-18T09:17:55.000Z</time>
      </trkpt>
      <trkpt lat="47.66427" lon="6.0935">
        <ele>252</ele>
        <time>2012-04-18T09:17:56.000Z</time>
      </trkpt>
      <trkpt lat="47.66425" lon="6.09338">
        <ele>251.39999389648</ele>
        <time>2012-04-18T09:17:57.000Z</time>
      </trkpt>
      <trkpt lat="47.66422" lon="6.09327">
        <ele>250.80000305176</ele>
        <time>2012-04-18T09:17:58.000Z</time>
      </trkpt>
      <trkpt lat="47.6642" lon="6.09316">
        <ele>250.19999694824</ele>
        <time>2012-04-18T09:17:59.000Z</time>
      </trkpt>
      <trkpt lat="47.66417" lon="6.09305">
        <ele>249.39999389648</ele>
        <time>2012-04-18T09:18:00.000Z</time>
      </trkpt>
      <trkpt lat="47.66414" lon="6.09294">
        <ele>248.80000305176</ele>
        <time>2012-04-18T09:18:01.000Z</time>
      </trkpt>
      <trkpt lat="47.66412" lon="6.09283">
        <ele>248.19999694824</ele>
        <time>2012-04-18T09:18:02.000Z</time>
      </trkpt>
      <trkpt lat="47.6641" lon="6.09272">
        <ele>247.39999389648</ele>
        <time>2012-04-18T09:18:03.000Z</time>
      </trkpt>
      <trkpt lat="47.66409" lon="6.09261">
        <ele>246.80000305176</ele>
        <time>2012-04-18T09:18:04.000Z</time>
      </trkpt>
      <trkpt lat="47.66407" lon="6.0925">
        <ele>246.80000305176</ele>
        <time>2012-04-18T09:18:05.000Z</time>
      </trkpt>
      <trkpt lat="47.66404" lon="6.09191">
        <ele>246.80000305176</ele>
        <time>2012-04-18T09:18:11.000Z</time>
      </trkpt>
      <trkpt lat="47.66403" lon="6.09182">
        <ele>246</ele>
        <time>2012-04-18T09:18:12.000Z</time>
      </trkpt>
      <trkpt lat="47.66403" lon="6.09172">
        <ele>245.60000610352</ele>
        <time>2012-04-18T09:18:13.000Z</time>
      </trkpt>
      <trkpt lat="47.66402" lon="6.09163">
        <ele>245.19999694824</ele>
        <time>2012-04-18T09:18:14.000Z</time>
      </trkpt>
      <trkpt lat="47.66402" lon="6.09154">
        <ele>244.60000610352</ele>
        <time>2012-04-18T09:18:15.000Z</time>
      </trkpt>
      <trkpt lat="47.66401" lon="6.09127">
        <ele>244.19999694824</ele>
        <time>2012-04-18T09:18:18.000Z</time>
      </trkpt>
      <trkpt lat="47.664" lon="6.09118">
        <ele>243.80000305176</ele>
        <time>2012-04-18T09:18:19.000Z</time>
      </trkpt>
      <trkpt lat="47.664" lon="6.09109">
        <ele>243.39999389648</ele>
        <time>2012-04-18T09:18:20.000Z</time>
      </trkpt>
      <trkpt lat="47.664" lon="6.091">
        <ele>243</ele>
        <time>2012-04-18T09:18:21.000Z</time>
      </trkpt>
      <trkpt lat="47.664" lon="6.09091">
        <ele>242.60000610352</ele>
        <time>2012-04-18T09:18:22.000Z</time>
      </trkpt>
      <trkpt lat="47.664" lon="6.09082">
        <ele>242.60000610352</ele>
        <time>2012-04-18T09:18:23.000Z</time>
      </trkpt>
      <trkpt lat="47.66401" lon="6.09074">
        <ele>242.60000610352</ele>
        <time>2012-04-18T09:18:24.000Z</time>
      </trkpt>
      <trkpt lat="47.66401" lon="6.09065">
        <ele>242.19999694824</ele>
        <time>2012-04-18T09:18:25.000Z</time>
      </trkpt>
      <trkpt lat="47.66403" lon="6.09057">
        <ele>241.80000305176</ele>
        <time>2012-04-18T09:18:26.000Z</time>
      </trkpt>
      <trkpt lat="47.66406" lon="6.0905">
        <ele>241.39999389648</ele>
        <time>2012-04-18T09:18:27.000Z</time>
      </trkpt>
      <trkpt lat="47.66411" lon="6.09044">
        <ele>241</ele>
        <time>2012-04-18T09:18:28.000Z</time>
      </trkpt>
      <trkpt lat="47.66416" lon="6.09041">
        <ele>240.60000610352</ele>
        <time>2012-04-18T09:18:29.000Z</time>
      </trkpt>
      <trkpt lat="47.66426" lon="6.09037">
        <ele>240.60000610352</ele>
        <time>2012-04-18T09:18:31.000Z</time>
      </trkpt>
      <trkpt lat="47.66431" lon="6.09037">
        <ele>240.60000610352</ele>
        <time>2012-04-18T09:18:32.000Z</time>
      </trkpt>
      <trkpt lat="47.6644" lon="6.09039">
        <ele>240.60000610352</ele>
        <time>2012-04-18T09:18:34.000Z</time>
      </trkpt>
      <trkpt lat="47.66444" lon="6.09039">
        <ele>240.60000610352</ele>
        <time>2012-04-18T09:18:35.000Z</time>
      </trkpt>
      <trkpt lat="47.66465" lon="6.09037">
        <ele>240.60000610352</ele>
        <time>2012-04-18T09:18:40.000Z</time>
      </trkpt>
      <trkpt lat="47.66473" lon="6.09036">
        <ele>240.60000610352</ele>
        <time>2012-04-18T09:18:42.000Z</time>
      </trkpt>
      <trkpt lat="47.66493" lon="6.09035">
        <ele>240.60000610352</ele>
        <time>2012-04-18T09:18:47.000Z</time>
      </trkpt>
      <trkpt lat="47.66506" lon="6.09035">
        <ele>240.60000610352</ele>
        <time>2012-04-18T09:18:50.000Z</time>
      </trkpt>
      <trkpt lat="47.66521" lon="6.09034">
        <ele>240.60000610352</ele>
        <time>2012-04-18T09:18:54.000Z</time>
      </trkpt>
      <trkpt lat="47.66529" lon="6.09034">
        <ele>240.60000610352</ele>
        <time>2012-04-18T09:18:56.000Z</time>
      </trkpt>
      <trkpt lat="47.66536" lon="6.09035">
        <ele>240.60000610352</ele>
        <time>2012-04-18T09:18:58.000Z</time>
      </trkpt>
      <trkpt lat="47.66559" lon="6.09042">
        <ele>240.60000610352</ele>
        <time>2012-04-18T09:19:04.000Z</time>
      </trkpt>
      <trkpt lat="47.66577" lon="6.09044">
        <ele>240.60000610352</ele>
        <time>2012-04-18T09:19:09.000Z</time>
      </trkpt>
      <trkpt lat="47.66599" lon="6.0905">
        <ele>240.19999694824</ele>
        <time>2012-04-18T09:19:15.000Z</time>
      </trkpt>
      <trkpt lat="47.66603" lon="6.0905">
        <ele>239.80000305176</ele>
        <time>2012-04-18T09:19:16.000Z</time>
      </trkpt>
      <trkpt lat="47.66607" lon="6.09051">
        <ele>239.39999389648</ele>
        <time>2012-04-18T09:19:17.000Z</time>
      </trkpt>
      <trkpt lat="47.6661" lon="6.09051">
        <ele>239</ele>
        <time>2012-04-18T09:19:18.000Z</time>
      </trkpt>
      <trkpt lat="47.66614" lon="6.09051">
        <ele>238.60000610352</ele>
        <time>2012-04-18T09:19:19.000Z</time>
      </trkpt>
      <trkpt lat="47.66625" lon="6.09055">
        <ele>238.60000610352</ele>
        <time>2012-04-18T09:19:22.000Z</time>
      </trkpt>
      <trkpt lat="47.66646" lon="6.09059">
        <ele>238.60000610352</ele>
        <time>2012-04-18T09:19:28.000Z</time>
      </trkpt>
      <trkpt lat="47.66659" lon="6.09055">
        <ele>238.60000610352</ele>
        <time>2012-04-18T09:19:32.000Z</time>
      </trkpt>
      <trkpt lat="47.66676" lon="6.09037">
        <ele>238.60000610352</ele>
        <time>2012-04-18T09:19:38.000Z</time>
      </trkpt>
      <trkpt lat="47.66697" lon="6.09016">
        <ele>238.60000610352</ele>
        <time>2012-04-18T09:19:45.000Z</time>
      </trkpt>
      <trkpt lat="47.6671" lon="6.09001">
        <ele>238.60000610352</ele>
        <time>2012-04-18T09:19:49.000Z</time>
      </trkpt>
      <trkpt lat="47.66715" lon="6.08992">
        <ele>238.60000610352</ele>
        <time>2012-04-18T09:19:51.000Z</time>
      </trkpt>
      <trkpt lat="47.66718" lon="6.08983">
        <ele>238.60000610352</ele>
        <time>2012-04-18T09:19:53.000Z</time>
      </trkpt>
      <trkpt lat="47.66727" lon="6.08959">
        <ele>238.60000610352</ele>
        <time>2012-04-18T09:19:58.000Z</time>
      </trkpt>
      <trkpt lat="47.6674" lon="6.08918">
        <ele>238.60000610352</ele>
        <time>2012-04-18T09:20:06.000Z</time>
      </trkpt>
      <trkpt lat="47.66751" lon="6.08884">
        <ele>238.60000610352</ele>
        <time>2012-04-18T09:20:13.000Z</time>
      </trkpt>
      <trkpt lat="47.66751" lon="6.08866">
        <ele>238.60000610352</ele>
        <time>2012-04-18T09:20:17.000Z</time>
      </trkpt>
      <trkpt lat="47.66749" lon="6.08862">
        <ele>238.19999694824</ele>
        <time>2012-04-18T09:20:18.000Z</time>
      </trkpt>
      <trkpt lat="47.66746" lon="6.08858">
        <ele>237.80000305176</ele>
        <time>2012-04-18T09:20:19.000Z</time>
      </trkpt>
      <trkpt lat="47.66744" lon="6.08854">
        <ele>237.39999389648</ele>
        <time>2012-04-18T09:20:20.000Z</time>
      </trkpt>
      <trkpt lat="47.66742" lon="6.0885">
        <ele>237</ele>
        <time>2012-04-18T09:20:21.000Z</time>
      </trkpt>
      <trkpt lat="47.6674" lon="6.08846">
        <ele>236.39999389648</ele>
        <time>2012-04-18T09:20:22.000Z</time>
      </trkpt>
      <trkpt lat="47.66736" lon="6.08838">
        <ele>236.39999389648</ele>
        <time>2012-04-18T09:20:24.000Z</time>
      </trkpt>
      <trkpt lat="47.66718" lon="6.08799">
        <ele>236.39999389648</ele>
        <time>2012-04-18T09:20:33.000Z</time>
      </trkpt>
      <trkpt lat="47.66712" lon="6.08764">
        <ele>236.39999389648</ele>
        <time>2012-04-18T09:20:40.000Z</time>
      </trkpt>
      <trkpt lat="47.66707" lon="6.08739">
        <ele>236.39999389648</ele>
        <time>2012-04-18T09:20:45.000Z</time>
      </trkpt>
      <trkpt lat="47.66702" lon="6.08705">
        <ele>236.39999389648</ele>
        <time>2012-04-18T09:20:52.000Z</time>
      </trkpt>
      <trkpt lat="47.66695" lon="6.08677">
        <ele>236.39999389648</ele>
        <time>2012-04-18T09:20:58.000Z</time>
      </trkpt>
      <trkpt lat="47.66689" lon="6.08648">
        <ele>236.39999389648</ele>
        <time>2012-04-18T09:21:05.000Z</time>
      </trkpt>
      <trkpt lat="47.66684" lon="6.08624">
        <ele>236.39999389648</ele>
        <time>2012-04-18T09:21:11.000Z</time>
      </trkpt>
      <trkpt lat="47.66682" lon="6.08606">
        <ele>236.39999389648</ele>
        <time>2012-04-18T09:21:15.000Z</time>
      </trkpt>
      <trkpt lat="47.66683" lon="6.08602">
        <ele>236.39999389648</ele>
        <time>2012-04-18T09:21:16.000Z</time>
      </trkpt>
      <trkpt lat="47.66683" lon="6.08577">
        <ele>236.39999389648</ele>
        <time>2012-04-18T09:21:21.000Z</time>
      </trkpt>
      <trkpt lat="47.66682" lon="6.0856">
        <ele>236.39999389648</ele>
        <time>2012-04-18T09:21:25.000Z</time>
      </trkpt>
      <trkpt lat="47.66685" lon="6.08544">
        <ele>236.39999389648</ele>
        <time>2012-04-18T09:21:30.000Z</time>
      </trkpt>
      <trkpt lat="47.66686" lon="6.08544">
        <ele>236.39999389648</ele>
        <time>2012-04-18T09:21:31.000Z</time>
      </trkpt>
      <trkpt lat="47.66686" lon="6.08544">
        <ele>236.39999389648</ele>
        <time>2012-04-18T09:21:37.000Z</time>
      </trkpt>
      <trkpt lat="47.66686" lon="6.08542">
        <ele>236.39999389648</ele>
        <time>2012-04-18T09:21:40.000Z</time>
      </trkpt>
      <trkpt lat="47.66689" lon="6.08523">
        <ele>236.39999389648</ele>
        <time>2012-04-18T09:21:45.000Z</time>
      </trkpt>
      <trkpt lat="47.66694" lon="6.08502">
        <ele>236.39999389648</ele>
        <time>2012-04-18T09:21:49.000Z</time>
      </trkpt>
      <trkpt lat="47.66702" lon="6.08478">
        <ele>236.39999389648</ele>
        <time>2012-04-18T09:21:54.000Z</time>
      </trkpt>
      <trkpt lat="47.66712" lon="6.0846">
        <ele>236.39999389648</ele>
        <time>2012-04-18T09:21:58.000Z</time>
      </trkpt>
      <trkpt lat="47.66714" lon="6.08456">
        <ele>236.39999389648</ele>
        <time>2012-04-18T09:21:59.000Z</time>
      </trkpt>
      <trkpt lat="47.66731" lon="6.08432">
        <ele>236.39999389648</ele>
        <time>2012-04-18T09:22:06.000Z</time>
      </trkpt>
      <trkpt lat="47.66739" lon="6.08415">
        <ele>236.39999389648</ele>
        <time>2012-04-18T09:22:11.000Z</time>
      </trkpt>
      <trkpt lat="47.6675" lon="6.08405">
        <ele>236.39999389648</ele>
        <time>2012-04-18T09:22:15.000Z</time>
      </trkpt>
      <trkpt lat="47.66766" lon="6.08397">
        <ele>236.39999389648</ele>
        <time>2012-04-18T09:22:20.000Z</time>
      </trkpt>
      <trkpt lat="47.66789" lon="6.08394">
        <ele>236.39999389648</ele>
        <time>2012-04-18T09:22:26.000Z</time>
      </trkpt>
      <trkpt lat="47.6681" lon="6.08394">
        <ele>236.39999389648</ele>
        <time>2012-04-18T09:22:31.000Z</time>
      </trkpt>
      <trkpt lat="47.66841" lon="6.08385">
        <ele>236.39999389648</ele>
        <time>2012-04-18T09:22:38.000Z</time>
      </trkpt>
      <trkpt lat="47.66857" lon="6.08374">
        <ele>237</ele>
        <time>2012-04-18T09:22:43.000Z</time>
      </trkpt>
      <trkpt lat="47.6686" lon="6.08372">
        <ele>237.39999389648</ele>
        <time>2012-04-18T09:22:44.000Z</time>
      </trkpt>
      <trkpt lat="47.66862" lon="6.0837">
        <ele>237.80000305176</ele>
        <time>2012-04-18T09:22:45.000Z</time>
      </trkpt>
      <trkpt lat="47.66864" lon="6.08368">
        <ele>238.39999389648</ele>
        <time>2012-04-18T09:22:46.000Z</time>
      </trkpt>
      <trkpt lat="47.66866" lon="6.08366">
        <ele>238.80000305176</ele>
        <time>2012-04-18T09:22:47.000Z</time>
      </trkpt>
      <trkpt lat="47.6687" lon="6.0836">
        <ele>238.80000305176</ele>
        <time>2012-04-18T09:22:49.000Z</time>
      </trkpt>
      <trkpt lat="47.66872" lon="6.08357">
        <ele>238.80000305176</ele>
        <time>2012-04-18T09:22:50.000Z</time>
      </trkpt>
      <trkpt lat="47.66883" lon="6.08344">
        <ele>238.80000305176</ele>
        <time>2012-04-18T09:22:54.000Z</time>
      </trkpt>
      <trkpt lat="47.66896" lon="6.08315">
        <ele>238.80000305176</ele>
        <time>2012-04-18T09:23:01.000Z</time>
      </trkpt>
      <trkpt lat="47.66906" lon="6.08294">
        <ele>238.80000305176</ele>
        <time>2012-04-18T09:23:07.000Z</time>
      </trkpt>
      <trkpt lat="47.66912" lon="6.08275">
        <ele>238.80000305176</ele>
        <time>2012-04-18T09:23:13.000Z</time>
      </trkpt>
      <trkpt lat="47.66915" lon="6.08265">
        <ele>239.19999694824</ele>
        <time>2012-04-18T09:23:16.000Z</time>
      </trkpt>
      <trkpt lat="47.66916" lon="6.08262">
        <ele>239.60000610352</ele>
        <time>2012-04-18T09:23:17.000Z</time>
      </trkpt>
      <trkpt lat="47.66917" lon="6.08258">
        <ele>240</ele>
        <time>2012-04-18T09:23:18.000Z</time>
      </trkpt>
      <trkpt lat="47.66918" lon="6.08255">
        <ele>240.39999389648</ele>
        <time>2012-04-18T09:23:19.000Z</time>
      </trkpt>
      <trkpt lat="47.66918" lon="6.08251">
        <ele>240.80000305176</ele>
        <time>2012-04-18T09:23:20.000Z</time>
      </trkpt>
      <trkpt lat="47.66917" lon="6.08239">
        <ele>240.80000305176</ele>
        <time>2012-04-18T09:23:24.000Z</time>
      </trkpt>
      <trkpt lat="47.66918" lon="6.08235">
        <ele>240.80000305176</ele>
        <time>2012-04-18T09:23:26.000Z</time>
      </trkpt>
      <trkpt lat="47.66918" lon="6.08231">
        <ele>241.19999694824</ele>
        <time>2012-04-18T09:23:28.000Z</time>
      </trkpt>
      <trkpt lat="47.66917" lon="6.08229">
        <ele>241.60000610352</ele>
        <time>2012-04-18T09:23:29.000Z</time>
      </trkpt>
      <trkpt lat="47.66916" lon="6.08227">
        <ele>242</ele>
        <time>2012-04-18T09:23:30.000Z</time>
      </trkpt>
      <trkpt lat="47.66916" lon="6.08225">
        <ele>242.39999389648</ele>
        <time>2012-04-18T09:23:31.000Z</time>
      </trkpt>
      <trkpt lat="47.66915" lon="6.08223">
        <ele>243</ele>
        <time>2012-04-18T09:23:32.000Z</time>
      </trkpt>
      <trkpt lat="47.66914" lon="6.08221">
        <ele>243</ele>
        <time>2012-04-18T09:23:33.000Z</time>
      </trkpt>
      <trkpt lat="47.66913" lon="6.08217">
        <ele>243</ele>
        <time>2012-04-18T09:23:35.000Z</time>
      </trkpt>
      <trkpt lat="47.66911" lon="6.08212">
        <ele>243</ele>
        <time>2012-04-18T09:23:38.000Z</time>
      </trkpt>
      <trkpt lat="47.66909" lon="6.0821">
        <ele>243</ele>
        <time>2012-04-18T09:23:40.000Z</time>
      </trkpt>
      <trkpt lat="47.66909" lon="6.0821">
        <ele>243</ele>
        <time>2012-04-18T09:23:41.000Z</time>
      </trkpt>
      <trkpt lat="47.66909" lon="6.08208">
        <ele>243</ele>
        <time>2012-04-18T09:23:59.000Z</time>
      </trkpt>
      <trkpt lat="47.66909" lon="6.08207">
        <ele>243</ele>
        <time>2012-04-18T09:24:00.000Z</time>
      </trkpt>
      <trkpt lat="47.66908" lon="6.08205">
        <ele>243</ele>
        <time>2012-04-18T09:24:01.000Z</time>
      </trkpt>
      <trkpt lat="47.66903" lon="6.08193">
        <ele>243</ele>
        <time>2012-04-18T09:24:06.000Z</time>
      </trkpt>
      <trkpt lat="47.66893" lon="6.08164">
        <ele>243</ele>
        <time>2012-04-18T09:24:12.000Z</time>
      </trkpt>
      <trkpt lat="47.66891" lon="6.08157">
        <ele>243</ele>
        <time>2012-04-18T09:24:13.000Z</time>
      </trkpt>
      <trkpt lat="47.66887" lon="6.08134">
        <ele>243</ele>
        <time>2012-04-18T09:24:16.000Z</time>
      </trkpt>
      <trkpt lat="47.6689" lon="6.08118">
        <ele>242.39999389648</ele>
        <time>2012-04-18T09:24:18.000Z</time>
      </trkpt>
      <trkpt lat="47.66893" lon="6.08111">
        <ele>241.80000305176</ele>
        <time>2012-04-18T09:24:19.000Z</time>
      </trkpt>
      <trkpt lat="47.66896" lon="6.08103">
        <ele>241.39999389648</ele>
        <time>2012-04-18T09:24:20.000Z</time>
      </trkpt>
      <trkpt lat="47.669" lon="6.08096">
        <ele>240.80000305176</ele>
        <time>2012-04-18T09:24:21.000Z</time>
      </trkpt>
      <trkpt lat="47.66904" lon="6.08089">
        <ele>239.80000305176</ele>
        <time>2012-04-18T09:24:22.000Z</time>
      </trkpt>
      <trkpt lat="47.66908" lon="6.08082">
        <ele>239.19999694824</ele>
        <time>2012-04-18T09:24:23.000Z</time>
      </trkpt>
      <trkpt lat="47.66913" lon="6.08075">
        <ele>238.60000610352</ele>
        <time>2012-04-18T09:24:24.000Z</time>
      </trkpt>
      <trkpt lat="47.66917" lon="6.08067">
        <ele>238</ele>
        <time>2012-04-18T09:24:25.000Z</time>
      </trkpt>
      <trkpt lat="47.66921" lon="6.0806">
        <ele>237.39999389648</ele>
        <time>2012-04-18T09:24:26.000Z</time>
      </trkpt>
      <trkpt lat="47.66924" lon="6.08054">
        <ele>236.80000305176</ele>
        <time>2012-04-18T09:24:27.000Z</time>
      </trkpt>
      <trkpt lat="47.66926" lon="6.08049">
        <ele>236.19999694824</ele>
        <time>2012-04-18T09:24:28.000Z</time>
      </trkpt>
      <trkpt lat="47.66928" lon="6.08045">
        <ele>235.60000610352</ele>
        <time>2012-04-18T09:24:29.000Z</time>
      </trkpt>
      <trkpt lat="47.66928" lon="6.08039">
        <ele>235.60000610352</ele>
        <time>2012-04-18T09:24:30.000Z</time>
      </trkpt>
      <trkpt lat="47.66927" lon="6.08034">
        <ele>235.19999694824</ele>
        <time>2012-04-18T09:24:31.000Z</time>
      </trkpt>
      <trkpt lat="47.66925" lon="6.0803">
        <ele>234.80000305176</ele>
        <time>2012-04-18T09:24:32.000Z</time>
      </trkpt>
      <trkpt lat="47.66923" lon="6.08026">
        <ele>234.39999389648</ele>
        <time>2012-04-18T09:24:33.000Z</time>
      </trkpt>
      <trkpt lat="47.66922" lon="6.08022">
        <ele>234</ele>
        <time>2012-04-18T09:24:34.000Z</time>
      </trkpt>
      <trkpt lat="47.66921" lon="6.08018">
        <ele>233.60000610352</ele>
        <time>2012-04-18T09:24:35.000Z</time>
      </trkpt>
      <trkpt lat="47.66924" lon="6.08003">
        <ele>233.60000610352</ele>
        <time>2012-04-18T09:24:39.000Z</time>
      </trkpt>
      <trkpt lat="47.66928" lon="6.07997">
        <ele>233.60000610352</ele>
        <time>2012-04-18T09:24:41.000Z</time>
      </trkpt>
      <trkpt lat="47.66939" lon="6.07983">
        <ele>233.60000610352</ele>
        <time>2012-04-18T09:24:45.000Z</time>
      </trkpt>
      <trkpt lat="47.66947" lon="6.0797">
        <ele>233.60000610352</ele>
        <time>2012-04-18T09:24:48.000Z</time>
      </trkpt>
      <trkpt lat="47.66957" lon="6.07951">
        <ele>233.60000610352</ele>
        <time>2012-04-18T09:24:52.000Z</time>
      </trkpt>
      <trkpt lat="47.66971" lon="6.07924">
        <ele>233.60000610352</ele>
        <time>2012-04-18T09:24:58.000Z</time>
      </trkpt>
      <trkpt lat="47.66987" lon="6.07909">
        <ele>233.60000610352</ele>
        <time>2012-04-18T09:25:04.000Z</time>
      </trkpt>
      <trkpt lat="47.67002" lon="6.07915">
        <ele>233.60000610352</ele>
        <time>2012-04-18T09:25:09.000Z</time>
      </trkpt>
      <trkpt lat="47.67015" lon="6.07919">
        <ele>234</ele>
        <time>2012-04-18T09:25:13.000Z</time>
      </trkpt>
      <trkpt lat="47.67018" lon="6.0792">
        <ele>234.39999389648</ele>
        <time>2012-04-18T09:25:14.000Z</time>
      </trkpt>
      <trkpt lat="47.67021" lon="6.0792">
        <ele>234.80000305176</ele>
        <time>2012-04-18T09:25:15.000Z</time>
      </trkpt>
      <trkpt lat="47.67024" lon="6.0792">
        <ele>235.19999694824</ele>
        <time>2012-04-18T09:25:16.000Z</time>
      </trkpt>
      <trkpt lat="47.67027" lon="6.07919">
        <ele>235.60000610352</ele>
        <time>2012-04-18T09:25:17.000Z</time>
      </trkpt>
      <trkpt lat="47.67035" lon="6.07917">
        <ele>235.60000610352</ele>
        <time>2012-04-18T09:25:20.000Z</time>
      </trkpt>
      <trkpt lat="47.67041" lon="6.07912">
        <ele>236</ele>
        <time>2012-04-18T09:25:23.000Z</time>
      </trkpt>
      <trkpt lat="47.67043" lon="6.0791">
        <ele>236.39999389648</ele>
        <time>2012-04-18T09:25:24.000Z</time>
      </trkpt>
      <trkpt lat="47.67044" lon="6.07907">
        <ele>236.80000305176</ele>
        <time>2012-04-18T09:25:25.000Z</time>
      </trkpt>
      <trkpt lat="47.67046" lon="6.07905">
        <ele>237.19999694824</ele>
        <time>2012-04-18T09:25:26.000Z</time>
      </trkpt>
      <trkpt lat="47.67047" lon="6.07903">
        <ele>237.60000610352</ele>
        <time>2012-04-18T09:25:27.000Z</time>
      </trkpt>
      <trkpt lat="47.67055" lon="6.07888">
        <ele>237.60000610352</ele>
        <time>2012-04-18T09:25:33.000Z</time>
      </trkpt>
      <trkpt lat="47.67057" lon="6.07884">
        <ele>238.19999694824</ele>
        <time>2012-04-18T09:25:35.000Z</time>
      </trkpt>
      <trkpt lat="47.67058" lon="6.07882">
        <ele>239</ele>
        <time>2012-04-18T09:25:36.000Z</time>
      </trkpt>
      <trkpt lat="47.67059" lon="6.0788">
        <ele>239.39999389648</ele>
        <time>2012-04-18T09:25:37.000Z</time>
      </trkpt>
      <trkpt lat="47.6706" lon="6.07879">
        <ele>239.80000305176</ele>
        <time>2012-04-18T09:25:38.000Z</time>
      </trkpt>
      <trkpt lat="47.67061" lon="6.07876">
        <ele>239.80000305176</ele>
        <time>2012-04-18T09:25:39.000Z</time>
      </trkpt>
      <trkpt lat="47.67064" lon="6.0787">
        <ele>239.80000305176</ele>
        <time>2012-04-18T09:25:42.000Z</time>
      </trkpt>
      <trkpt lat="47.67067" lon="6.07864">
        <ele>239.80000305176</ele>
        <time>2012-04-18T09:25:45.000Z</time>
      </trkpt>
      <trkpt lat="47.67069" lon="6.0786">
        <ele>240.19999694824</ele>
        <time>2012-04-18T09:25:47.000Z</time>
      </trkpt>
      <trkpt lat="47.6707" lon="6.07858">
        <ele>240.60000610352</ele>
        <time>2012-04-18T09:25:48.000Z</time>
      </trkpt>
      <trkpt lat="47.67071" lon="6.07856">
        <ele>241</ele>
        <time>2012-04-18T09:25:49.000Z</time>
      </trkpt>
      <trkpt lat="47.67072" lon="6.07854">
        <ele>241.39999389648</ele>
        <time>2012-04-18T09:25:50.000Z</time>
      </trkpt>
      <trkpt lat="47.67074" lon="6.07852">
        <ele>242</ele>
        <time>2012-04-18T09:25:51.000Z</time>
      </trkpt>
      <trkpt lat="47.67075" lon="6.0785">
        <ele>242</ele>
        <time>2012-04-18T09:25:52.000Z</time>
      </trkpt>
      <trkpt lat="47.67083" lon="6.07843">
        <ele>242</ele>
        <time>2012-04-18T09:25:58.000Z</time>
      </trkpt>
      <trkpt lat="47.67086" lon="6.07841">
        <ele>242.39999389648</ele>
        <time>2012-04-18T09:26:00.000Z</time>
      </trkpt>
      <trkpt lat="47.67087" lon="6.0784">
        <ele>243.19999694824</ele>
        <time>2012-04-18T09:26:01.000Z</time>
      </trkpt>
      <trkpt lat="47.67088" lon="6.07839">
        <ele>243.60000610352</ele>
        <time>2012-04-18T09:26:02.000Z</time>
      </trkpt>
      <trkpt lat="47.6709" lon="6.07837">
        <ele>244</ele>
        <time>2012-04-18T09:26:03.000Z</time>
      </trkpt>
      <trkpt lat="47.67093" lon="6.07835">
        <ele>244</ele>
        <time>2012-04-18T09:26:05.000Z</time>
      </trkpt>
      <trkpt lat="47.67107" lon="6.0783">
        <ele>244</ele>
        <time>2012-04-18T09:26:13.000Z</time>
      </trkpt>
      <trkpt lat="47.67116" lon="6.07826">
        <ele>244.39999389648</ele>
        <time>2012-04-18T09:26:18.000Z</time>
      </trkpt>
      <trkpt lat="47.67118" lon="6.07825">
        <ele>244.80000305176</ele>
        <time>2012-04-18T09:26:19.000Z</time>
      </trkpt>
      <trkpt lat="47.6712" lon="6.07823">
        <ele>245.19999694824</ele>
        <time>2012-04-18T09:26:20.000Z</time>
      </trkpt>
      <trkpt lat="47.67122" lon="6.07823">
        <ele>245.60000610352</ele>
        <time>2012-04-18T09:26:21.000Z</time>
      </trkpt>
      <trkpt lat="47.67124" lon="6.07822">
        <ele>246</ele>
        <time>2012-04-18T09:26:22.000Z</time>
      </trkpt>
      <trkpt lat="47.67131" lon="6.07821">
        <ele>246</ele>
        <time>2012-04-18T09:26:25.000Z</time>
      </trkpt>
      <trkpt lat="47.67144" lon="6.07822">
        <ele>246</ele>
        <time>2012-04-18T09:26:31.000Z</time>
      </trkpt>
      <trkpt lat="47.67159" lon="6.07815">
        <ele>246</ele>
        <time>2012-04-18T09:26:38.000Z</time>
      </trkpt>
      <trkpt lat="47.67162" lon="6.07815">
        <ele>246.39999389648</ele>
        <time>2012-04-18T09:26:39.000Z</time>
      </trkpt>
      <trkpt lat="47.67164" lon="6.07814">
        <ele>246.80000305176</ele>
        <time>2012-04-18T09:26:40.000Z</time>
      </trkpt>
      <trkpt lat="47.67167" lon="6.07812">
        <ele>247.19999694824</ele>
        <time>2012-04-18T09:26:41.000Z</time>
      </trkpt>
      <trkpt lat="47.67169" lon="6.07811">
        <ele>247.60000610352</ele>
        <time>2012-04-18T09:26:42.000Z</time>
      </trkpt>
      <trkpt lat="47.67172" lon="6.0781">
        <ele>248</ele>
        <time>2012-04-18T09:26:43.000Z</time>
      </trkpt>
      <trkpt lat="47.67174" lon="6.07809">
        <ele>248</ele>
        <time>2012-04-18T09:26:44.000Z</time>
      </trkpt>
      <trkpt lat="47.67187" lon="6.07801">
        <ele>248</ele>
        <time>2012-04-18T09:26:51.000Z</time>
      </trkpt>
      <trkpt lat="47.67204" lon="6.07789">
        <ele>248</ele>
        <time>2012-04-18T09:26:59.000Z</time>
      </trkpt>
      <trkpt lat="47.67212" lon="6.07785">
        <ele>248.39999389648</ele>
        <time>2012-04-18T09:27:03.000Z</time>
      </trkpt>
      <trkpt lat="47.67214" lon="6.07783">
        <ele>248.80000305176</ele>
        <time>2012-04-18T09:27:04.000Z</time>
      </trkpt>
      <trkpt lat="47.67216" lon="6.07782">
        <ele>249.19999694824</ele>
        <time>2012-04-18T09:27:05.000Z</time>
      </trkpt>
      <trkpt lat="47.67218" lon="6.0778">
        <ele>249.60000610352</ele>
        <time>2012-04-18T09:27:06.000Z</time>
      </trkpt>
      <trkpt lat="47.6722" lon="6.0778">
        <ele>250</ele>
        <time>2012-04-18T09:27:07.000Z</time>
      </trkpt>
      <trkpt lat="47.67222" lon="6.07779">
        <ele>250</ele>
        <time>2012-04-18T09:27:08.000Z</time>
      </trkpt>
      <trkpt lat="47.67234" lon="6.0777">
        <ele>250</ele>
        <time>2012-04-18T09:27:14.000Z</time>
      </trkpt>
      <trkpt lat="47.67247" lon="6.07753">
        <ele>250</ele>
        <time>2012-04-18T09:27:21.000Z</time>
      </trkpt>
      <trkpt lat="47.67257" lon="6.0775">
        <ele>250</ele>
        <time>2012-04-18T09:27:26.000Z</time>
      </trkpt>
      <trkpt lat="47.67258" lon="6.0775">
        <ele>250.60000610352</ele>
        <time>2012-04-18T09:27:27.000Z</time>
      </trkpt>
      <trkpt lat="47.6726" lon="6.07749">
        <ele>251</ele>
        <time>2012-04-18T09:27:28.000Z</time>
      </trkpt>
      <trkpt lat="47.67261" lon="6.07748">
        <ele>251.39999389648</ele>
        <time>2012-04-18T09:27:29.000Z</time>
      </trkpt>
      <trkpt lat="47.67262" lon="6.07748">
        <ele>251.80000305176</ele>
        <time>2012-04-18T09:27:30.000Z</time>
      </trkpt>
      <trkpt lat="47.67264" lon="6.07747">
        <ele>252.39999389648</ele>
        <time>2012-04-18T09:27:31.000Z</time>
      </trkpt>
      <trkpt lat="47.67266" lon="6.07746">
        <ele>252.39999389648</ele>
        <time>2012-04-18T09:27:33.000Z</time>
      </trkpt>
      <trkpt lat="47.67275" lon="6.07745">
        <ele>252.80000305176</ele>
        <time>2012-04-18T09:27:39.000Z</time>
      </trkpt>
      <trkpt lat="47.67276" lon="6.07745">
        <ele>253.19999694824</ele>
        <time>2012-04-18T09:27:40.000Z</time>
      </trkpt>
      <trkpt lat="47.67277" lon="6.07744">
        <ele>253.60000610352</ele>
        <time>2012-04-18T09:27:41.000Z</time>
      </trkpt>
      <trkpt lat="47.67279" lon="6.07743">
        <ele>254</ele>
        <time>2012-04-18T09:27:42.000Z</time>
      </trkpt>
      <trkpt lat="47.67281" lon="6.07742">
        <ele>254.60000610352</ele>
        <time>2012-04-18T09:27:43.000Z</time>
      </trkpt>
      <trkpt lat="47.67285" lon="6.07739">
        <ele>254.60000610352</ele>
        <time>2012-04-18T09:27:46.000Z</time>
      </trkpt>
      <trkpt lat="47.67293" lon="6.07737">
        <ele>254.60000610352</ele>
        <time>2012-04-18T09:27:51.000Z</time>
      </trkpt>
      <trkpt lat="47.67295" lon="6.07736">
        <ele>255</ele>
        <time>2012-04-18T09:27:53.000Z</time>
      </trkpt>
      <trkpt lat="47.67297" lon="6.07735">
        <ele>255.39999389648</ele>
        <time>2012-04-18T09:27:54.000Z</time>
      </trkpt>
      <trkpt lat="47.67298" lon="6.07735">
        <ele>255.80000305176</ele>
        <time>2012-04-18T09:27:55.000Z</time>
      </trkpt>
      <trkpt lat="47.673" lon="6.07734">
        <ele>256.20001220703</ele>
        <time>2012-04-18T09:27:56.000Z</time>
      </trkpt>
      <trkpt lat="47.67301" lon="6.07734">
        <ele>256.60000610352</ele>
        <time>2012-04-18T09:27:57.000Z</time>
      </trkpt>
      <trkpt lat="47.67305" lon="6.07734">
        <ele>256.60000610352</ele>
        <time>2012-04-18T09:28:00.000Z</time>
      </trkpt>
      <trkpt lat="47.67316" lon="6.07737">
        <ele>256.60000610352</ele>
        <time>2012-04-18T09:28:07.000Z</time>
      </trkpt>
      <trkpt lat="47.67325" lon="6.0774">
        <ele>256.60000610352</ele>
        <time>2012-04-18T09:28:14.000Z</time>
      </trkpt>
      <trkpt lat="47.67327" lon="6.0774">
        <ele>257</ele>
        <time>2012-04-18T09:28:15.000Z</time>
      </trkpt>
      <trkpt lat="47.67328" lon="6.07741">
        <ele>257.39999389648</ele>
        <time>2012-04-18T09:28:16.000Z</time>
      </trkpt>
      <trkpt lat="47.6733" lon="6.07742">
        <ele>257.79998779297</ele>
        <time>2012-04-18T09:28:17.000Z</time>
      </trkpt>
      <trkpt lat="47.67332" lon="6.07742">
        <ele>258.20001220703</ele>
        <time>2012-04-18T09:28:18.000Z</time>
      </trkpt>
      <trkpt lat="47.67333" lon="6.07743">
        <ele>258.60000610352</ele>
        <time>2012-04-18T09:28:19.000Z</time>
      </trkpt>
      <trkpt lat="47.67335" lon="6.07743">
        <ele>258.60000610352</ele>
        <time>2012-04-18T09:28:20.000Z</time>
      </trkpt>
      <trkpt lat="47.67345" lon="6.07746">
        <ele>258.60000610352</ele>
        <time>2012-04-18T09:28:27.000Z</time>
      </trkpt>
      <trkpt lat="47.67357" lon="6.07751">
        <ele>258.60000610352</ele>
        <time>2012-04-18T09:28:34.000Z</time>
      </trkpt>
      <trkpt lat="47.67363" lon="6.07755">
        <ele>258.60000610352</ele>
        <time>2012-04-18T09:28:38.000Z</time>
      </trkpt>
      <trkpt lat="47.67368" lon="6.07757">
        <ele>258.60000610352</ele>
        <time>2012-04-18T09:28:40.000Z</time>
      </trkpt>
      <trkpt lat="47.67374" lon="6.0776">
        <ele>258.60000610352</ele>
        <time>2012-04-18T09:28:43.000Z</time>
      </trkpt>
      <trkpt lat="47.67381" lon="6.07761">
        <ele>258.60000610352</ele>
        <time>2012-04-18T09:28:47.000Z</time>
      </trkpt>
      <trkpt lat="47.67392" lon="6.07764">
        <ele>258.60000610352</ele>
        <time>2012-04-18T09:28:53.000Z</time>
      </trkpt>
      <trkpt lat="47.67396" lon="6.07766">
        <ele>259</ele>
        <time>2012-04-18T09:28:56.000Z</time>
      </trkpt>
      <trkpt lat="47.67398" lon="6.07766">
        <ele>259.39999389648</ele>
        <time>2012-04-18T09:28:57.000Z</time>
      </trkpt>
      <trkpt lat="47.67399" lon="6.07767">
        <ele>260</ele>
        <time>2012-04-18T09:28:58.000Z</time>
      </trkpt>
      <trkpt lat="47.67401" lon="6.07768">
        <ele>260.39999389648</ele>
        <time>2012-04-18T09:28:59.000Z</time>
      </trkpt>
      <trkpt lat="47.67403" lon="6.07769">
        <ele>260.79998779297</ele>
        <time>2012-04-18T09:29:00.000Z</time>
      </trkpt>
      <trkpt lat="47.67411" lon="6.0777">
        <ele>260.79998779297</ele>
        <time>2012-04-18T09:29:06.000Z</time>
      </trkpt>
      <trkpt lat="47.67418" lon="6.07771">
        <ele>260.79998779297</ele>
        <time>2012-04-18T09:29:12.000Z</time>
      </trkpt>
      <trkpt lat="47.67432" lon="6.07772">
        <ele>260.79998779297</ele>
        <time>2012-04-18T09:29:19.000Z</time>
      </trkpt>
      <trkpt lat="47.67446" lon="6.07777">
        <ele>260.79998779297</ele>
        <time>2012-04-18T09:29:24.000Z</time>
      </trkpt>
      <trkpt lat="47.67457" lon="6.07781">
        <ele>260.79998779297</ele>
        <time>2012-04-18T09:29:29.000Z</time>
      </trkpt>
      <trkpt lat="47.67464" lon="6.07787">
        <ele>260.79998779297</ele>
        <time>2012-04-18T09:29:34.000Z</time>
      </trkpt>
      <trkpt lat="47.67471" lon="6.07796">
        <ele>260.79998779297</ele>
        <time>2012-04-18T09:29:38.000Z</time>
      </trkpt>
      <trkpt lat="47.67484" lon="6.07802">
        <ele>260.79998779297</ele>
        <time>2012-04-18T09:29:43.000Z</time>
      </trkpt>
      <trkpt lat="47.6749" lon="6.07802">
        <ele>261.20001220703</ele>
        <time>2012-04-18T09:29:46.000Z</time>
      </trkpt>
      <trkpt lat="47.67492" lon="6.07801">
        <ele>261.60000610352</ele>
        <time>2012-04-18T09:29:47.000Z</time>
      </trkpt>
      <trkpt lat="47.67494" lon="6.07801">
        <ele>262</ele>
        <time>2012-04-18T09:29:48.000Z</time>
      </trkpt>
      <trkpt lat="47.67495" lon="6.078">
        <ele>262.39999389648</ele>
        <time>2012-04-18T09:29:49.000Z</time>
      </trkpt>
      <trkpt lat="47.67497" lon="6.07798">
        <ele>263</ele>
        <time>2012-04-18T09:29:50.000Z</time>
      </trkpt>
      <trkpt lat="47.67502" lon="6.07794">
        <ele>263</ele>
        <time>2012-04-18T09:29:53.000Z</time>
      </trkpt>
      <trkpt lat="47.67505" lon="6.0779">
        <ele>263.39999389648</ele>
        <time>2012-04-18T09:29:55.000Z</time>
      </trkpt>
      <trkpt lat="47.67505" lon="6.07789">
        <ele>263.79998779297</ele>
        <time>2012-04-18T09:29:56.000Z</time>
      </trkpt>
      <trkpt lat="47.67506" lon="6.07787">
        <ele>264.20001220703</ele>
        <time>2012-04-18T09:29:57.000Z</time>
      </trkpt>
      <trkpt lat="47.67507" lon="6.07786">
        <ele>264.60000610352</ele>
        <time>2012-04-18T09:29:58.000Z</time>
      </trkpt>
      <trkpt lat="47.6751" lon="6.07783">
        <ele>265</ele>
        <time>2012-04-18T09:29:59.000Z</time>
      </trkpt>
      <trkpt lat="47.67514" lon="6.07776">
        <ele>265</ele>
        <time>2012-04-18T09:30:02.000Z</time>
      </trkpt>
      <trkpt lat="47.67519" lon="6.07772">
        <ele>265</ele>
        <time>2012-04-18T09:30:07.000Z</time>
      </trkpt>
      <trkpt lat="47.67519" lon="6.07772">
        <ele>266.60000610352</ele>
        <time>2012-04-18T09:30:11.000Z</time>
      </trkpt>
      <trkpt lat="47.6752" lon="6.07771">
        <ele>267</ele>
        <time>2012-04-18T09:30:12.000Z</time>
      </trkpt>
      <trkpt lat="47.67522" lon="6.07769">
        <ele>267</ele>
        <time>2012-04-18T09:30:15.000Z</time>
      </trkpt>
      <trkpt lat="47.67522" lon="6.07768">
        <ele>267</ele>
        <time>2012-04-18T09:30:27.000Z</time>
      </trkpt>
      <trkpt lat="47.67526" lon="6.07759">
        <ele>267</ele>
        <time>2012-04-18T09:30:34.000Z</time>
      </trkpt>
      <trkpt lat="47.67528" lon="6.07757">
        <ele>267</ele>
        <time>2012-04-18T09:30:36.000Z</time>
      </trkpt>
      <trkpt lat="47.67533" lon="6.07751">
        <ele>267</ele>
        <time>2012-04-18T09:30:40.000Z</time>
      </trkpt>
      <trkpt lat="47.67536" lon="6.07747">
        <ele>267</ele>
        <time>2012-04-18T09:30:42.000Z</time>
      </trkpt>
      <trkpt lat="47.67538" lon="6.07744">
        <ele>267.39999389648</ele>
        <time>2012-04-18T09:30:43.000Z</time>
      </trkpt>
      <trkpt lat="47.67539" lon="6.07742">
        <ele>267.79998779297</ele>
        <time>2012-04-18T09:30:44.000Z</time>
      </trkpt>
      <trkpt lat="47.67541" lon="6.07739">
        <ele>268.20001220703</ele>
        <time>2012-04-18T09:30:45.000Z</time>
      </trkpt>
      <trkpt lat="47.67542" lon="6.07737">
        <ele>268.60000610352</ele>
        <time>2012-04-18T09:30:46.000Z</time>
      </trkpt>
      <trkpt lat="47.67543" lon="6.07736">
        <ele>269</ele>
        <time>2012-04-18T09:30:47.000Z</time>
      </trkpt>
      <trkpt lat="47.67549" lon="6.07727">
        <ele>269</ele>
        <time>2012-04-18T09:30:52.000Z</time>
      </trkpt>
      <trkpt lat="47.67552" lon="6.07724">
        <ele>269</ele>
        <time>2012-04-18T09:30:54.000Z</time>
      </trkpt>
      <trkpt lat="47.67554" lon="6.07719">
        <ele>269</ele>
        <time>2012-04-18T09:30:57.000Z</time>
      </trkpt>
      <trkpt lat="47.67555" lon="6.07719">
        <ele>269</ele>
        <time>2012-04-18T09:30:58.000Z</time>
      </trkpt>
      <trkpt lat="47.67561" lon="6.07711">
        <ele>269</ele>
        <time>2012-04-18T09:31:02.000Z</time>
      </trkpt>
      <trkpt lat="47.67563" lon="6.07709">
        <ele>269.39999389648</ele>
        <time>2012-04-18T09:31:04.000Z</time>
      </trkpt>
      <trkpt lat="47.67564" lon="6.07707">
        <ele>269.79998779297</ele>
        <time>2012-04-18T09:31:05.000Z</time>
      </trkpt>
      <trkpt lat="47.67566" lon="6.07706">
        <ele>270.20001220703</ele>
        <time>2012-04-18T09:31:06.000Z</time>
      </trkpt>
      <trkpt lat="47.67567" lon="6.07705">
        <ele>270.60000610352</ele>
        <time>2012-04-18T09:31:07.000Z</time>
      </trkpt>
      <trkpt lat="47.67568" lon="6.07704">
        <ele>271.20001220703</ele>
        <time>2012-04-18T09:31:08.000Z</time>
      </trkpt>
      <trkpt lat="47.67574" lon="6.07695">
        <ele>271.20001220703</ele>
        <time>2012-04-18T09:31:13.000Z</time>
      </trkpt>
      <trkpt lat="47.67578" lon="6.0769">
        <ele>271.20001220703</ele>
        <time>2012-04-18T09:31:15.000Z</time>
      </trkpt>
      <trkpt lat="47.67583" lon="6.07682">
        <ele>271.20001220703</ele>
        <time>2012-04-18T09:31:18.000Z</time>
      </trkpt>
      <trkpt lat="47.6759" lon="6.07674">
        <ele>271.20001220703</ele>
        <time>2012-04-18T09:31:21.000Z</time>
      </trkpt>
      <trkpt lat="47.676" lon="6.0766">
        <ele>272</ele>
        <time>2012-04-18T09:31:26.000Z</time>
      </trkpt>
      <trkpt lat="47.67601" lon="6.07658">
        <ele>272.39999389648</ele>
        <time>2012-04-18T09:31:28.000Z</time>
      </trkpt>
      <trkpt lat="47.67603" lon="6.07656">
        <ele>272.79998779297</ele>
        <time>2012-04-18T09:31:29.000Z</time>
      </trkpt>
      <trkpt lat="47.67605" lon="6.07654">
        <ele>273.20001220703</ele>
        <time>2012-04-18T09:31:30.000Z</time>
      </trkpt>
      <trkpt lat="47.67611" lon="6.07647">
        <ele>273.20001220703</ele>
        <time>2012-04-18T09:31:34.000Z</time>
      </trkpt>
      <trkpt lat="47.6762" lon="6.07636">
        <ele>273.20001220703</ele>
        <time>2012-04-18T09:31:40.000Z</time>
      </trkpt>
      <trkpt lat="47.67627" lon="6.07624">
        <ele>273.20001220703</ele>
        <time>2012-04-18T09:31:46.000Z</time>
      </trkpt>
      <trkpt lat="47.67634" lon="6.07616">
        <ele>273.60000610352</ele>
        <time>2012-04-18T09:31:51.000Z</time>
      </trkpt>
      <trkpt lat="47.67635" lon="6.07614">
        <ele>274</ele>
        <time>2012-04-18T09:31:52.000Z</time>
      </trkpt>
      <trkpt lat="47.67636" lon="6.07611">
        <ele>274.39999389648</ele>
        <time>2012-04-18T09:31:53.000Z</time>
      </trkpt>
      <trkpt lat="47.67638" lon="6.0761">
        <ele>274.79998779297</ele>
        <time>2012-04-18T09:31:54.000Z</time>
      </trkpt>
      <trkpt lat="47.67639" lon="6.07608">
        <ele>275.20001220703</ele>
        <time>2012-04-18T09:31:55.000Z</time>
      </trkpt>
      <trkpt lat="47.67641" lon="6.07606">
        <ele>275.20001220703</ele>
        <time>2012-04-18T09:31:56.000Z</time>
      </trkpt>
      <trkpt lat="47.67649" lon="6.07596">
        <ele>275.20001220703</ele>
        <time>2012-04-18T09:32:02.000Z</time>
      </trkpt>
      <trkpt lat="47.67659" lon="6.0758">
        <ele>275.20001220703</ele>
        <time>2012-04-18T09:32:08.000Z</time>
      </trkpt>
      <trkpt lat="47.67662" lon="6.07565">
        <ele>275.20001220703</ele>
        <time>2012-04-18T09:32:15.000Z</time>
      </trkpt>
      <trkpt lat="47.67661" lon="6.07553">
        <ele>275.20001220703</ele>
        <time>2012-04-18T09:32:20.000Z</time>
      </trkpt>
      <trkpt lat="47.67659" lon="6.07548">
        <ele>275.20001220703</ele>
        <time>2012-04-18T09:32:22.000Z</time>
      </trkpt>
      <trkpt lat="47.67658" lon="6.07537">
        <ele>275.20001220703</ele>
        <time>2012-04-18T09:32:27.000Z</time>
      </trkpt>
      <trkpt lat="47.67658" lon="6.07535">
        <ele>275.20001220703</ele>
        <time>2012-04-18T09:32:28.000Z</time>
      </trkpt>
      <trkpt lat="47.67664" lon="6.07529">
        <ele>275.60000610352</ele>
        <time>2012-04-18T09:32:32.000Z</time>
      </trkpt>
      <trkpt lat="47.67665" lon="6.07528">
        <ele>276</ele>
        <time>2012-04-18T09:32:33.000Z</time>
      </trkpt>
      <trkpt lat="47.67667" lon="6.07526">
        <ele>276.39999389648</ele>
        <time>2012-04-18T09:32:34.000Z</time>
      </trkpt>
      <trkpt lat="47.67668" lon="6.07525">
        <ele>277.20001220703</ele>
        <time>2012-04-18T09:32:35.000Z</time>
      </trkpt>
      <trkpt lat="47.6767" lon="6.07522">
        <ele>277.20001220703</ele>
        <time>2012-04-18T09:32:36.000Z</time>
      </trkpt>
      <trkpt lat="47.67672" lon="6.07516">
        <ele>277.20001220703</ele>
        <time>2012-04-18T09:32:38.000Z</time>
      </trkpt>
      <trkpt lat="47.67682" lon="6.07499">
        <ele>277.20001220703</ele>
        <time>2012-04-18T09:32:45.000Z</time>
      </trkpt>
      <trkpt lat="47.67683" lon="6.07498">
        <ele>277.20001220703</ele>
        <time>2012-04-18T09:32:46.000Z</time>
      </trkpt>
      <trkpt lat="47.67684" lon="6.07493">
        <ele>277.20001220703</ele>
        <time>2012-04-18T09:32:49.000Z</time>
      </trkpt>
      <trkpt lat="47.67686" lon="6.07491">
        <ele>277.20001220703</ele>
        <time>2012-04-18T09:32:50.000Z</time>
      </trkpt>
      <trkpt lat="47.67694" lon="6.07479">
        <ele>277.20001220703</ele>
        <time>2012-04-18T09:32:56.000Z</time>
      </trkpt>
      <trkpt lat="47.67696" lon="6.07476">
        <ele>277.20001220703</ele>
        <time>2012-04-18T09:32:58.000Z</time>
      </trkpt>
      <trkpt lat="47.67699" lon="6.07471">
        <ele>277.20001220703</ele>
        <time>2012-04-18T09:33:01.000Z</time>
      </trkpt>
      <trkpt lat="47.67712" lon="6.07456">
        <ele>277.20001220703</ele>
        <time>2012-04-18T09:33:08.000Z</time>
      </trkpt>
      <trkpt lat="47.6772" lon="6.07444">
        <ele>277.20001220703</ele>
        <time>2012-04-18T09:33:14.000Z</time>
      </trkpt>
      <trkpt lat="47.6773" lon="6.07432">
        <ele>277.20001220703</ele>
        <time>2012-04-18T09:33:19.000Z</time>
      </trkpt>
      <trkpt lat="47.67732" lon="6.07429">
        <ele>277.20001220703</ele>
        <time>2012-04-18T09:33:20.000Z</time>
      </trkpt>
      <trkpt lat="47.67738" lon="6.0742">
        <ele>277.20001220703</ele>
        <time>2012-04-18T09:33:24.000Z</time>
      </trkpt>
      <trkpt lat="47.67743" lon="6.07413">
        <ele>277.20001220703</ele>
        <time>2012-04-18T09:33:28.000Z</time>
      </trkpt>
      <trkpt lat="47.67747" lon="6.07407">
        <ele>277.20001220703</ele>
        <time>2012-04-18T09:33:30.000Z</time>
      </trkpt>
      <trkpt lat="47.67748" lon="6.07404">
        <ele>277.20001220703</ele>
        <time>2012-04-18T09:33:32.000Z</time>
      </trkpt>
      <trkpt lat="47.67752" lon="6.07399">
        <ele>277.20001220703</ele>
        <time>2012-04-18T09:33:35.000Z</time>
      </trkpt>
      <trkpt lat="47.67757" lon="6.0739">
        <ele>277.20001220703</ele>
        <time>2012-04-18T09:33:40.000Z</time>
      </trkpt>
      <trkpt lat="47.67758" lon="6.07389">
        <ele>277.20001220703</ele>
        <time>2012-04-18T09:33:41.000Z</time>
      </trkpt>
      <trkpt lat="47.67767" lon="6.07376">
        <ele>277.20001220703</ele>
        <time>2012-04-18T09:33:47.000Z</time>
      </trkpt>
      <trkpt lat="47.67777" lon="6.07359">
        <ele>277.20001220703</ele>
        <time>2012-04-18T09:33:53.000Z</time>
      </trkpt>
      <trkpt lat="47.67779" lon="6.07356">
        <ele>277.20001220703</ele>
        <time>2012-04-18T09:33:54.000Z</time>
      </trkpt>
      <trkpt lat="47.67787" lon="6.07345">
        <ele>277.20001220703</ele>
        <time>2012-04-18T09:33:57.000Z</time>
      </trkpt>
      <trkpt lat="47.6779" lon="6.07342">
        <ele>277.20001220703</ele>
        <time>2012-04-18T09:33:58.000Z</time>
      </trkpt>
      <trkpt lat="47.67804" lon="6.07324">
        <ele>277.20001220703</ele>
        <time>2012-04-18T09:34:04.000Z</time>
      </trkpt>
      <trkpt lat="47.67807" lon="6.0732">
        <ele>276.79998779297</ele>
        <time>2012-04-18T09:34:06.000Z</time>
      </trkpt>
      <trkpt lat="47.67809" lon="6.07318">
        <ele>276.39999389648</ele>
        <time>2012-04-18T09:34:07.000Z</time>
      </trkpt>
      <trkpt lat="47.6781" lon="6.07316">
        <ele>275.79998779297</ele>
        <time>2012-04-18T09:34:08.000Z</time>
      </trkpt>
      <trkpt lat="47.67811" lon="6.07315">
        <ele>275.39999389648</ele>
        <time>2012-04-18T09:34:09.000Z</time>
      </trkpt>
      <trkpt lat="47.67812" lon="6.07313">
        <ele>275</ele>
        <time>2012-04-18T09:34:10.000Z</time>
      </trkpt>
      <trkpt lat="47.67816" lon="6.07309">
        <ele>275</ele>
        <time>2012-04-18T09:34:13.000Z</time>
      </trkpt>
      <trkpt lat="47.67818" lon="6.07305">
        <ele>274.20001220703</ele>
        <time>2012-04-18T09:34:14.000Z</time>
      </trkpt>
      <trkpt lat="47.67821" lon="6.07301">
        <ele>273.79998779297</ele>
        <time>2012-04-18T09:34:15.000Z</time>
      </trkpt>
      <trkpt lat="47.67825" lon="6.07296">
        <ele>273</ele>
        <time>2012-04-18T09:34:16.000Z</time>
      </trkpt>
      <trkpt lat="47.67829" lon="6.0729">
        <ele>272.39999389648</ele>
        <time>2012-04-18T09:34:17.000Z</time>
      </trkpt>
      <trkpt lat="47.67833" lon="6.07283">
        <ele>271.79998779297</ele>
        <time>2012-04-18T09:34:18.000Z</time>
      </trkpt>
      <trkpt lat="47.67837" lon="6.07277">
        <ele>271</ele>
        <time>2012-04-18T09:34:19.000Z</time>
      </trkpt>
      <trkpt lat="47.67842" lon="6.07269">
        <ele>270.39999389648</ele>
        <time>2012-04-18T09:34:20.000Z</time>
      </trkpt>
      <trkpt lat="47.67847" lon="6.07262">
        <ele>269.60000610352</ele>
        <time>2012-04-18T09:34:21.000Z</time>
      </trkpt>
      <trkpt lat="47.67852" lon="6.07255">
        <ele>269</ele>
        <time>2012-04-18T09:34:22.000Z</time>
      </trkpt>
      <trkpt lat="47.67857" lon="6.07248">
        <ele>268.20001220703</ele>
        <time>2012-04-18T09:34:23.000Z</time>
      </trkpt>
      <trkpt lat="47.67862" lon="6.07242">
        <ele>268.20001220703</ele>
        <time>2012-04-18T09:34:24.000Z</time>
      </trkpt>
      <trkpt lat="47.67871" lon="6.07231">
        <ele>268.20001220703</ele>
        <time>2012-04-18T09:34:26.000Z</time>
      </trkpt>
      <trkpt lat="47.6788" lon="6.07215">
        <ele>268.20001220703</ele>
        <time>2012-04-18T09:34:29.000Z</time>
      </trkpt>
      <trkpt lat="47.6789" lon="6.07201">
        <ele>268.20001220703</ele>
        <time>2012-04-18T09:34:34.000Z</time>
      </trkpt>
      <trkpt lat="47.67898" lon="6.07188">
        <ele>268.60000610352</ele>
        <time>2012-04-18T09:34:38.000Z</time>
      </trkpt>
      <trkpt lat="47.67901" lon="6.07185">
        <ele>269.20001220703</ele>
        <time>2012-04-18T09:34:39.000Z</time>
      </trkpt>
      <trkpt lat="47.67903" lon="6.07183">
        <ele>269.60000610352</ele>
        <time>2012-04-18T09:34:40.000Z</time>
      </trkpt>
      <trkpt lat="47.67905" lon="6.0718">
        <ele>270</ele>
        <time>2012-04-18T09:34:41.000Z</time>
      </trkpt>
      <trkpt lat="47.67908" lon="6.07177">
        <ele>270.39999389648</ele>
        <time>2012-04-18T09:34:42.000Z</time>
      </trkpt>
      <trkpt lat="47.67911" lon="6.07173">
        <ele>270.79998779297</ele>
        <time>2012-04-18T09:34:44.000Z</time>
      </trkpt>
      <trkpt lat="47.67912" lon="6.0717">
        <ele>271.39999389648</ele>
        <time>2012-04-18T09:34:45.000Z</time>
      </trkpt>
      <trkpt lat="47.67913" lon="6.07168">
        <ele>271.79998779297</ele>
        <time>2012-04-18T09:34:46.000Z</time>
      </trkpt>
      <trkpt lat="47.67915" lon="6.07165">
        <ele>272.20001220703</ele>
        <time>2012-04-18T09:34:47.000Z</time>
      </trkpt>
      <trkpt lat="47.67916" lon="6.07163">
        <ele>272.60000610352</ele>
        <time>2012-04-18T09:34:48.000Z</time>
      </trkpt>
      <trkpt lat="47.67921" lon="6.07157">
        <ele>272.60000610352</ele>
        <time>2012-04-18T09:34:51.000Z</time>
      </trkpt>
      <trkpt lat="47.67923" lon="6.07154">
        <ele>273</ele>
        <time>2012-04-18T09:34:53.000Z</time>
      </trkpt>
      <trkpt lat="47.67925" lon="6.07152">
        <ele>273.39999389648</ele>
        <time>2012-04-18T09:34:54.000Z</time>
      </trkpt>
      <trkpt lat="47.67926" lon="6.0715">
        <ele>273.79998779297</ele>
        <time>2012-04-18T09:34:55.000Z</time>
      </trkpt>
      <trkpt lat="47.67927" lon="6.07148">
        <ele>274.20001220703</ele>
        <time>2012-04-18T09:34:56.000Z</time>
      </trkpt>
      <trkpt lat="47.67928" lon="6.07145">
        <ele>274.60000610352</ele>
        <time>2012-04-18T09:34:57.000Z</time>
      </trkpt>
      <trkpt lat="47.67928" lon="6.07143">
        <ele>274.60000610352</ele>
        <time>2012-04-18T09:34:58.000Z</time>
      </trkpt>
      <trkpt lat="47.67928" lon="6.07136">
        <ele>274.60000610352</ele>
        <time>2012-04-18T09:35:02.000Z</time>
      </trkpt>
      <trkpt lat="47.67924" lon="6.07122">
        <ele>274.60000610352</ele>
        <time>2012-04-18T09:35:08.000Z</time>
      </trkpt>
      <trkpt lat="47.67921" lon="6.0711">
        <ele>274.60000610352</ele>
        <time>2012-04-18T09:35:14.000Z</time>
      </trkpt>
      <trkpt lat="47.67921" lon="6.07108">
        <ele>274.60000610352</ele>
        <time>2012-04-18T09:35:15.000Z</time>
      </trkpt>
      <trkpt lat="47.67922" lon="6.07106">
        <ele>274.60000610352</ele>
        <time>2012-04-18T09:35:20.000Z</time>
      </trkpt>
      <trkpt lat="47.67922" lon="6.07102">
        <ele>274.60000610352</ele>
        <time>2012-04-18T09:35:23.000Z</time>
      </trkpt>
      <trkpt lat="47.67922" lon="6.07102">
        <ele>274.60000610352</ele>
        <time>2012-04-18T09:35:24.000Z</time>
      </trkpt>
      <trkpt lat="47.67922" lon="6.07101">
        <ele>274.60000610352</ele>
        <time>2012-04-18T09:35:25.000Z</time>
      </trkpt>
      <trkpt lat="47.67919" lon="6.07099">
        <ele>274.60000610352</ele>
        <time>2012-04-18T09:35:28.000Z</time>
      </trkpt>
      <trkpt lat="47.67916" lon="6.07095">
        <ele>274.60000610352</ele>
        <time>2012-04-18T09:35:33.000Z</time>
      </trkpt>
      <trkpt lat="47.67916" lon="6.07093">
        <ele>274.60000610352</ele>
        <time>2012-04-18T09:36:06.000Z</time>
      </trkpt>
      <trkpt lat="47.67913" lon="6.07082">
        <ele>274.60000610352</ele>
        <time>2012-04-18T09:36:11.000Z</time>
      </trkpt>
      <trkpt lat="47.67908" lon="6.07066">
        <ele>275</ele>
        <time>2012-04-18T09:36:17.000Z</time>
      </trkpt>
      <trkpt lat="47.67907" lon="6.07064">
        <ele>275.39999389648</ele>
        <time>2012-04-18T09:36:18.000Z</time>
      </trkpt>
      <trkpt lat="47.67905" lon="6.07061">
        <ele>275.79998779297</ele>
        <time>2012-04-18T09:36:19.000Z</time>
      </trkpt>
      <trkpt lat="47.67905" lon="6.07059">
        <ele>276.20001220703</ele>
        <time>2012-04-18T09:36:20.000Z</time>
      </trkpt>
      <trkpt lat="47.67904" lon="6.07056">
        <ele>276.60000610352</ele>
        <time>2012-04-18T09:36:21.000Z</time>
      </trkpt>
      <trkpt lat="47.67901" lon="6.0705">
        <ele>276.60000610352</ele>
        <time>2012-04-18T09:36:24.000Z</time>
      </trkpt>
      <trkpt lat="47.67897" lon="6.07042">
        <ele>276.60000610352</ele>
        <time>2012-04-18T09:36:28.000Z</time>
      </trkpt>
      <trkpt lat="47.67896" lon="6.07039">
        <ele>276.60000610352</ele>
        <time>2012-04-18T09:36:30.000Z</time>
      </trkpt>
      <trkpt lat="47.67887" lon="6.07025">
        <ele>276.60000610352</ele>
        <time>2012-04-18T09:36:37.000Z</time>
      </trkpt>
      <trkpt lat="47.6788" lon="6.07013">
        <ele>276.60000610352</ele>
        <time>2012-04-18T09:36:42.000Z</time>
      </trkpt>
      <trkpt lat="47.67871" lon="6.07002">
        <ele>276.60000610352</ele>
        <time>2012-04-18T09:36:47.000Z</time>
      </trkpt>
      <trkpt lat="47.6787" lon="6.06999">
        <ele>277.20001220703</ele>
        <time>2012-04-18T09:36:49.000Z</time>
      </trkpt>
      <trkpt lat="47.67869" lon="6.06997">
        <ele>277.60000610352</ele>
        <time>2012-04-18T09:36:50.000Z</time>
      </trkpt>
      <trkpt lat="47.67868" lon="6.06995">
        <ele>278</ele>
        <time>2012-04-18T09:36:51.000Z</time>
      </trkpt>
      <trkpt lat="47.67867" lon="6.06993">
        <ele>278.39999389648</ele>
        <time>2012-04-18T09:36:52.000Z</time>
      </trkpt>
      <trkpt lat="47.67866" lon="6.06991">
        <ele>278.79998779297</ele>
        <time>2012-04-18T09:36:53.000Z</time>
      </trkpt>
      <trkpt lat="47.67861" lon="6.06984">
        <ele>279.20001220703</ele>
        <time>2012-04-18T09:36:58.000Z</time>
      </trkpt>
      <trkpt lat="47.6786" lon="6.06983">
        <ele>279.60000610352</ele>
        <time>2012-04-18T09:36:59.000Z</time>
      </trkpt>
      <trkpt lat="47.67859" lon="6.06982">
        <ele>280</ele>
        <time>2012-04-18T09:37:00.000Z</time>
      </trkpt>
      <trkpt lat="47.67857" lon="6.0698">
        <ele>280.39999389648</ele>
        <time>2012-04-18T09:37:01.000Z</time>
      </trkpt>
      <trkpt lat="47.67856" lon="6.06979">
        <ele>280.79998779297</ele>
        <time>2012-04-18T09:37:02.000Z</time>
      </trkpt>
      <trkpt lat="47.67853" lon="6.06974">
        <ele>280.79998779297</ele>
        <time>2012-04-18T09:37:05.000Z</time>
      </trkpt>
      <trkpt lat="47.67853" lon="6.06972">
        <ele>280.79998779297</ele>
        <time>2012-04-18T09:37:06.000Z</time>
      </trkpt>
      <trkpt lat="47.67849" lon="6.06962">
        <ele>280.79998779297</ele>
        <time>2012-04-18T09:37:11.000Z</time>
      </trkpt>
      <trkpt lat="47.67843" lon="6.06952">
        <ele>280.79998779297</ele>
        <time>2012-04-18T09:37:16.000Z</time>
      </trkpt>
      <trkpt lat="47.67835" lon="6.0694">
        <ele>280.79998779297</ele>
        <time>2012-04-18T09:37:22.000Z</time>
      </trkpt>
      <trkpt lat="47.67831" lon="6.06935">
        <ele>280.79998779297</ele>
        <time>2012-04-18T09:37:25.000Z</time>
      </trkpt>
      <trkpt lat="47.67826" lon="6.06926">
        <ele>280.79998779297</ele>
        <time>2012-04-18T09:37:28.000Z</time>
      </trkpt>
      <trkpt lat="47.67825" lon="6.06923">
        <ele>280.79998779297</ele>
        <time>2012-04-18T09:37:29.000Z</time>
      </trkpt>
      <trkpt lat="47.67821" lon="6.06915">
        <ele>280.79998779297</ele>
        <time>2012-04-18T09:37:34.000Z</time>
      </trkpt>
      <trkpt lat="47.67816" lon="6.06906">
        <ele>280.79998779297</ele>
        <time>2012-04-18T09:37:38.000Z</time>
      </trkpt>
      <trkpt lat="47.67811" lon="6.06896">
        <ele>280.79998779297</ele>
        <time>2012-04-18T09:37:43.000Z</time>
      </trkpt>
      <trkpt lat="47.67803" lon="6.06881">
        <ele>280.79998779297</ele>
        <time>2012-04-18T09:37:49.000Z</time>
      </trkpt>
      <trkpt lat="47.67804" lon="6.06874">
        <ele>280.79998779297</ele>
        <time>2012-04-18T09:37:52.000Z</time>
      </trkpt>
      <trkpt lat="47.67805" lon="6.06871">
        <ele>280.79998779297</ele>
        <time>2012-04-18T09:37:54.000Z</time>
      </trkpt>
      <trkpt lat="47.67806" lon="6.06869">
        <ele>280.79998779297</ele>
        <time>2012-04-18T09:37:55.000Z</time>
      </trkpt>
      <trkpt lat="47.67809" lon="6.06866">
        <ele>280.79998779297</ele>
        <time>2012-04-18T09:37:59.000Z</time>
      </trkpt>
      <trkpt lat="47.67812" lon="6.0686">
        <ele>281.20001220703</ele>
        <time>2012-04-18T09:38:03.000Z</time>
      </trkpt>
      <trkpt lat="47.67813" lon="6.06859">
        <ele>281.60000610352</ele>
        <time>2012-04-18T09:38:04.000Z</time>
      </trkpt>
      <trkpt lat="47.67815" lon="6.06857">
        <ele>282</ele>
        <time>2012-04-18T09:38:05.000Z</time>
      </trkpt>
      <trkpt lat="47.67815" lon="6.06856">
        <ele>282.39999389648</ele>
        <time>2012-04-18T09:38:06.000Z</time>
      </trkpt>
      <trkpt lat="47.67817" lon="6.06854">
        <ele>282.79998779297</ele>
        <time>2012-04-18T09:38:07.000Z</time>
      </trkpt>
      <trkpt lat="47.67819" lon="6.06851">
        <ele>282.79998779297</ele>
        <time>2012-04-18T09:38:10.000Z</time>
      </trkpt>
      <trkpt lat="47.67822" lon="6.06851">
        <ele>282.79998779297</ele>
        <time>2012-04-18T09:38:34.000Z</time>
      </trkpt>
      <trkpt lat="47.67822" lon="6.06851">
        <ele>282.79998779297</ele>
        <time>2012-04-18T09:38:35.000Z</time>
      </trkpt>
      <trkpt lat="47.67823" lon="6.0685">
        <ele>282.79998779297</ele>
        <time>2012-04-18T09:38:38.000Z</time>
      </trkpt>
      <trkpt lat="47.67824" lon="6.06848">
        <ele>282.79998779297</ele>
        <time>2012-04-18T09:38:40.000Z</time>
      </trkpt>
      <trkpt lat="47.67832" lon="6.06842">
        <ele>282.79998779297</ele>
        <time>2012-04-18T09:38:48.000Z</time>
      </trkpt>
      <trkpt lat="47.67836" lon="6.06837">
        <ele>282.79998779297</ele>
        <time>2012-04-18T09:38:52.000Z</time>
      </trkpt>
      <trkpt lat="47.67837" lon="6.06837">
        <ele>282.79998779297</ele>
        <time>2012-04-18T09:38:53.000Z</time>
      </trkpt>
      <trkpt lat="47.67837" lon="6.06837">
        <ele>282.79998779297</ele>
        <time>2012-04-18T09:38:54.000Z</time>
      </trkpt>
      <trkpt lat="47.6784" lon="6.06836">
        <ele>282.79998779297</ele>
        <time>2012-04-18T09:38:58.000Z</time>
      </trkpt>
      <trkpt lat="47.67843" lon="6.06836">
        <ele>282.79998779297</ele>
        <time>2012-04-18T09:39:03.000Z</time>
      </trkpt>
      <trkpt lat="47.67843" lon="6.06835">
        <ele>282.79998779297</ele>
        <time>2012-04-18T09:39:04.000Z</time>
      </trkpt>
      <trkpt lat="47.67844" lon="6.06836">
        <ele>282.79998779297</ele>
        <time>2012-04-18T09:39:05.000Z</time>
      </trkpt>
      <trkpt lat="47.67848" lon="6.06834">
        <ele>282.79998779297</ele>
        <time>2012-04-18T09:39:09.000Z</time>
      </trkpt>
      <trkpt lat="47.67848" lon="6.06833">
        <ele>282.79998779297</ele>
        <time>2012-04-18T09:39:11.000Z</time>
      </trkpt>
      <trkpt lat="47.67849" lon="6.06832">
        <ele>282.79998779297</ele>
        <time>2012-04-18T09:39:15.000Z</time>
      </trkpt>
      <trkpt lat="47.67851" lon="6.06831">
        <ele>282.79998779297</ele>
        <time>2012-04-18T09:39:17.000Z</time>
      </trkpt>
      <trkpt lat="47.67853" lon="6.06831">
        <ele>282.79998779297</ele>
        <time>2012-04-18T09:39:19.000Z</time>
      </trkpt>
      <trkpt lat="47.67856" lon="6.0683">
        <ele>282.79998779297</ele>
        <time>2012-04-18T09:39:22.000Z</time>
      </trkpt>
      <trkpt lat="47.67859" lon="6.06828">
        <ele>282.79998779297</ele>
        <time>2012-04-18T09:39:25.000Z</time>
      </trkpt>
      <trkpt lat="47.67862" lon="6.06826">
        <ele>282.79998779297</ele>
        <time>2012-04-18T09:39:32.000Z</time>
      </trkpt>
      <trkpt lat="47.67863" lon="6.06825">
        <ele>282.79998779297</ele>
        <time>2012-04-18T09:39:34.000Z</time>
      </trkpt>
      <trkpt lat="47.67874" lon="6.06818">
        <ele>282.79998779297</ele>
        <time>2012-04-18T09:39:39.000Z</time>
      </trkpt>
      <trkpt lat="47.6788" lon="6.06814">
        <ele>283.20001220703</ele>
        <time>2012-04-18T09:39:42.000Z</time>
      </trkpt>
      <trkpt lat="47.67882" lon="6.06813">
        <ele>283.60000610352</ele>
        <time>2012-04-18T09:39:43.000Z</time>
      </trkpt>
      <trkpt lat="47.67884" lon="6.06811">
        <ele>284</ele>
        <time>2012-04-18T09:39:44.000Z</time>
      </trkpt>
      <trkpt lat="47.67886" lon="6.06809">
        <ele>284.39999389648</ele>
        <time>2012-04-18T09:39:45.000Z</time>
      </trkpt>
      <trkpt lat="47.67887" lon="6.06808">
        <ele>284.79998779297</ele>
        <time>2012-04-18T09:39:46.000Z</time>
      </trkpt>
      <trkpt lat="47.67897" lon="6.06802">
        <ele>284.79998779297</ele>
        <time>2012-04-18T09:39:52.000Z</time>
      </trkpt>
      <trkpt lat="47.67905" lon="6.068">
        <ele>284.79998779297</ele>
        <time>2012-04-18T09:39:57.000Z</time>
      </trkpt>
      <trkpt lat="47.67908" lon="6.06798">
        <ele>284.79998779297</ele>
        <time>2012-04-18T09:40:00.000Z</time>
      </trkpt>
      <trkpt lat="47.67909" lon="6.06798">
        <ele>285.79998779297</ele>
        <time>2012-04-18T09:40:06.000Z</time>
      </trkpt>
      <trkpt lat="47.67909" lon="6.06797">
        <ele>286.39999389648</ele>
        <time>2012-04-18T09:40:07.000Z</time>
      </trkpt>
      <trkpt lat="47.6791" lon="6.06797">
        <ele>283.79998779297</ele>
        <time>2012-04-18T09:40:08.000Z</time>
      </trkpt>
      <trkpt lat="47.6791" lon="6.06796">
        <ele>283.79998779297</ele>
        <time>2012-04-18T09:40:09.000Z</time>
      </trkpt>
      <trkpt lat="47.67911" lon="6.06796">
        <ele>284.60000610352</ele>
        <time>2012-04-18T09:40:10.000Z</time>
      </trkpt>
      <trkpt lat="47.67912" lon="6.06796">
        <ele>286.60000610352</ele>
        <time>2012-04-18T09:40:18.000Z</time>
      </trkpt>
      <trkpt lat="47.67913" lon="6.06796">
        <ele>286.60000610352</ele>
        <time>2012-04-18T09:40:19.000Z</time>
      </trkpt>
      <trkpt lat="47.67916" lon="6.06795">
        <ele>286.60000610352</ele>
        <time>2012-04-18T09:40:21.000Z</time>
      </trkpt>
      <trkpt lat="47.67918" lon="6.06794">
        <ele>286.60000610352</ele>
        <time>2012-04-18T09:40:23.000Z</time>
      </trkpt>
      <trkpt lat="47.67923" lon="6.06792">
        <ele>286.60000610352</ele>
        <time>2012-04-18T09:40:25.000Z</time>
      </trkpt>
      <trkpt lat="47.67926" lon="6.06789">
        <ele>286.60000610352</ele>
        <time>2012-04-18T09:40:27.000Z</time>
      </trkpt>
      <trkpt lat="47.6793" lon="6.06787">
        <ele>286.60000610352</ele>
        <time>2012-04-18T09:40:30.000Z</time>
      </trkpt>
      <trkpt lat="47.67931" lon="6.06786">
        <ele>286.60000610352</ele>
        <time>2012-04-18T09:40:32.000Z</time>
      </trkpt>
      <trkpt lat="47.67933" lon="6.06785">
        <ele>286.60000610352</ele>
        <time>2012-04-18T09:40:37.000Z</time>
      </trkpt>
      <trkpt lat="47.67936" lon="6.06783">
        <ele>286.60000610352</ele>
        <time>2012-04-18T09:40:39.000Z</time>
      </trkpt>
      <trkpt lat="47.67941" lon="6.06777">
        <ele>286.60000610352</ele>
        <time>2012-04-18T09:40:45.000Z</time>
      </trkpt>
      <trkpt lat="47.67943" lon="6.06776">
        <ele>286.60000610352</ele>
        <time>2012-04-18T09:40:49.000Z</time>
      </trkpt>
      <trkpt lat="47.67944" lon="6.06775">
        <ele>286.60000610352</ele>
        <time>2012-04-18T09:40:51.000Z</time>
      </trkpt>
      <trkpt lat="47.67945" lon="6.06774">
        <ele>286.60000610352</ele>
        <time>2012-04-18T09:40:52.000Z</time>
      </trkpt>
      <trkpt lat="47.67949" lon="6.06773">
        <ele>286.60000610352</ele>
        <time>2012-04-18T09:40:55.000Z</time>
      </trkpt>
      <trkpt lat="47.67951" lon="6.06771">
        <ele>286.60000610352</ele>
        <time>2012-04-18T09:40:58.000Z</time>
      </trkpt>
      <trkpt lat="47.67953" lon="6.06771">
        <ele>286.60000610352</ele>
        <time>2012-04-18T09:41:01.000Z</time>
      </trkpt>
      <trkpt lat="47.67954" lon="6.0677">
        <ele>286.60000610352</ele>
        <time>2012-04-18T09:41:02.000Z</time>
      </trkpt>
      <trkpt lat="47.67955" lon="6.06769">
        <ele>286.60000610352</ele>
        <time>2012-04-18T09:41:08.000Z</time>
      </trkpt>
      <trkpt lat="47.67957" lon="6.06767">
        <ele>286.60000610352</ele>
        <time>2012-04-18T09:41:10.000Z</time>
      </trkpt>
      <trkpt lat="47.67959" lon="6.06766">
        <ele>286.60000610352</ele>
        <time>2012-04-18T09:41:11.000Z</time>
      </trkpt>
      <trkpt lat="47.67966" lon="6.06761">
        <ele>286.60000610352</ele>
        <time>2012-04-18T09:41:15.000Z</time>
      </trkpt>
      <trkpt lat="47.67969" lon="6.06759">
        <ele>286.60000610352</ele>
        <time>2012-04-18T09:41:16.000Z</time>
      </trkpt>
      <trkpt lat="47.67973" lon="6.06755">
        <ele>286.60000610352</ele>
        <time>2012-04-18T09:41:18.000Z</time>
      </trkpt>
      <trkpt lat="47.67985" lon="6.06745">
        <ele>286.60000610352</ele>
        <time>2012-04-18T09:41:25.000Z</time>
      </trkpt>
      <trkpt lat="47.67996" lon="6.06742">
        <ele>286.60000610352</ele>
        <time>2012-04-18T09:41:32.000Z</time>
      </trkpt>
      <trkpt lat="47.68008" lon="6.06742">
        <ele>286.60000610352</ele>
        <time>2012-04-18T09:41:37.000Z</time>
      </trkpt>
      <trkpt lat="47.68017" lon="6.06746">
        <ele>286.60000610352</ele>
        <time>2012-04-18T09:41:42.000Z</time>
      </trkpt>
      <trkpt lat="47.68034" lon="6.06747">
        <ele>286.20001220703</ele>
        <time>2012-04-18T09:41:49.000Z</time>
      </trkpt>
      <trkpt lat="47.68037" lon="6.06748">
        <ele>285.79998779297</ele>
        <time>2012-04-18T09:41:50.000Z</time>
      </trkpt>
      <trkpt lat="47.6804" lon="6.06748">
        <ele>285.39999389648</ele>
        <time>2012-04-18T09:41:51.000Z</time>
      </trkpt>
      <trkpt lat="47.68044" lon="6.06748">
        <ele>285</ele>
        <time>2012-04-18T09:41:52.000Z</time>
      </trkpt>
      <trkpt lat="47.68048" lon="6.06749">
        <ele>284.60000610352</ele>
        <time>2012-04-18T09:41:53.000Z</time>
      </trkpt>
      <trkpt lat="47.68054" lon="6.06752">
        <ele>284.60000610352</ele>
        <time>2012-04-18T09:41:55.000Z</time>
      </trkpt>
      <trkpt lat="47.68062" lon="6.06755">
        <ele>284.20001220703</ele>
        <time>2012-04-18T09:41:58.000Z</time>
      </trkpt>
      <trkpt lat="47.68065" lon="6.06755">
        <ele>283.79998779297</ele>
        <time>2012-04-18T09:41:59.000Z</time>
      </trkpt>
      <trkpt lat="47.68069" lon="6.06756">
        <ele>283.39999389648</ele>
        <time>2012-04-18T09:42:00.000Z</time>
      </trkpt>
      <trkpt lat="47.68072" lon="6.06757">
        <ele>282.79998779297</ele>
        <time>2012-04-18T09:42:01.000Z</time>
      </trkpt>
      <trkpt lat="47.68074" lon="6.06757">
        <ele>282.39999389648</ele>
        <time>2012-04-18T09:42:02.000Z</time>
      </trkpt>
      <trkpt lat="47.68076" lon="6.06757">
        <ele>282</ele>
        <time>2012-04-18T09:42:03.000Z</time>
      </trkpt>
      <trkpt lat="47.68078" lon="6.06756">
        <ele>281.60000610352</ele>
        <time>2012-04-18T09:42:04.000Z</time>
      </trkpt>
      <trkpt lat="47.6808" lon="6.06755">
        <ele>281.20001220703</ele>
        <time>2012-04-18T09:42:05.000Z</time>
      </trkpt>
      <trkpt lat="47.68081" lon="6.06754">
        <ele>280.79998779297</ele>
        <time>2012-04-18T09:42:06.000Z</time>
      </trkpt>
      <trkpt lat="47.68083" lon="6.06754">
        <ele>280.39999389648</ele>
        <time>2012-04-18T09:42:07.000Z</time>
      </trkpt>
      <trkpt lat="47.68086" lon="6.06753">
        <ele>280.39999389648</ele>
        <time>2012-04-18T09:42:10.000Z</time>
      </trkpt>
      <trkpt lat="47.68086" lon="6.06753">
        <ele>280.39999389648</ele>
        <time>2012-04-18T09:42:31.000Z</time>
      </trkpt>
      <trkpt lat="47.68086" lon="6.06753">
        <ele>280.39999389648</ele>
        <time>2012-04-18T09:42:32.000Z</time>
      </trkpt>
      <trkpt lat="47.68091" lon="6.06751">
        <ele>280</ele>
        <time>2012-04-18T09:42:34.000Z</time>
      </trkpt>
      <trkpt lat="47.68093" lon="6.06752">
        <ele>279.60000610352</ele>
        <time>2012-04-18T09:42:35.000Z</time>
      </trkpt>
      <trkpt lat="47.68095" lon="6.06751">
        <ele>279.20001220703</ele>
        <time>2012-04-18T09:42:36.000Z</time>
      </trkpt>
      <trkpt lat="47.68097" lon="6.06748">
        <ele>278.60000610352</ele>
        <time>2012-04-18T09:42:37.000Z</time>
      </trkpt>
      <trkpt lat="47.68098" lon="6.06748">
        <ele>278.20001220703</ele>
        <time>2012-04-18T09:42:38.000Z</time>
      </trkpt>
      <trkpt lat="47.68102" lon="6.06746">
        <ele>278.20001220703</ele>
        <time>2012-04-18T09:42:39.000Z</time>
      </trkpt>
      <trkpt lat="47.68103" lon="6.06745">
        <ele>278.20001220703</ele>
        <time>2012-04-18T09:42:40.000Z</time>
      </trkpt>
      <trkpt lat="47.68106" lon="6.06742">
        <ele>278.20001220703</ele>
        <time>2012-04-18T09:42:41.000Z</time>
      </trkpt>
      <trkpt lat="47.68108" lon="6.06741">
        <ele>277.79998779297</ele>
        <time>2012-04-18T09:42:42.000Z</time>
      </trkpt>
      <trkpt lat="47.68111" lon="6.06741">
        <ele>277.39999389648</ele>
        <time>2012-04-18T09:42:43.000Z</time>
      </trkpt>
      <trkpt lat="47.68114" lon="6.06743">
        <ele>277</ele>
        <time>2012-04-18T09:42:44.000Z</time>
      </trkpt>
      <trkpt lat="47.68116" lon="6.06744">
        <ele>276.60000610352</ele>
        <time>2012-04-18T09:42:45.000Z</time>
      </trkpt>
      <trkpt lat="47.68117" lon="6.06745">
        <ele>276.20001220703</ele>
        <time>2012-04-18T09:42:46.000Z</time>
      </trkpt>
      <trkpt lat="47.68123" lon="6.0675">
        <ele>275.79998779297</ele>
        <time>2012-04-18T09:42:51.000Z</time>
      </trkpt>
      <trkpt lat="47.68125" lon="6.06751">
        <ele>274.79998779297</ele>
        <time>2012-04-18T09:42:52.000Z</time>
      </trkpt>
      <trkpt lat="47.68126" lon="6.06751">
        <ele>274.39999389648</ele>
        <time>2012-04-18T09:42:53.000Z</time>
      </trkpt>
      <trkpt lat="47.68127" lon="6.06751">
        <ele>274</ele>
        <time>2012-04-18T09:42:54.000Z</time>
      </trkpt>
      <trkpt lat="47.68131" lon="6.06753">
        <ele>274</ele>
        <time>2012-04-18T09:42:57.000Z</time>
      </trkpt>
      <trkpt lat="47.68133" lon="6.06754">
        <ele>273.60000610352</ele>
        <time>2012-04-18T09:42:58.000Z</time>
      </trkpt>
      <trkpt lat="47.68134" lon="6.06754">
        <ele>273.20001220703</ele>
        <time>2012-04-18T09:42:59.000Z</time>
      </trkpt>
      <trkpt lat="47.68136" lon="6.06754">
        <ele>272.60000610352</ele>
        <time>2012-04-18T09:43:00.000Z</time>
      </trkpt>
      <trkpt lat="47.68137" lon="6.06754">
        <ele>272.20001220703</ele>
        <time>2012-04-18T09:43:01.000Z</time>
      </trkpt>
      <trkpt lat="47.68139" lon="6.06755">
        <ele>271.79998779297</ele>
        <time>2012-04-18T09:43:02.000Z</time>
      </trkpt>
      <trkpt lat="47.68141" lon="6.06756">
        <ele>271.39999389648</ele>
        <time>2012-04-18T09:43:03.000Z</time>
      </trkpt>
      <trkpt lat="47.68143" lon="6.06756">
        <ele>271</ele>
        <time>2012-04-18T09:43:04.000Z</time>
      </trkpt>
      <trkpt lat="47.68144" lon="6.06757">
        <ele>270.60000610352</ele>
        <time>2012-04-18T09:43:05.000Z</time>
      </trkpt>
      <trkpt lat="47.68146" lon="6.06757">
        <ele>270.20001220703</ele>
        <time>2012-04-18T09:43:06.000Z</time>
      </trkpt>
      <trkpt lat="47.68149" lon="6.06758">
        <ele>269.79998779297</ele>
        <time>2012-04-18T09:43:07.000Z</time>
      </trkpt>
      <trkpt lat="47.68151" lon="6.0676">
        <ele>269.39999389648</ele>
        <time>2012-04-18T09:43:08.000Z</time>
      </trkpt>
      <trkpt lat="47.68153" lon="6.06762">
        <ele>269</ele>
        <time>2012-04-18T09:43:09.000Z</time>
      </trkpt>
      <trkpt lat="47.68155" lon="6.06764">
        <ele>268.60000610352</ele>
        <time>2012-04-18T09:43:10.000Z</time>
      </trkpt>
      <trkpt lat="47.68157" lon="6.06765">
        <ele>268.20001220703</ele>
        <time>2012-04-18T09:43:11.000Z</time>
      </trkpt>
      <trkpt lat="47.68159" lon="6.06766">
        <ele>267.79998779297</ele>
        <time>2012-04-18T09:43:12.000Z</time>
      </trkpt>
      <trkpt lat="47.68162" lon="6.06769">
        <ele>267.20001220703</ele>
        <time>2012-04-18T09:43:14.000Z</time>
      </trkpt>
      <trkpt lat="47.68163" lon="6.06771">
        <ele>266.79998779297</ele>
        <time>2012-04-18T09:43:15.000Z</time>
      </trkpt>
      <trkpt lat="47.68165" lon="6.06773">
        <ele>266.20001220703</ele>
        <time>2012-04-18T09:43:16.000Z</time>
      </trkpt>
      <trkpt lat="47.68168" lon="6.06775">
        <ele>265.39999389648</ele>
        <time>2012-04-18T09:43:17.000Z</time>
      </trkpt>
      <trkpt lat="47.68171" lon="6.06776">
        <ele>265</ele>
        <time>2012-04-18T09:43:19.000Z</time>
      </trkpt>
      <trkpt lat="47.68173" lon="6.06777">
        <ele>264.60000610352</ele>
        <time>2012-04-18T09:43:20.000Z</time>
      </trkpt>
      <trkpt lat="47.68174" lon="6.06778">
        <ele>264</ele>
        <time>2012-04-18T09:43:21.000Z</time>
      </trkpt>
      <trkpt lat="47.68176" lon="6.0678">
        <ele>263.60000610352</ele>
        <time>2012-04-18T09:43:22.000Z</time>
      </trkpt>
      <trkpt lat="47.68177" lon="6.06781">
        <ele>263.20001220703</ele>
        <time>2012-04-18T09:43:23.000Z</time>
      </trkpt>
      <trkpt lat="47.68181" lon="6.06784">
        <ele>263.20001220703</ele>
        <time>2012-04-18T09:43:25.000Z</time>
      </trkpt>
      <trkpt lat="47.68186" lon="6.06788">
        <ele>263.20001220703</ele>
        <time>2012-04-18T09:43:28.000Z</time>
      </trkpt>
      <trkpt lat="47.68189" lon="6.06789">
        <ele>263.20001220703</ele>
        <time>2012-04-18T09:43:30.000Z</time>
      </trkpt>
      <trkpt lat="47.68195" lon="6.06795">
        <ele>262.79998779297</ele>
        <time>2012-04-18T09:43:34.000Z</time>
      </trkpt>
      <trkpt lat="47.68196" lon="6.06797">
        <ele>262.39999389648</ele>
        <time>2012-04-18T09:43:35.000Z</time>
      </trkpt>
      <trkpt lat="47.68197" lon="6.06798">
        <ele>262</ele>
        <time>2012-04-18T09:43:36.000Z</time>
      </trkpt>
      <trkpt lat="47.68198" lon="6.06799">
        <ele>261.60000610352</ele>
        <time>2012-04-18T09:43:37.000Z</time>
      </trkpt>
      <trkpt lat="47.68199" lon="6.068">
        <ele>261.20001220703</ele>
        <time>2012-04-18T09:43:38.000Z</time>
      </trkpt>
      <trkpt lat="47.68201" lon="6.06802">
        <ele>261.20001220703</ele>
        <time>2012-04-18T09:43:40.000Z</time>
      </trkpt>
      <trkpt lat="47.68205" lon="6.06807">
        <ele>261.20001220703</ele>
        <time>2012-04-18T09:43:42.000Z</time>
      </trkpt>
      <trkpt lat="47.68212" lon="6.06808">
        <ele>261.20001220703</ele>
        <time>2012-04-18T09:43:46.000Z</time>
      </trkpt>
      <trkpt lat="47.68213" lon="6.06807">
        <ele>261.20001220703</ele>
        <time>2012-04-18T09:43:47.000Z</time>
      </trkpt>
      <trkpt lat="47.68213" lon="6.06807">
        <ele>261.20001220703</ele>
        <time>2012-04-18T09:44:00.000Z</time>
      </trkpt>
      <trkpt lat="47.68214" lon="6.06805">
        <ele>261.20001220703</ele>
        <time>2012-04-18T09:44:02.000Z</time>
      </trkpt>
      <trkpt lat="47.68216" lon="6.06804">
        <ele>261.20001220703</ele>
        <time>2012-04-18T09:44:03.000Z</time>
      </trkpt>
      <trkpt lat="47.68224" lon="6.06793">
        <ele>260.79998779297</ele>
        <time>2012-04-18T09:44:07.000Z</time>
      </trkpt>
      <trkpt lat="47.68226" lon="6.0679">
        <ele>260.39999389648</ele>
        <time>2012-04-18T09:44:08.000Z</time>
      </trkpt>
      <trkpt lat="47.68228" lon="6.06786">
        <ele>260</ele>
        <time>2012-04-18T09:44:09.000Z</time>
      </trkpt>
      <trkpt lat="47.6823" lon="6.06782">
        <ele>259.39999389648</ele>
        <time>2012-04-18T09:44:10.000Z</time>
      </trkpt>
      <trkpt lat="47.68233" lon="6.06778">
        <ele>259</ele>
        <time>2012-04-18T09:44:11.000Z</time>
      </trkpt>
      <trkpt lat="47.68238" lon="6.06769">
        <ele>259</ele>
        <time>2012-04-18T09:44:13.000Z</time>
      </trkpt>
      <trkpt lat="47.68254" lon="6.06742">
        <ele>259</ele>
        <time>2012-04-18T09:44:19.000Z</time>
      </trkpt>
      <trkpt lat="47.68262" lon="6.06726">
        <ele>258.60000610352</ele>
        <time>2012-04-18T09:44:22.000Z</time>
      </trkpt>
      <trkpt lat="47.68265" lon="6.06721">
        <ele>258.20001220703</ele>
        <time>2012-04-18T09:44:23.000Z</time>
      </trkpt>
      <trkpt lat="47.68268" lon="6.06715">
        <ele>257.60000610352</ele>
        <time>2012-04-18T09:44:24.000Z</time>
      </trkpt>
      <trkpt lat="47.6827" lon="6.06709">
        <ele>257.20001220703</ele>
        <time>2012-04-18T09:44:25.000Z</time>
      </trkpt>
      <trkpt lat="47.68273" lon="6.06704">
        <ele>256.79998779297</ele>
        <time>2012-04-18T09:44:26.000Z</time>
      </trkpt>
      <trkpt lat="47.6828" lon="6.06688">
        <ele>256.79998779297</ele>
        <time>2012-04-18T09:44:29.000Z</time>
      </trkpt>
      <trkpt lat="47.68287" lon="6.06674">
        <ele>256.79998779297</ele>
        <time>2012-04-18T09:44:32.000Z</time>
      </trkpt>
      <trkpt lat="47.68306" lon="6.06636">
        <ele>256.79998779297</ele>
        <time>2012-04-18T09:44:39.000Z</time>
      </trkpt>
      <trkpt lat="47.68308" lon="6.0663">
        <ele>256.79998779297</ele>
        <time>2012-04-18T09:44:40.000Z</time>
      </trkpt>
      <trkpt lat="47.6831" lon="6.06624">
        <ele>256.39999389648</ele>
        <time>2012-04-18T09:44:41.000Z</time>
      </trkpt>
      <trkpt lat="47.68313" lon="6.06618">
        <ele>256</ele>
        <time>2012-04-18T09:44:42.000Z</time>
      </trkpt>
      <trkpt lat="47.68315" lon="6.06612">
        <ele>255.60000610352</ele>
        <time>2012-04-18T09:44:43.000Z</time>
      </trkpt>
      <trkpt lat="47.68317" lon="6.06606">
        <ele>255.19999694824</ele>
        <time>2012-04-18T09:44:44.000Z</time>
      </trkpt>
      <trkpt lat="47.6832" lon="6.066">
        <ele>254.80000305176</ele>
        <time>2012-04-18T09:44:45.000Z</time>
      </trkpt>
      <trkpt lat="47.68334" lon="6.06559">
        <ele>254.80000305176</ele>
        <time>2012-04-18T09:44:51.000Z</time>
      </trkpt>
      <trkpt lat="47.68347" lon="6.06518">
        <ele>254.80000305176</ele>
        <time>2012-04-18T09:44:58.000Z</time>
      </trkpt>
      <trkpt lat="47.68349" lon="6.06513">
        <ele>254.80000305176</ele>
        <time>2012-04-18T09:44:59.000Z</time>
      </trkpt>
      <trkpt lat="47.68356" lon="6.06491">
        <ele>254.80000305176</ele>
        <time>2012-04-18T09:45:03.000Z</time>
      </trkpt>
      <trkpt lat="47.68369" lon="6.06448">
        <ele>254.80000305176</ele>
        <time>2012-04-18T09:45:11.000Z</time>
      </trkpt>
      <trkpt lat="47.68381" lon="6.06413">
        <ele>254.80000305176</ele>
        <time>2012-04-18T09:45:18.000Z</time>
      </trkpt>
      <trkpt lat="47.6839" lon="6.06381">
        <ele>254.80000305176</ele>
        <time>2012-04-18T09:45:24.000Z</time>
      </trkpt>
      <trkpt lat="47.68402" lon="6.06344">
        <ele>254.80000305176</ele>
        <time>2012-04-18T09:45:31.000Z</time>
      </trkpt>
      <trkpt lat="47.68414" lon="6.06304">
        <ele>254.80000305176</ele>
        <time>2012-04-18T09:45:38.000Z</time>
      </trkpt>
      <trkpt lat="47.68425" lon="6.06268">
        <ele>254.80000305176</ele>
        <time>2012-04-18T09:45:45.000Z</time>
      </trkpt>
      <trkpt lat="47.68437" lon="6.06232">
        <ele>254.80000305176</ele>
        <time>2012-04-18T09:45:52.000Z</time>
      </trkpt>
      <trkpt lat="47.68438" lon="6.06226">
        <ele>254.80000305176</ele>
        <time>2012-04-18T09:45:53.000Z</time>
      </trkpt>
      <trkpt lat="47.68442" lon="6.06215">
        <ele>254.80000305176</ele>
        <time>2012-04-18T09:45:55.000Z</time>
      </trkpt>
      <trkpt lat="47.68446" lon="6.06198">
        <ele>254.80000305176</ele>
        <time>2012-04-18T09:45:58.000Z</time>
      </trkpt>
      <trkpt lat="47.68457" lon="6.06167">
        <ele>254.80000305176</ele>
        <time>2012-04-18T09:46:04.000Z</time>
      </trkpt>
      <trkpt lat="47.68471" lon="6.06126">
        <ele>254.80000305176</ele>
        <time>2012-04-18T09:46:12.000Z</time>
      </trkpt>
      <trkpt lat="47.68483" lon="6.06091">
        <ele>254.80000305176</ele>
        <time>2012-04-18T09:46:19.000Z</time>
      </trkpt>
      <trkpt lat="47.68496" lon="6.06061">
        <ele>254.80000305176</ele>
        <time>2012-04-18T09:46:26.000Z</time>
      </trkpt>
      <trkpt lat="47.68509" lon="6.06025">
        <ele>254.80000305176</ele>
        <time>2012-04-18T09:46:34.000Z</time>
      </trkpt>
      <trkpt lat="47.68521" lon="6.06">
        <ele>254.80000305176</ele>
        <time>2012-04-18T09:46:40.000Z</time>
      </trkpt>
      <trkpt lat="47.68533" lon="6.05969">
        <ele>254.80000305176</ele>
        <time>2012-04-18T09:46:47.000Z</time>
      </trkpt>
      <trkpt lat="47.68546" lon="6.05938">
        <ele>254.80000305176</ele>
        <time>2012-04-18T09:46:54.000Z</time>
      </trkpt>
      <trkpt lat="47.68551" lon="6.05923">
        <ele>254.80000305176</ele>
        <time>2012-04-18T09:46:58.000Z</time>
      </trkpt>
      <trkpt lat="47.68564" lon="6.05892">
        <ele>254.80000305176</ele>
        <time>2012-04-18T09:47:06.000Z</time>
      </trkpt>
      <trkpt lat="47.68575" lon="6.05866">
        <ele>254.80000305176</ele>
        <time>2012-04-18T09:47:13.000Z</time>
      </trkpt>
      <trkpt lat="47.68585" lon="6.05839">
        <ele>254.80000305176</ele>
        <time>2012-04-18T09:47:20.000Z</time>
      </trkpt>
      <trkpt lat="47.68595" lon="6.05816">
        <ele>254.80000305176</ele>
        <time>2012-04-18T09:47:26.000Z</time>
      </trkpt>
      <trkpt lat="47.68604" lon="6.05793">
        <ele>254.80000305176</ele>
        <time>2012-04-18T09:47:32.000Z</time>
      </trkpt>
      <trkpt lat="47.68615" lon="6.05774">
        <ele>254.80000305176</ele>
        <time>2012-04-18T09:47:38.000Z</time>
      </trkpt>
      <trkpt lat="47.68627" lon="6.05757">
        <ele>254.80000305176</ele>
        <time>2012-04-18T09:47:45.000Z</time>
      </trkpt>
      <trkpt lat="47.68629" lon="6.05753">
        <ele>255.19999694824</ele>
        <time>2012-04-18T09:47:47.000Z</time>
      </trkpt>
      <trkpt lat="47.68631" lon="6.05751">
        <ele>255.60000610352</ele>
        <time>2012-04-18T09:47:48.000Z</time>
      </trkpt>
      <trkpt lat="47.68632" lon="6.0575">
        <ele>256</ele>
        <time>2012-04-18T09:47:49.000Z</time>
      </trkpt>
      <trkpt lat="47.68634" lon="6.05748">
        <ele>257</ele>
        <time>2012-04-18T09:47:50.000Z</time>
      </trkpt>
      <trkpt lat="47.68644" lon="6.05731">
        <ele>257</ele>
        <time>2012-04-18T09:47:58.000Z</time>
      </trkpt>
      <trkpt lat="47.68652" lon="6.05715">
        <ele>257.39999389648</ele>
        <time>2012-04-18T09:48:03.000Z</time>
      </trkpt>
      <trkpt lat="47.68654" lon="6.05713">
        <ele>257.79998779297</ele>
        <time>2012-04-18T09:48:04.000Z</time>
      </trkpt>
      <trkpt lat="47.68655" lon="6.0571">
        <ele>258.20001220703</ele>
        <time>2012-04-18T09:48:05.000Z</time>
      </trkpt>
      <trkpt lat="47.68656" lon="6.05708">
        <ele>258.60000610352</ele>
        <time>2012-04-18T09:48:06.000Z</time>
      </trkpt>
      <trkpt lat="47.68658" lon="6.05705">
        <ele>259</ele>
        <time>2012-04-18T09:48:07.000Z</time>
      </trkpt>
      <trkpt lat="47.68661" lon="6.05701">
        <ele>259</ele>
        <time>2012-04-18T09:48:09.000Z</time>
      </trkpt>
      <trkpt lat="47.68669" lon="6.05685">
        <ele>259.79998779297</ele>
        <time>2012-04-18T09:48:14.000Z</time>
      </trkpt>
      <trkpt lat="47.68671" lon="6.05681">
        <ele>260.20001220703</ele>
        <time>2012-04-18T09:48:15.000Z</time>
      </trkpt>
      <trkpt lat="47.68673" lon="6.05679">
        <ele>260.60000610352</ele>
        <time>2012-04-18T09:48:16.000Z</time>
      </trkpt>
      <trkpt lat="47.68674" lon="6.05676">
        <ele>261</ele>
        <time>2012-04-18T09:48:17.000Z</time>
      </trkpt>
      <trkpt lat="47.68676" lon="6.05672">
        <ele>261</ele>
        <time>2012-04-18T09:48:19.000Z</time>
      </trkpt>
      <trkpt lat="47.68684" lon="6.05658">
        <ele>261.60000610352</ele>
        <time>2012-04-18T09:48:26.000Z</time>
      </trkpt>
      <trkpt lat="47.68685" lon="6.05656">
        <ele>262</ele>
        <time>2012-04-18T09:48:27.000Z</time>
      </trkpt>
      <trkpt lat="47.68687" lon="6.05654">
        <ele>262.39999389648</ele>
        <time>2012-04-18T09:48:28.000Z</time>
      </trkpt>
      <trkpt lat="47.68689" lon="6.05651">
        <ele>262.79998779297</ele>
        <time>2012-04-18T09:48:29.000Z</time>
      </trkpt>
      <trkpt lat="47.6869" lon="6.05649">
        <ele>263.20001220703</ele>
        <time>2012-04-18T09:48:30.000Z</time>
      </trkpt>
      <trkpt lat="47.68695" lon="6.05642">
        <ele>263.20001220703</ele>
        <time>2012-04-18T09:48:33.000Z</time>
      </trkpt>
      <trkpt lat="47.68703" lon="6.05628">
        <ele>263.20001220703</ele>
        <time>2012-04-18T09:48:39.000Z</time>
      </trkpt>
      <trkpt lat="47.68715" lon="6.05615">
        <ele>263.20001220703</ele>
        <time>2012-04-18T09:48:45.000Z</time>
      </trkpt>
      <trkpt lat="47.68727" lon="6.056">
        <ele>263.20001220703</ele>
        <time>2012-04-18T09:48:51.000Z</time>
      </trkpt>
      <trkpt lat="47.68728" lon="6.05598">
        <ele>263.20001220703</ele>
        <time>2012-04-18T09:48:52.000Z</time>
      </trkpt>
      <trkpt lat="47.68728" lon="6.05592">
        <ele>263.20001220703</ele>
        <time>2012-04-18T09:48:56.000Z</time>
      </trkpt>
      <trkpt lat="47.68727" lon="6.05592">
        <ele>263.20001220703</ele>
        <time>2012-04-18T09:48:57.000Z</time>
      </trkpt>
      <trkpt lat="47.68728" lon="6.05591">
        <ele>263.20001220703</ele>
        <time>2012-04-18T09:49:09.000Z</time>
      </trkpt>
      <trkpt lat="47.68729" lon="6.05586">
        <ele>263.20001220703</ele>
        <time>2012-04-18T09:49:11.000Z</time>
      </trkpt>
      <trkpt lat="47.68728" lon="6.05569">
        <ele>263.20001220703</ele>
        <time>2012-04-18T09:49:16.000Z</time>
      </trkpt>
      <trkpt lat="47.68729" lon="6.05548">
        <ele>262.79998779297</ele>
        <time>2012-04-18T09:49:20.000Z</time>
      </trkpt>
      <trkpt lat="47.68729" lon="6.05541">
        <ele>262.39999389648</ele>
        <time>2012-04-18T09:49:21.000Z</time>
      </trkpt>
      <trkpt lat="47.6873" lon="6.05535">
        <ele>262</ele>
        <time>2012-04-18T09:49:22.000Z</time>
      </trkpt>
      <trkpt lat="47.68731" lon="6.05528">
        <ele>261.39999389648</ele>
        <time>2012-04-18T09:49:23.000Z</time>
      </trkpt>
      <trkpt lat="47.68733" lon="6.05519">
        <ele>261</ele>
        <time>2012-04-18T09:49:24.000Z</time>
      </trkpt>
      <trkpt lat="47.68735" lon="6.05512">
        <ele>261</ele>
        <time>2012-04-18T09:49:25.000Z</time>
      </trkpt>
      <trkpt lat="47.68737" lon="6.05504">
        <ele>261</ele>
        <time>2012-04-18T09:49:26.000Z</time>
      </trkpt>
      <trkpt lat="47.6874" lon="6.05487">
        <ele>260.60000610352</ele>
        <time>2012-04-18T09:49:28.000Z</time>
      </trkpt>
      <trkpt lat="47.68742" lon="6.05479">
        <ele>259.79998779297</ele>
        <time>2012-04-18T09:49:29.000Z</time>
      </trkpt>
      <trkpt lat="47.68743" lon="6.05473">
        <ele>259.39999389648</ele>
        <time>2012-04-18T09:49:30.000Z</time>
      </trkpt>
      <trkpt lat="47.68744" lon="6.05466">
        <ele>258.60000610352</ele>
        <time>2012-04-18T09:49:31.000Z</time>
      </trkpt>
      <trkpt lat="47.68745" lon="6.05459">
        <ele>257.79998779297</ele>
        <time>2012-04-18T09:49:32.000Z</time>
      </trkpt>
      <trkpt lat="47.68746" lon="6.05452">
        <ele>257</ele>
        <time>2012-04-18T09:49:33.000Z</time>
      </trkpt>
      <trkpt lat="47.68747" lon="6.05446">
        <ele>256.20001220703</ele>
        <time>2012-04-18T09:49:34.000Z</time>
      </trkpt>
      <trkpt lat="47.68748" lon="6.0544">
        <ele>255.39999389648</ele>
        <time>2012-04-18T09:49:35.000Z</time>
      </trkpt>
      <trkpt lat="47.68749" lon="6.05428">
        <ele>255.39999389648</ele>
        <time>2012-04-18T09:49:37.000Z</time>
      </trkpt>
      <trkpt lat="47.68752" lon="6.05394">
        <ele>255.39999389648</ele>
        <time>2012-04-18T09:49:43.000Z</time>
      </trkpt>
      <trkpt lat="47.68756" lon="6.05365">
        <ele>255</ele>
        <time>2012-04-18T09:49:47.000Z</time>
      </trkpt>
      <trkpt lat="47.68757" lon="6.05357">
        <ele>254.60000610352</ele>
        <time>2012-04-18T09:49:48.000Z</time>
      </trkpt>
      <trkpt lat="47.68759" lon="6.05349">
        <ele>254.19999694824</ele>
        <time>2012-04-18T09:49:49.000Z</time>
      </trkpt>
      <trkpt lat="47.6876" lon="6.05342">
        <ele>253.80000305176</ele>
        <time>2012-04-18T09:49:50.000Z</time>
      </trkpt>
      <trkpt lat="47.68761" lon="6.05335">
        <ele>253.39999389648</ele>
        <time>2012-04-18T09:49:51.000Z</time>
      </trkpt>
      <trkpt lat="47.68761" lon="6.05328">
        <ele>253.39999389648</ele>
        <time>2012-04-18T09:49:52.000Z</time>
      </trkpt>
      <trkpt lat="47.68763" lon="6.05321">
        <ele>252.80000305176</ele>
        <time>2012-04-18T09:49:53.000Z</time>
      </trkpt>
      <trkpt lat="47.68764" lon="6.05313">
        <ele>252.39999389648</ele>
        <time>2012-04-18T09:49:54.000Z</time>
      </trkpt>
      <trkpt lat="47.68766" lon="6.05306">
        <ele>252</ele>
        <time>2012-04-18T09:49:55.000Z</time>
      </trkpt>
      <trkpt lat="47.68765" lon="6.05301">
        <ele>251.60000610352</ele>
        <time>2012-04-18T09:49:56.000Z</time>
      </trkpt>
      <trkpt lat="47.68764" lon="6.05297">
        <ele>251.19999694824</ele>
        <time>2012-04-18T09:49:57.000Z</time>
      </trkpt>
      <trkpt lat="47.68766" lon="6.05273">
        <ele>251.19999694824</ele>
        <time>2012-04-18T09:50:02.000Z</time>
      </trkpt>
      <trkpt lat="47.68769" lon="6.05242">
        <ele>251.19999694824</ele>
        <time>2012-04-18T09:50:07.000Z</time>
      </trkpt>
      <trkpt lat="47.6877" lon="6.05228">
        <ele>250.80000305176</ele>
        <time>2012-04-18T09:50:09.000Z</time>
      </trkpt>
      <trkpt lat="47.68771" lon="6.0522">
        <ele>250.39999389648</ele>
        <time>2012-04-18T09:50:10.000Z</time>
      </trkpt>
      <trkpt lat="47.68772" lon="6.05213">
        <ele>250</ele>
        <time>2012-04-18T09:50:11.000Z</time>
      </trkpt>
      <trkpt lat="47.68773" lon="6.05206">
        <ele>249.60000610352</ele>
        <time>2012-04-18T09:50:12.000Z</time>
      </trkpt>
      <trkpt lat="47.68774" lon="6.05198">
        <ele>249.19999694824</ele>
        <time>2012-04-18T09:50:13.000Z</time>
      </trkpt>
      <trkpt lat="47.68777" lon="6.0516">
        <ele>248.80000305176</ele>
        <time>2012-04-18T09:50:18.000Z</time>
      </trkpt>
      <trkpt lat="47.68778" lon="6.05152">
        <ele>248.19999694824</ele>
        <time>2012-04-18T09:50:19.000Z</time>
      </trkpt>
      <trkpt lat="47.68778" lon="6.05145">
        <ele>247.80000305176</ele>
        <time>2012-04-18T09:50:20.000Z</time>
      </trkpt>
      <trkpt lat="47.68779" lon="6.0514">
        <ele>247.39999389648</ele>
        <time>2012-04-18T09:50:21.000Z</time>
      </trkpt>
      <trkpt lat="47.6878" lon="6.05133">
        <ele>247</ele>
        <time>2012-04-18T09:50:22.000Z</time>
      </trkpt>
      <trkpt lat="47.68781" lon="6.05127">
        <ele>247</ele>
        <time>2012-04-18T09:50:23.000Z</time>
      </trkpt>
      <trkpt lat="47.68787" lon="6.05075">
        <ele>247</ele>
        <time>2012-04-18T09:50:31.000Z</time>
      </trkpt>
      <trkpt lat="47.68788" lon="6.05058">
        <ele>246.60000610352</ele>
        <time>2012-04-18T09:50:34.000Z</time>
      </trkpt>
      <trkpt lat="47.6879" lon="6.05054">
        <ele>246.19999694824</ele>
        <time>2012-04-18T09:50:35.000Z</time>
      </trkpt>
      <trkpt lat="47.6879" lon="6.05049">
        <ele>245.80000305176</ele>
        <time>2012-04-18T09:50:36.000Z</time>
      </trkpt>
      <trkpt lat="47.68791" lon="6.05044">
        <ele>245.39999389648</ele>
        <time>2012-04-18T09:50:37.000Z</time>
      </trkpt>
      <trkpt lat="47.68791" lon="6.05038">
        <ele>245</ele>
        <time>2012-04-18T09:50:38.000Z</time>
      </trkpt>
      <trkpt lat="47.6879" lon="6.05021">
        <ele>245</ele>
        <time>2012-04-18T09:50:41.000Z</time>
      </trkpt>
      <trkpt lat="47.68792" lon="6.04997">
        <ele>245</ele>
        <time>2012-04-18T09:50:46.000Z</time>
      </trkpt>
      <trkpt lat="47.68796" lon="6.04968">
        <ele>244.39999389648</ele>
        <time>2012-04-18T09:50:51.000Z</time>
      </trkpt>
      <trkpt lat="47.68796" lon="6.04961">
        <ele>244</ele>
        <time>2012-04-18T09:50:52.000Z</time>
      </trkpt>
      <trkpt lat="47.68797" lon="6.04956">
        <ele>243.60000610352</ele>
        <time>2012-04-18T09:50:53.000Z</time>
      </trkpt>
      <trkpt lat="47.68796" lon="6.04949">
        <ele>243.19999694824</ele>
        <time>2012-04-18T09:50:54.000Z</time>
      </trkpt>
      <trkpt lat="47.68795" lon="6.04943">
        <ele>242.80000305176</ele>
        <time>2012-04-18T09:50:55.000Z</time>
      </trkpt>
      <trkpt lat="47.68793" lon="6.04936">
        <ele>242.80000305176</ele>
        <time>2012-04-18T09:50:56.000Z</time>
      </trkpt>
      <trkpt lat="47.68792" lon="6.0493">
        <ele>242.80000305176</ele>
        <time>2012-04-18T09:50:57.000Z</time>
      </trkpt>
      <trkpt lat="47.68786" lon="6.04898">
        <ele>242.80000305176</ele>
        <time>2012-04-18T09:51:02.000Z</time>
      </trkpt>
      <trkpt lat="47.68779" lon="6.04864">
        <ele>242.80000305176</ele>
        <time>2012-04-18T09:51:07.000Z</time>
      </trkpt>
      <trkpt lat="47.68776" lon="6.04854">
        <ele>242.80000305176</ele>
        <time>2012-04-18T09:51:09.000Z</time>
      </trkpt>
      <trkpt lat="47.68764" lon="6.04812">
        <ele>242.80000305176</ele>
        <time>2012-04-18T09:51:18.000Z</time>
      </trkpt>
      <trkpt lat="47.68755" lon="6.04782">
        <ele>242.80000305176</ele>
        <time>2012-04-18T09:51:25.000Z</time>
      </trkpt>
      <trkpt lat="47.68749" lon="6.04759">
        <ele>242.80000305176</ele>
        <time>2012-04-18T09:51:31.000Z</time>
      </trkpt>
      <trkpt lat="47.68741" lon="6.04734">
        <ele>243.19999694824</ele>
        <time>2012-04-18T09:51:38.000Z</time>
      </trkpt>
      <trkpt lat="47.6874" lon="6.0473">
        <ele>243.60000610352</ele>
        <time>2012-04-18T09:51:39.000Z</time>
      </trkpt>
      <trkpt lat="47.68739" lon="6.04727">
        <ele>244</ele>
        <time>2012-04-18T09:51:40.000Z</time>
      </trkpt>
      <trkpt lat="47.68738" lon="6.04723">
        <ele>244.39999389648</ele>
        <time>2012-04-18T09:51:41.000Z</time>
      </trkpt>
      <trkpt lat="47.68737" lon="6.04719">
        <ele>244.80000305176</ele>
        <time>2012-04-18T09:51:42.000Z</time>
      </trkpt>
      <trkpt lat="47.68729" lon="6.04701">
        <ele>244.80000305176</ele>
        <time>2012-04-18T09:51:47.000Z</time>
      </trkpt>
      <trkpt lat="47.68719" lon="6.04675">
        <ele>244.80000305176</ele>
        <time>2012-04-18T09:51:54.000Z</time>
      </trkpt>
      <trkpt lat="47.68707" lon="6.04649">
        <ele>244.80000305176</ele>
        <time>2012-04-18T09:52:01.000Z</time>
      </trkpt>
      <trkpt lat="47.68693" lon="6.04621">
        <ele>244.80000305176</ele>
        <time>2012-04-18T09:52:09.000Z</time>
      </trkpt>
      <trkpt lat="47.68681" lon="6.04587">
        <ele>244.80000305176</ele>
        <time>2012-04-18T09:52:16.000Z</time>
      </trkpt>
      <trkpt lat="47.68667" lon="6.04558">
        <ele>244.80000305176</ele>
        <time>2012-04-18T09:52:22.000Z</time>
      </trkpt>
      <trkpt lat="47.68649" lon="6.0454">
        <ele>244.39999389648</ele>
        <time>2012-04-18T09:52:26.000Z</time>
      </trkpt>
      <trkpt lat="47.68644" lon="6.04536">
        <ele>243.80000305176</ele>
        <time>2012-04-18T09:52:27.000Z</time>
      </trkpt>
      <trkpt lat="47.68639" lon="6.04533">
        <ele>243.39999389648</ele>
        <time>2012-04-18T09:52:28.000Z</time>
      </trkpt>
      <trkpt lat="47.68635" lon="6.04532">
        <ele>243</ele>
        <time>2012-04-18T09:52:29.000Z</time>
      </trkpt>
      <trkpt lat="47.68631" lon="6.04535">
        <ele>242.60000610352</ele>
        <time>2012-04-18T09:52:30.000Z</time>
      </trkpt>
      <trkpt lat="47.68628" lon="6.04539">
        <ele>242.19999694824</ele>
        <time>2012-04-18T09:52:31.000Z</time>
      </trkpt>
      <trkpt lat="47.68625" lon="6.04543">
        <ele>241.80000305176</ele>
        <time>2012-04-18T09:52:32.000Z</time>
      </trkpt>
      <trkpt lat="47.68625" lon="6.04546">
        <ele>241.39999389648</ele>
        <time>2012-04-18T09:52:33.000Z</time>
      </trkpt>
      <trkpt lat="47.68625" lon="6.04548">
        <ele>241</ele>
        <time>2012-04-18T09:52:34.000Z</time>
      </trkpt>
      <trkpt lat="47.68626" lon="6.0455">
        <ele>240.60000610352</ele>
        <time>2012-04-18T09:52:35.000Z</time>
      </trkpt>
      <trkpt lat="47.68626" lon="6.0455">
        <ele>240.60000610352</ele>
        <time>2012-04-18T09:52:37.000Z</time>
      </trkpt>
      <trkpt lat="47.68626" lon="6.0455">
        <ele>240.60000610352</ele>
        <time>2012-04-18T09:52:40.000Z</time>
      </trkpt>
      <trkpt lat="47.68626" lon="6.0455">
        <ele>240.60000610352</ele>
        <time>2012-04-18T09:52:41.000Z</time>
      </trkpt>
      <trkpt lat="47.68626" lon="6.04549">
        <ele>241</ele>
        <time>2012-04-18T09:52:43.000Z</time>
      </trkpt>
      <trkpt lat="47.68627" lon="6.0455">
        <ele>241.60000610352</ele>
        <time>2012-04-18T09:52:44.000Z</time>
      </trkpt>
      <trkpt lat="47.68627" lon="6.0455">
        <ele>243.19999694824</ele>
        <time>2012-04-18T09:53:01.000Z</time>
      </trkpt>
      <trkpt lat="47.68626" lon="6.0455">
        <ele>243.19999694824</ele>
        <time>2012-04-18T09:53:02.000Z</time>
      </trkpt>
      <trkpt lat="47.68626" lon="6.04551">
        <ele>243.19999694824</ele>
        <time>2012-04-18T09:53:03.000Z</time>
      </trkpt>
      <trkpt lat="47.68624" lon="6.04554">
        <ele>243.19999694824</ele>
        <time>2012-04-18T09:53:09.000Z</time>
      </trkpt>
    </trkseg>
  </trk>
</gpx>